[[{"header":{"parameterUnit":"m.s-1","parameterCategory":1,"la1":31.0,"la2":29.5877,"lo1":-88.7671,"lo2":-86.6584,"dy":0.0162,"dx":0.0185,"nx":115,"ny":88,"refTime":"2023-03-27T18:00:00:Z","depth":0,"parameterNumber":2,"parameterNumberName":"U-component_of_WINDS"},"data":[0.0,0.0,0.0,0.0,0.0,0.0,0.0,0.0,0.0,0.0,0.0,0.0,0.0,0.0,0.0,0.0,0.0,0.0,0.0,0.0,0.0,0.0,0.0,0.0,0.0,0.0,0.0,0.0,0.0,0.0,0.0,0.0,0.0,0.0,0.0,0.0,0.0,0.0,0.0,0.0,0.0,0.0,0.0,0.0,0.0,0.0,0.0,0.0,0.0,0.0,0.0,0.0,0.0,0.0,0.0,0.0,0.0,0.0,0.0,0.0,0.0,0.0,0.0,0.0,0.0,0.0,0.0,0.0,0.0,0.0,0.0,0.0,0.0,0.0,0.0,0.0,0.0,0.0,0.0,0.0,0.0,0.0,0.0,0.0,0.0,0.0,0.0,0.0,0.0,0.0,0.0,0.0,0.0,0.0,0.0,0.0,0.0,0.0,0.0,0.0,0.0,0.0,0.0,0.0,0.0,0.0,0.0,0.0,0.0,0.0,0.0,0.0,0.0,0.0,0.0,0.0,0.0,0.0,0.0,0.0,0.0,0.0,0.0,0.0,0.0,0.0,0.0,0.0,0.0,0.0,0.0,0.0,0.0,0.0,0.0,0.0,0.0,0.0,0.0,0.0,0.0,0.0,0.0,0.0,0.0,0.0,0.0,0.0,0.0,0.0,0.0,0.0,0.0,0.0,0.0,0.0,0.0,0.0,0.0,0.0,0.0,0.0,0.0,0.0,0.0,0.0,0.0,0.0,0.0,0.0,0.0,0.0,0.0,0.0,0.0,0.0,0.0,0.0,0.0,0.0,0.0,0.0,0.0,0.0,0.0,0.0,0.0,0.0,0.0,0.0,0.0,0.0,0.0,0.0,0.0,0.0,0.0,0.0,0.0,0.0,0.0,0.0,0.0,0.0,0.0,0.0,0.0,0.0,0.0,0.0,0.0,0.0,0.0,0.0,0.0,0.0,0.0,0.0,0.0,0.0,0.0,0.0,0.0,0.0,0.0,0.0,0.0,0.0,0.0,0.0,0.0,0.0,0.0,0.0,0.0,0.0,0.0,0.0,0.0,0.0,0.0,0.0,0.0,0.0,0.0,0.0,0.0,0.0,0.0,0.0,0.0,0.0,0.0,0.0,0.0,0.0,0.0,0.0,0.0,0.0,0.0,0.0,0.0,0.0,0.0,0.0,0.0,0.0,0.0,0.0,0.0,0.0,0.0,0.0,0.0,0.0,0.0,0.0,0.0,0.0,0.0,0.0,0.0,0.0,0.0,0.0,0.0,0.0,0.0,0.0,0.0,0.0,0.0,0.0,0.0,0.0,0.0,0.0,0.0,0.0,0.0,0.0,0.0,0.0,0.0,0.0,0.0,0.0,0.0,0.0,0.0,0.0,0.0,0.0,0.0,0.0,0.0,0.0,0.0,0.0,0.0,0.0,0.0,0.0,0.0,0.0,0.0,0.0,0.0,0.0,0.0,0.0,0.0,0.0,0.0,0.0,0.0,0.0,0.0,0.0,0.0,0.0,0.0,0.0,0.0,0.0,0.0,0.0,0.0,0.0,0.0,0.0,0.0,0.0,0.0,0.0,0.0,0.0,0.0,0.0,0.0,0.0,0.0,0.0,0.0,0.0,0.0,0.0,0.0,0.0,0.0,0.0,0.0,0.0,0.0,0.0,0.0,0.0,0.0,0.0,0.0,0.0,0.0,0.0,0.0,0.0,0.0,0.0,0.0,0.0,0.0,0.0,0.0,0.0,0.0,0.0,0.0,0.0,0.0,0.0,0.0,0.0,0.0,0.0,0.0,0.0,0.0,0.0,0.0,0.0,0.0,0.0,0.0,0.0,0.0,0.0,0.0,0.0,0.0,0.0,0.0,0.0,0.0,0.0,0.0,0.0,0.0,0.0,0.0,0.0,0.0,0.0,0.0,0.0,0.0,0.0,0.0,0.0,0.0,0.0,0.0,0.0,0.0,0.0,0.0,0.0,0.0,0.0,0.0,0.0,0.0,0.0,0.0,0.0,0.0,0.0,0.0,0.0,0.0,0.0,0.0,0.0,0.0,0.0,0.0,0.0,0.0,0.0,0.0,0.0,0.0,0.0,0.0,0.0,0.0,0.0,0.0,0.0,0.0,0.0,0.0,0.0,0.0,0.0,0.0,0.0,0.0,0.0,0.0,0.0,0.0,0.0,0.0,0.0,0.0,0.0,0.0,0.0,0.0,0.0,0.0,0.0,0.0,0.0,0.0,0.0,0.0,0.0,0.0,0.0,0.0,0.0,0.0,0.0,0.0,0.0,0.0,0.0,0.0,0.0,0.0,0.0,0.0,0.0,0.0,0.0,0.0,0.0,0.0,0.0,0.0,0.0,0.0,0.0,0.0,0.0,0.0,0.0,0.0,0.0,0.0,0.0,0.0,0.0,0.0,0.0,0.0,0.0,0.0,0.0,0.0,0.0,0.0,0.0,0.0,0.0,0.0,0.0,0.0,0.0,0.0,0.0,0.0,0.0,0.0,0.0,0.0,0.0,0.0,0.0,0.0,0.0,0.0,0.0,0.0,0.0,0.0,0.0,0.0,0.0,0.0,0.0,0.0,0.0,0.0,0.0,0.0,0.0,0.0,0.0,0.0,0.0,0.0,0.0,0.0,0.0,0.0,0.0,0.0,0.0,0.0,0.0,0.0,0.0,0.0,0.0,0.0,0.0,0.0,0.0,0.0,0.0,0.0,0.0,0.0,0.0,0.0,0.0,0.0,0.0,0.0,0.0,0.0,0.0,0.0,0.0,0.0,0.0,0.0,0.0,0.0,0.0,0.0,0.0,0.0,0.0,0.0,0.0,0.0,0.0,0.0,0.0,0.0,0.0,0.0,0.0,0.0,0.0,0.0,0.0,0.0,0.0,0.0,0.0,0.0,0.0,0.0,0.0,0.0,0.0,0.0,0.0,0.0,0.0,0.0,0.0,0.0,0.0,0.0,0.0,0.0,0.0,0.0,0.0,0.0,0.0,0.0,0.0,0.0,0.0,0.0,0.0,0.0,0.0,0.0,0.0,0.0,0.0,0.0,0.0,0.0,0.0,0.0,0.0,0.0,0.0,0.0,0.0,0.0,0.0,0.0,0.0,0.0,0.0,0.0,0.0,0.0,0.0,0.0,0.0,0.0,0.0,0.0,0.0,0.0,0.0,0.0,0.0,0.0,0.0,0.0,0.0,0.0,0.0,0.0,0.0,0.0,0.0,0.0,0.0,0.0,0.0,0.0,0.0,0.0,0.0,0.0,0.0,0.0,0.0,0.0,0.0,0.0,0.0,0.0,0.0,0.0,0.0,0.0,0.0,0.0,0.0,0.0,0.0,0.0,0.0,0.0,0.0,0.0,0.0,0.0,0.0,0.0,0.0,0.0,0.0,0.0,0.0,0.0,0.0,0.0,0.0,0.0,0.0,0.0,0.0,0.0,0.0,0.0,0.0,0.0,0.0,0.0,0.0,0.0,0.0,0.0,0.0,0.0,0.0,0.0,0.0,0.0,0.0,0.0,0.0,0.0,0.0,0.0,0.0,0.0,0.0,0.0,0.0,0.0,0.0,0.0,0.0,0.0,0.0,0.0,0.0,0.0,0.0,0.0,0.0,0.0,0.0,0.0,0.0,0.0,0.0,0.0,0.0,0.0,0.0,0.0,0.0,0.0,0.0,0.0,0.0,0.0,0.0,0.0,0.0,0.0,0.0,0.0,0.0,0.0,0.0,0.0,0.0,0.0,0.0,0.0,0.0,0.0,0.0,0.0,0.0,0.0,0.0,0.0,0.0,0.0,0.0,0.0,0.0,0.0,0.0,0.0,0.0,0.0,0.0,0.0,0.0,0.0,0.0,0.0,0.0,0.0,0.0,0.0,0.0,0.0,0.0,0.0,0.0,0.0,0.0,0.0,0.0,0.0,0.0,0.0,0.0,0.0,0.0,0.0,0.0,0.0,0.0,0.0,0.0,0.0,0.0,0.0,0.0,0.0,0.0,0.0,0.0,0.0,0.0,0.0,0.0,0.0,0.0,0.0,0.0,0.0,0.0,0.0,0.0,0.0,0.0,0.0,0.0,0.0,0.0,0.0,0.0,0.0,0.0,0.0,0.0,0.0,0.0,0.0,0.0,0.0,0.0,0.0,0.0,0.0,0.0,0.0,0.0,0.0,0.0,0.0,0.0,0.0,0.0,0.0,0.0,0.0,0.0,0.0,0.0,0.0,0.0,0.0,0.0,0.0,0.0,0.0,0.0,0.0,0.0,0.0,0.0,0.0,0.0,-2.0843,0.0,0.0,0.0,0.0,0.0,0.0,0.0,0.0,0.0,0.0,0.0,0.0,0.0,0.0,0.0,0.0,0.0,0.0,0.0,0.0,0.0,0.0,0.0,0.0,0.0,0.0,0.0,0.0,0.0,0.0,0.0,0.0,0.0,0.0,0.0,0.0,0.0,0.0,0.0,0.0,0.0,0.0,0.0,0.0,0.0,0.0,0.0,0.0,0.0,0.0,0.0,0.0,0.0,0.0,0.0,0.0,0.0,0.0,0.0,0.0,0.0,0.0,0.0,0.0,0.0,0.0,0.0,0.0,0.0,0.0,0.0,0.0,0.0,0.0,0.0,0.0,0.0,0.0,0.0,0.0,0.0,0.0,0.0,0.0,0.0,0.0,0.0,0.0,0.0,0.0,0.0,0.0,0.0,0.0,0.0,0.0,0.0,0.0,0.0,0.0,0.0,0.0,0.0,0.0,0.0,0.0,0.0,0.0,0.0,0.0,-2.2221,-2.1554,-2.1194,-2.1126,-2.1428,0.0,0.0,0.0,0.0,0.0,0.0,0.0,0.0,0.0,0.0,0.0,0.0,0.0,0.0,0.0,0.0,0.0,0.0,0.0,0.0,0.0,0.0,0.0,0.0,0.0,0.0,0.0,0.0,0.0,0.0,0.0,0.0,0.0,0.0,0.0,0.0,0.0,0.0,0.0,0.0,0.0,0.0,0.0,0.0,0.0,0.0,0.0,0.0,0.0,0.0,0.0,0.0,0.0,0.0,0.0,0.0,0.0,0.0,0.0,0.0,0.0,0.0,0.0,0.0,0.0,0.0,0.0,0.0,0.0,0.0,0.0,0.0,0.0,0.0,0.0,0.0,0.0,0.0,0.0,0.0,0.0,0.0,0.0,0.0,0.0,0.0,0.0,0.0,0.0,0.0,0.0,0.0,0.0,0.0,0.0,0.0,0.0,0.0,0.0,0.0,0.0,0.0,0.0,0.0,0.0,0.0,0.0,0.0,0.0,0.0,0.0,0.0,-2.1913,-2.1843,-2.2024,0.0,0.0,0.0,0.0,0.0,0.0,0.0,0.0,0.0,0.0,0.0,0.0,0.0,0.0,0.0,0.0,0.0,0.0,0.0,0.0,0.0,0.0,0.0,0.0,0.0,0.0,0.0,0.0,0.0,0.0,0.0,0.0,0.0,0.0,0.0,0.0,0.0,0.0,0.0,0.0,0.0,0.0,0.0,0.0,0.0,0.0,0.0,0.0,0.0,0.0,0.0,0.0,0.0,0.0,0.0,0.0,0.0,0.0,0.0,0.0,0.0,0.0,0.0,0.0,0.0,0.0,0.0,0.0,0.0,0.0,0.0,0.0,0.0,0.0,0.0,0.0,0.0,0.0,0.0,0.0,0.0,0.0,0.0,0.0,0.0,0.0,0.0,0.0,0.0,0.0,0.0,0.0,0.0,0.0,0.0,0.0,0.0,0.0,0.0,0.0,0.0,0.0,0.0,0.0,0.0,0.0,0.0,0.0,0.0,0.0,-2.2714,-2.2654,-2.2044,0.0,-2.2604,0.0,0.0,0.0,0.0,0.0,0.0,0.0,0.0,0.0,0.0,0.0,0.0,0.0,0.0,0.0,0.0,0.0,0.0,0.0,0.0,0.0,0.0,0.0,0.0,0.0,0.0,0.0,0.0,0.0,0.0,0.0,0.0,0.0,0.0,0.0,0.0,0.0,0.0,0.0,0.0,0.0,0.0,0.0,0.0,0.0,0.0,0.0,0.0,0.0,0.0,0.0,0.0,0.0,0.0,0.0,0.0,0.0,0.0,0.0,0.0,0.0,0.0,0.0,0.0,0.0,0.0,0.0,0.0,0.0,0.0,0.0,0.0,0.0,0.0,0.0,0.0,0.0,0.0,0.0,0.0,0.0,0.0,0.0,0.0,0.0,0.0,0.0,0.0,0.0,0.0,0.0,0.0,0.0,0.0,0.0,0.0,0.0,0.0,0.0,0.0,0.0,0.0,0.0,0.0,0.0,0.0,0.0,0.0,0.0,0.0,-2.3221,-2.3242,-2.2951,-2.2951,0.0,0.0,0.0,0.0,0.0,0.0,0.0,0.0,0.0,0.0,0.0,0.0,0.0,0.0,0.0,0.0,0.0,0.0,0.0,0.0,0.0,0.0,0.0,0.0,0.0,0.0,0.0,0.0,0.0,0.0,0.0,0.0,0.0,0.0,0.0,0.0,0.0,0.0,0.0,0.0,0.0,0.0,0.0,0.0,0.0,0.0,0.0,0.0,0.0,0.0,0.0,0.0,0.0,0.0,0.0,0.0,0.0,0.0,0.0,0.0,0.0,0.0,0.0,0.0,0.0,0.0,0.0,0.0,0.0,0.0,0.0,0.0,0.0,0.0,0.0,0.0,0.0,0.0,0.0,0.0,0.0,0.0,0.0,0.0,0.0,0.0,0.0,0.0,0.0,0.0,0.0,0.0,0.0,0.0,0.0,0.0,0.0,0.0,0.0,0.0,0.0,0.0,0.0,0.0,0.0,0.0,0.0,0.0,0.0,0.0,-2.3699,-2.361,-2.361,-2.3789,-2.3857,-2.3879,0.0,0.0,0.0,0.0,0.0,0.0,0.0,0.0,0.0,0.0,0.0,0.0,0.0,0.0,0.0,0.0,0.0,0.0,0.0,0.0,0.0,0.0,0.0,0.0,0.0,0.0,0.0,0.0,0.0,0.0,0.0,0.0,0.0,0.0,0.0,0.0,0.0,0.0,0.0,0.0,0.0,0.0,0.0,0.0,0.0,0.0,0.0,0.0,0.0,0.0,0.0,0.0,0.0,0.0,0.0,0.0,0.0,0.0,0.0,0.0,0.0,0.0,0.0,0.0,0.0,0.0,0.0,0.0,0.0,0.0,0.0,0.0,0.0,0.0,0.0,0.0,0.0,0.0,0.0,0.0,0.0,0.0,0.0,0.0,0.0,0.0,0.0,0.0,0.0,0.0,0.0,0.0,0.0,0.0,0.0,0.0,0.0,0.0,0.0,0.0,0.0,0.0,0.0,0.0,0.0,0.0,0.0,0.0,-2.4545,-2.3969,-2.361,-2.364,-2.4216,-2.4545,0.0,0.0,0.0,0.0,0.0,0.0,0.0,0.0,0.0,0.0,0.0,0.0,0.0,0.0,0.0,0.0,0.0,0.0,0.0,0.0,0.0,0.0,0.0,0.0,0.0,0.0,0.0,0.0,0.0,0.0,0.0,0.0,0.0,0.0,0.0,0.0,0.0,0.0,0.0,0.0,0.0,0.0,0.0,0.0,0.0,0.0,0.0,0.0,0.0,0.0,0.0,0.0,0.0,0.0,0.0,0.0,0.0,0.0,0.0,0.0,0.0,0.0,0.0,0.0,0.0,0.0,0.0,0.0,0.0,0.0,0.0,0.0,0.0,0.0,0.0,0.0,0.0,0.0,0.0,0.0,0.0,0.0,0.0,0.0,0.0,0.0,0.0,0.0,0.0,0.0,0.0,0.0,0.0,0.0,0.0,0.0,0.0,0.0,0.0,0.0,0.0,0.0,0.0,0.0,0.0,0.0,0.0,0.0,0.0,-2.4664,-2.4807,-2.4866,-2.4896,-2.5113,-2.5232,0.0,0.0,0.0,0.0,0.0,0.0,0.0,0.0,0.0,0.0,0.0,0.0,0.0,0.0,0.0,0.0,0.0,0.0,0.0,0.0,0.0,0.0,0.0,0.0,0.0,0.0,0.0,0.0,0.0,0.0,0.0,0.0,0.0,0.0,0.0,0.0,0.0,0.0,0.0,0.0,0.0,0.0,0.0,0.0,0.0,0.0,0.0,0.0,0.0,0.0,0.0,0.0,0.0,0.0,0.0,0.0,0.0,0.0,0.0,0.0,0.0,0.0,0.0,0.0,0.0,0.0,0.0,0.0,0.0,0.0,0.0,0.0,0.0,0.0,0.0,0.0,0.0,0.0,0.0,0.0,0.0,0.0,0.0,0.0,0.0,0.0,0.0,0.0,0.0,0.0,0.0,0.0,0.0,0.0,0.0,0.0,0.0,0.0,0.0,0.0,0.0,0.0,0.0,0.0,0.0,0.0,0.0,0.0,0.0,-2.4664,0.0,-2.5382,-2.5591,-2.5824,-2.5914,0.0,0.0,0.0,0.0,0.0,0.0,0.0,0.0,0.0,0.0,0.0,0.0,0.0,0.0,0.0,0.0,0.0,0.0,0.0,0.0,0.0,0.0,0.0,0.0,0.0,0.0,0.0,0.0,0.0,0.0,0.0,0.0,0.0,0.0,0.0,0.0,0.0,0.0,0.0,0.0,0.0,0.0,0.0,0.0,0.0,0.0,0.0,0.0,0.0,0.0,0.0,0.0,0.0,0.0,0.0,0.0,0.0,0.0,0.0,0.0,0.0,0.0,0.0,0.0,0.0,0.0,0.0,0.0,0.0,0.0,0.0,0.0,0.0,0.0,0.0,0.0,0.0,0.0,0.0,0.0,0.0,0.0,0.0,0.0,0.0,0.0,0.0,0.0,0.0,0.0,0.0,0.0,0.0,0.0,0.0,0.0,0.0,0.0,0.0,0.0,0.0,0.0,0.0,0.0,0.0,0.0,0.0,0.0,-2.5345,-2.4724,-2.4754,-2.5173,-2.5621,-2.6333,-2.6632,0.0,0.0,0.0,0.0,0.0,0.0,0.0,0.0,0.0,0.0,0.0,0.0,0.0,0.0,0.0,0.0,0.0,0.0,0.0,0.0,0.0,0.0,0.0,0.0,0.0,0.0,0.0,0.0,0.0,0.0,0.0,0.0,0.0,0.0,0.0,0.0,0.0,0.0,0.0,0.0,0.0,0.0,0.0,0.0,0.0,0.0,0.0,0.0,0.0,0.0,0.0,0.0,0.0,0.0,0.0,0.0,0.0,0.0,0.0,0.0,0.0,0.0,0.0,0.0,0.0,0.0,0.0,0.0,0.0,0.0,0.0,0.0,0.0,0.0,0.0,0.0,0.0,0.0,0.0,0.0,0.0,0.0,0.0,0.0,0.0,0.0,0.0,0.0,0.0,0.0,0.0,0.0,0.0,0.0,0.0,0.0,0.0,0.0,0.0,0.0,0.0,0.0,0.0,0.0,0.0,0.0,0.0,0.0,0.0,-2.7325,-2.7799,-2.8158,-2.8338,-2.8098,-2.7979,0.0,0.0,0.0,0.0,0.0,0.0,0.0,0.0,0.0,0.0,0.0,0.0,0.0,0.0,0.0,0.0,0.0,0.0,0.0,0.0,0.0,0.0,0.0,0.0,0.0,0.0,0.0,0.0,0.0,0.0,0.0,0.0,0.0,0.0,0.0,0.0,0.0,0.0,0.0,0.0,0.0,0.0,0.0,0.0,0.0,0.0,0.0,0.0,0.0,0.0,0.0,0.0,0.0,0.0,0.0,0.0,0.0,0.0,0.0,0.0,0.0,0.0,0.0,0.0,0.0,0.0,0.0,0.0,0.0,0.0,0.0,0.0,0.0,0.0,0.0,0.0,0.0,0.0,0.0,0.0,0.0,0.0,0.0,0.0,0.0,0.0,0.0,0.0,0.0,0.0,0.0,0.0,0.0,0.0,0.0,0.0,0.0,0.0,0.0,0.0,0.0,0.0,0.0,0.0,0.0,0.0,0.0,0.0,0.0,-2.8906,-2.8637,-2.8723,-2.9205,-2.8816,-2.8607,-2.8547,0.0,0.0,0.0,0.0,0.0,0.0,0.0,0.0,0.0,0.0,0.0,0.0,0.0,0.0,0.0,0.0,0.0,0.0,0.0,0.0,0.0,0.0,0.0,0.0,0.0,0.0,0.0,0.0,0.0,0.0,0.0,0.0,0.0,0.0,0.0,0.0,0.0,0.0,0.0,0.0,0.0,0.0,0.0,0.0,0.0,0.0,0.0,0.0,0.0,0.0,0.0,0.0,0.0,0.0,0.0,0.0,0.0,0.0,0.0,0.0,0.0,0.0,0.0,0.0,0.0,0.0,0.0,0.0,0.0,0.0,0.0,0.0,0.0,0.0,0.0,0.0,0.0,0.0,0.0,0.0,0.0,0.0,0.0,0.0,0.0,0.0,0.0,0.0,0.0,0.0,0.0,0.0,0.0,0.0,0.0,0.0,0.0,0.0,0.0,0.0,0.0,0.0,0.0,0.0,0.0,0.0,0.0,0.0,-2.9651,-2.7769,-2.741,-2.8637,-2.8667,-2.8667,0.0,0.0,0.0,0.0,0.0,0.0,0.0,0.0,0.0,0.0,0.0,0.0,0.0,0.0,0.0,0.0,0.0,0.0,0.0,0.0,0.0,0.0,0.0,0.0,0.0,0.0,0.0,0.0,0.0,0.0,0.0,0.0,0.0,0.0,0.0,0.0,0.0,0.0,0.0,0.0,0.0,0.0,0.0,0.0,0.0,0.0,0.0,0.0,0.0,0.0,0.0,0.0,0.0,0.0,0.0,0.0,0.0,0.0,0.0,0.0,0.0,0.0,0.0,0.0,0.0,0.0,0.0,0.0,0.0,0.0,0.0,0.0,0.0,0.0,0.0,0.0,0.0,0.0,0.0,0.0,0.0,0.0,0.0,0.0,0.0,0.0,0.0,0.0,0.0,0.0,0.0,0.0,0.0,0.0,0.0,0.0,0.0,0.0,0.0,0.0,0.0,0.0,0.0,0.0,0.0,0.0,0.0,0.0,0.0,-3.0223,-2.9295,-2.8966,-2.9352,-2.9352,-2.9325,0.0,0.0,0.0,0.0,0.0,0.0,0.0,0.0,0.0,0.0,0.0,0.0,0.0,0.0,0.0,0.0,0.0,0.0,0.0,0.0,0.0,0.0,0.0,0.0,0.0,0.0,0.0,0.0,0.0,0.0,0.0,0.0,0.0,0.0,0.0,0.0,0.0,0.0,0.0,0.0,0.0,0.0,0.0,0.0,0.0,0.0,0.0,0.0,0.0,0.0,0.0,0.0,0.0,0.0,0.0,0.0,0.0,0.0,0.0,0.0,0.0,0.0,0.0,0.0,0.0,0.0,0.0,0.0,0.0,0.0,0.0,0.0,0.0,0.0,0.0,0.0,0.0,0.0,0.0,0.0,0.0,0.0,0.0,0.0,0.0,0.0,0.0,0.0,0.0,0.0,0.0,0.0,0.0,0.0,0.0,0.0,0.0,0.0,0.0,0.0,0.0,0.0,0.0,0.0,0.0,0.0,0.0,0.0,-3.0492,-3.0492,-2.9921,-2.9537,-2.9456,-2.9806,-2.9983,0.0,0.0,0.0,0.0,0.0,0.0,0.0,0.0,0.0,0.0,0.0,0.0,0.0,0.0,0.0,0.0,0.0,0.0,0.0,0.0,0.0,0.0,0.0,0.0,0.0,0.0,0.0,0.0,0.0,0.0,0.0,0.0,0.0,0.0,0.0,0.0,0.0,0.0,0.0,0.0,0.0,0.0,0.0,0.0,0.0,0.0,0.0,0.0,0.0,0.0,0.0,0.0,0.0,0.0,0.0,0.0,0.0,0.0,0.0,0.0,0.0,0.0,0.0,0.0,0.0,0.0,0.0,0.0,0.0,0.0,0.0,0.0,0.0,0.0,0.0,0.0,0.0,0.0,0.0,0.0,0.0,0.0,0.0,0.0,0.0,0.0,0.0,0.0,0.0,0.0,0.0,0.0,0.0,0.0,0.0,0.0,0.0,0.0,0.0,0.0,0.0,0.0,0.0,0.0,0.0,0.0,0.0,0.0,-3.0582,-3.0492,-3.0043,-2.9692,-2.9527,-3.0229,-3.0554,0.0,0.0,0.0,0.0,0.0,0.0,0.0,0.0,0.0,0.0,0.0,0.0,0.0,0.0,0.0,0.0,0.0,0.0,0.0,0.0,0.0,0.0,0.0,0.0,0.0,0.0,0.0,0.0,0.0,0.0,0.0,0.0,0.0,0.0,0.0,0.0,0.0,0.0,0.0,0.0,0.0,0.0,0.0,0.0,0.0,0.0,0.0,0.0,0.0,0.0,0.0,0.0,0.0,0.0,0.0,0.0,0.0,0.0,0.0,0.0,0.0,0.0,0.0,0.0,0.0,0.0,0.0,0.0,0.0,0.0,0.0,0.0,0.0,0.0,0.0,0.0,0.0,0.0,0.0,0.0,0.0,0.0,0.0,0.0,0.0,0.0,0.0,0.0,0.0,0.0,0.0,0.0,0.0,0.0,0.0,0.0,0.0,0.0,0.0,0.0,0.0,0.0,0.0,0.0,0.0,0.0,0.0,0.0,-3.1002,-3.0522,-3.0768,-3.0919,-3.0862,-3.1154,-3.0948,0.0,0.0,0.0,0.0,0.0,0.0,0.0,0.0,0.0,0.0,0.0,0.0,0.0,0.0,0.0,0.0,0.0,0.0,0.0,0.0,0.0,0.0,0.0,0.0,0.0,0.0,0.0,0.0,0.0,0.0,0.0,0.0,0.0,0.0,0.0,0.0,0.0,0.0,0.0,0.0,0.0,0.0,0.0,0.0,0.0,0.0,0.0,0.0,-2.117,0.0,0.0,0.0,0.0,0.0,0.0,0.0,0.0,0.0,0.0,0.0,0.0,0.0,0.0,0.0,0.0,0.0,0.0,0.0,0.0,0.0,0.0,0.0,0.0,0.0,0.0,0.0,0.0,0.0,0.0,0.0,0.0,0.0,0.0,0.0,0.0,0.0,0.0,0.0,0.0,0.0,0.0,0.0,0.0,0.0,0.0,0.0,0.0,0.0,0.0,0.0,0.0,0.0,0.0,0.0,0.0,0.0,0.0,0.0,-3.1302,-3.0887,-3.1157,-3.1219,-3.1102,-3.1427,-3.125,0.0,0.0,0.0,0.0,0.0,0.0,0.0,0.0,0.0,0.0,0.0,0.0,0.0,0.0,0.0,0.0,0.0,0.0,0.0,0.0,0.0,0.0,0.0,0.0,0.0,0.0,0.0,0.0,0.0,0.0,0.0,0.0,0.0,0.0,0.0,0.0,0.0,0.0,0.0,0.0,0.0,0.0,0.0,0.0,0.0,0.0,0.0,0.0,0.0,0.0,0.0,0.0,0.0,0.0,0.0,0.0,0.0,0.0,0.0,0.0,0.0,0.0,0.0,0.0,0.0,0.0,0.0,0.0,0.0,0.0,0.0,0.0,0.0,0.0,0.0,0.0,0.0,0.0,0.0,0.0,0.0,0.0,0.0,0.0,0.0,0.0,0.0,0.0,0.0,0.0,0.0,0.0,0.0,0.0,0.0,0.0,0.0,0.0,0.0,0.0,0.0,0.0,0.0,0.0,0.0,0.0,0.0,-3.1362,-3.1364,-3.1158,-3.1219,-3.1073,-3.0806,-3.1242,-3.127,-3.0656,0.0,0.0,0.0,0.0,0.0,0.0,0.0,0.0,0.0,0.0,0.0,0.0,0.0,0.0,0.0,0.0,0.0,0.0,0.0,0.0,0.0,0.0,0.0,0.0,0.0,0.0,0.0,0.0,0.0,0.0,0.0,0.0,0.0,0.0,0.0,0.0,0.0,0.0,-2.3804,-2.4442,0.0,0.0,0.0,0.0,0.0,0.0,0.0,0.0,-2.4838,0.0,0.0,0.0,0.0,0.0,0.0,0.0,0.0,0.0,0.0,0.0,0.0,0.0,0.0,0.0,0.0,0.0,0.0,0.0,0.0,0.0,0.0,0.0,0.0,0.0,0.0,0.0,0.0,0.0,0.0,0.0,0.0,0.0,0.0,0.0,0.0,0.0,0.0,0.0,0.0,0.0,0.0,0.0,0.0,0.0,0.0,0.0,0.0,0.0,0.0,0.0,0.0,0.0,0.0,0.0,0.0,-2.9894,-3.0857,-3.1069,-3.0505,-3.0749,-3.0807,-3.0628,-3.0472,-3.0225,-2.9834,0.0,0.0,0.0,0.0,0.0,0.0,0.0,0.0,0.0,0.0,0.0,0.0,0.0,0.0,0.0,0.0,0.0,0.0,0.0,0.0,0.0,0.0,0.0,0.0,0.0,0.0,0.0,0.0,0.0,0.0,0.0,0.0,0.0,0.0,0.0,0.0,0.0,0.0,0.0,-2.4418,-2.4766,0.0,0.0,0.0,0.0,0.0,0.0,0.0,0.0,-2.5061,0.0,0.0,0.0,0.0,0.0,0.0,0.0,0.0,0.0,0.0,0.0,0.0,0.0,0.0,0.0,0.0,0.0,0.0,0.0,0.0,0.0,0.0,0.0,0.0,0.0,0.0,0.0,0.0,0.0,0.0,0.0,0.0,0.0,0.0,0.0,0.0,0.0,0.0,0.0,0.0,0.0,0.0,0.0,0.0,0.0,0.0,0.0,0.0,0.0,0.0,0.0,0.0,0.0,0.0,0.0,-3.0499,-3.0952,-3.0984,-3.0572,-3.0719,-3.0628,-3.0355,-3.0111,-2.9806,0.0,0.0,0.0,0.0,0.0,0.0,0.0,0.0,0.0,0.0,0.0,0.0,0.0,0.0,0.0,0.0,0.0,0.0,0.0,0.0,0.0,0.0,0.0,0.0,0.0,0.0,0.0,0.0,0.0,0.0,0.0,0.0,0.0,0.0,0.0,0.0,0.0,0.0,0.0,0.0,-2.572,-2.6303,-2.6303,0.0,0.0,0.0,0.0,0.0,0.0,-2.7111,-2.6736,0.0,0.0,0.0,0.0,0.0,0.0,0.0,0.0,0.0,0.0,0.0,0.0,0.0,0.0,0.0,0.0,0.0,0.0,0.0,0.0,0.0,0.0,0.0,0.0,0.0,0.0,0.0,0.0,0.0,0.0,0.0,0.0,0.0,0.0,0.0,0.0,0.0,0.0,0.0,0.0,0.0,0.0,0.0,0.0,0.0,0.0,0.0,0.0,0.0,0.0,0.0,0.0,0.0,0.0,0.0,-3.1219,-3.1102,-3.0955,-3.0806,-3.0746,-3.0506,-3.005,-2.9837,-2.9529,0.0,0.0,0.0,0.0,0.0,0.0,0.0,0.0,0.0,0.0,0.0,0.0,0.0,0.0,0.0,0.0,0.0,0.0,0.0,0.0,0.0,0.0,0.0,0.0,0.0,0.0,0.0,0.0,0.0,0.0,0.0,0.0,0.0,0.0,0.0,0.0,0.0,0.0,0.0,0.0,0.0,-2.7753,-2.7869,-2.7926,0.0,0.0,0.0,0.0,-2.8594,-2.8565,0.0,0.0,0.0,0.0,0.0,0.0,0.0,0.0,0.0,0.0,0.0,0.0,0.0,0.0,0.0,0.0,0.0,0.0,0.0,0.0,0.0,0.0,0.0,0.0,0.0,0.0,0.0,0.0,0.0,0.0,0.0,0.0,0.0,0.0,0.0,0.0,0.0,0.0,0.0,0.0,0.0,0.0,0.0,0.0,0.0,0.0,0.0,0.0,0.0,0.0,0.0,0.0,0.0,0.0,0.0,0.0,-3.1073,-3.0925,-3.0836,-3.0806,-3.0507,-3.0205,-2.9839,-2.9529,-2.9216,0.0,0.0,0.0,0.0,0.0,0.0,0.0,0.0,0.0,0.0,0.0,0.0,0.0,0.0,0.0,0.0,0.0,0.0,0.0,0.0,0.0,0.0,0.0,0.0,0.0,0.0,0.0,0.0,0.0,0.0,0.0,0.0,0.0,0.0,0.0,0.0,0.0,0.0,0.0,0.0,0.0,-2.7898,-2.8507,-2.8593,-2.8593,0.0,0.0,-2.8594,-2.868,-2.8216,0.0,0.0,0.0,0.0,0.0,0.0,0.0,0.0,0.0,0.0,0.0,0.0,0.0,0.0,0.0,0.0,0.0,0.0,0.0,0.0,0.0,0.0,0.0,0.0,0.0,0.0,0.0,0.0,0.0,0.0,0.0,0.0,0.0,0.0,0.0,0.0,0.0,0.0,0.0,0.0,0.0,0.0,0.0,0.0,0.0,0.0,0.0,0.0,0.0,0.0,0.0,0.0,0.0,0.0,0.0,-3.0661,-3.0925,-3.0657,-3.0507,-3.0507,-3.0176,-2.9839,-2.9529,-2.964,-2.9412,0.0,0.0,0.0,0.0,0.0,0.0,0.0,0.0,0.0,0.0,0.0,0.0,0.0,0.0,0.0,0.0,0.0,0.0,0.0,0.0,0.0,0.0,0.0,0.0,0.0,0.0,0.0,0.0,0.0,0.0,0.0,0.0,0.0,0.0,0.0,0.0,0.0,0.0,0.0,0.0,0.0,0.0,-2.9639,-3.0075,0.0,0.0,0.0,-3.0306,-3.0277,0.0,0.0,0.0,0.0,0.0,0.0,0.0,0.0,0.0,0.0,0.0,0.0,0.0,0.0,0.0,0.0,0.0,0.0,0.0,0.0,0.0,0.0,0.0,0.0,0.0,0.0,0.0,0.0,0.0,0.0,0.0,0.0,0.0,0.0,0.0,0.0,0.0,0.0,0.0,0.0,0.0,0.0,0.0,0.0,0.0,0.0,0.0,0.0,0.0,0.0,0.0,0.0,0.0,0.0,0.0,0.0,0.0,-3.0627,-3.0529,-3.0434,-3.0403,-3.0097,-2.9845,-2.9497,-2.961,0.0,0.0,0.0,0.0,0.0,0.0,0.0,0.0,0.0,0.0,0.0,0.0,0.0,0.0,0.0,0.0,0.0,0.0,0.0,0.0,0.0,0.0,0.0,0.0,0.0,0.0,0.0,-2.5807,0.0,0.0,0.0,0.0,0.0,0.0,0.0,0.0,0.0,0.0,0.0,0.0,0.0,0.0,-2.9377,-3.0656,-3.1206,-3.1553,0.0,0.0,-3.1495,-3.1495,-3.0858,-2.9929,0.0,0.0,0.0,0.0,0.0,0.0,0.0,0.0,0.0,0.0,0.0,0.0,0.0,0.0,0.0,0.0,0.0,0.0,0.0,0.0,0.0,0.0,0.0,0.0,0.0,0.0,0.0,0.0,0.0,0.0,0.0,0.0,0.0,0.0,0.0,0.0,0.0,0.0,0.0,0.0,0.0,0.0,0.0,0.0,0.0,0.0,0.0,0.0,0.0,0.0,0.0,0.0,0.0,0.0,0.0,-3.017,-3.0683,-3.0874,-3.0687,-3.0527,-3.0299,-2.9946,-2.9251,-2.8816,0.0,0.0,0.0,0.0,0.0,0.0,0.0,0.0,0.0,0.0,0.0,0.0,0.0,0.0,0.0,0.0,0.0,0.0,0.0,0.0,0.0,0.0,0.0,0.0,0.0,0.0,0.0,0.0,0.0,0.0,0.0,0.0,0.0,0.0,0.0,0.0,0.0,0.0,0.0,0.0,0.0,-3.0016,-3.1263,-3.1466,-3.1727,0.0,0.0,-3.1495,-3.1495,-3.048,-2.9813,-3.0336,0.0,0.0,0.0,0.0,0.0,0.0,0.0,0.0,0.0,0.0,0.0,0.0,0.0,0.0,0.0,0.0,0.0,0.0,0.0,0.0,0.0,0.0,0.0,0.0,0.0,0.0,0.0,0.0,0.0,0.0,0.0,0.0,0.0,0.0,0.0,0.0,0.0,0.0,0.0,0.0,0.0,0.0,0.0,0.0,0.0,0.0,0.0,0.0,0.0,0.0,0.0,0.0,0.0,-3.0697,-3.0902,-3.0664,-3.0648,-3.0918,-3.0715,-3.035,-2.98,-2.9798,-2.9556,0.0,0.0,0.0,0.0,0.0,0.0,0.0,0.0,0.0,0.0,0.0,0.0,0.0,0.0,0.0,0.0,0.0,0.0,0.0,0.0,0.0,0.0,0.0,0.0,0.0,0.0,0.0,0.0,-2.8594,-2.8419,-2.8129,0.0,0.0,0.0,0.0,0.0,0.0,0.0,0.0,0.0,0.0,-3.0539,-3.1379,-3.2193,0.0,0.0,-3.2571,-3.2104,-3.2104,-3.1061,-3.0306,-3.0569,-2.9348,0.0,0.0,0.0,0.0,0.0,0.0,0.0,0.0,0.0,0.0,0.0,0.0,0.0,0.0,0.0,0.0,0.0,0.0,0.0,0.0,0.0,0.0,0.0,0.0,0.0,0.0,0.0,0.0,0.0,0.0,0.0,0.0,0.0,0.0,0.0,0.0,0.0,0.0,0.0,0.0,0.0,0.0,0.0,0.0,0.0,0.0,0.0,0.0,0.0,0.0,0.0,0.0,-3.1087,-3.1244,-3.1054,-3.1037,-3.1191,-3.1014,-3.0767,-3.0453,-3.0398,-3.0283,0.0,0.0,0.0,0.0,0.0,0.0,0.0,0.0,0.0,0.0,0.0,0.0,0.0,0.0,0.0,0.0,0.0,0.0,0.0,0.0,0.0,0.0,0.0,0.0,0.0,0.0,0.0,0.0,-2.961,-2.9173,-2.7923,0.0,0.0,0.0,0.0,0.0,0.0,0.0,0.0,0.0,0.0,-3.1177,-3.199,-3.2922,-3.3561,-3.3765,-3.3064,-3.2481,-3.2481,-3.1409,-3.0598,-3.0598,0.0,0.0,0.0,0.0,0.0,0.0,0.0,0.0,0.0,0.0,0.0,0.0,0.0,0.0,0.0,0.0,0.0,0.0,0.0,0.0,0.0,0.0,0.0,0.0,0.0,0.0,0.0,0.0,0.0,0.0,-2.5833,0.0,0.0,0.0,0.0,0.0,0.0,0.0,0.0,0.0,0.0,0.0,0.0,0.0,0.0,0.0,0.0,0.0,0.0,0.0,0.0,0.0,0.0,-3.1244,-3.0936,-3.2006,-3.2231,-3.1541,-3.1541,-3.1744,-3.2055,-3.1015,-3.069,-3.1205,0.0,0.0,0.0,0.0,0.0,0.0,0.0,0.0,0.0,0.0,0.0,0.0,0.0,0.0,0.0,0.0,0.0,0.0,0.0,0.0,0.0,0.0,0.0,0.0,0.0,0.0,-3.1147,-3.0454,-2.9344,0.0,0.0,0.0,0.0,0.0,0.0,0.0,0.0,0.0,0.0,-3.1119,-3.199,-3.3242,-3.3474,-3.3736,-3.4283,-3.3293,-3.2481,-3.2481,-3.1409,-3.0598,0.0,0.0,0.0,0.0,0.0,0.0,0.0,0.0,0.0,0.0,0.0,0.0,0.0,0.0,0.0,0.0,0.0,0.0,0.0,0.0,0.0,0.0,0.0,0.0,0.0,0.0,0.0,-2.7406,-2.7321,0.0,0.0,0.0,0.0,0.0,0.0,0.0,0.0,0.0,0.0,0.0,-3.2688,-3.2128,0.0,0.0,0.0,0.0,0.0,0.0,0.0,0.0,0.0,0.0,0.0,0.0,-3.1983,-3.1799,-3.2145,-3.2254,-3.1992,-3.1964,-3.2073,-3.2191,-3.1775,-3.1667,-3.1857,0.0,0.0,0.0,0.0,0.0,0.0,0.0,0.0,0.0,0.0,0.0,0.0,0.0,0.0,0.0,0.0,0.0,0.0,0.0,0.0,0.0,0.0,0.0,0.0,0.0,-2.8994,0.0,0.0,0.0,0.0,0.0,0.0,0.0,0.0,0.0,0.0,0.0,-3.048,-3.1119,-3.2135,-3.2977,-3.3445,-3.3819,-3.4167,0.0,0.0,0.0,0.0,0.0,0.0,0.0,0.0,0.0,0.0,0.0,0.0,0.0,0.0,-2.7169,-2.6326,-2.5926,-2.5731,-2.5654,0.0,0.0,0.0,0.0,0.0,0.0,0.0,0.0,0.0,0.0,0.0,0.0,0.0,0.0,-2.8953,0.0,-2.8085,0.0,0.0,0.0,0.0,0.0,0.0,0.0,0.0,-3.2599,-3.3006,-3.3322,-3.2979,-3.3006,0.0,-3.2969,-3.2517,0.0,0.0,0.0,0.0,0.0,0.0,0.0,0.0,-3.2745,-3.2779,-3.2806,-3.2806,-3.2806,-3.2806,-3.2996,-3.3376,-3.3403,-3.3213,-3.2806,-3.2589,-3.2246,0.0,0.0,0.0,0.0,0.0,0.0,0.0,0.0,0.0,0.0,0.0,0.0,0.0,0.0,0.0,0.0,0.0,0.0,0.0,0.0,0.0,0.0,0.0,-2.9765,0.0,0.0,0.0,0.0,0.0,0.0,0.0,0.0,0.0,-2.9929,-3.051,-3.1235,-3.2077,-3.2919,-3.3649,-3.4114,0.0,0.0,0.0,0.0,0.0,0.0,0.0,-3.205,-3.33,-3.2919,-3.2481,-3.2481,-3.1119,-3.0016,-3.0016,0.0,0.0,-2.8042,-2.7781,-2.7811,-2.7959,-2.785,-2.7682,-2.7541,-2.7371,-2.7285,0.0,0.0,0.0,0.0,0.0,0.0,0.0,0.0,-3.126,-3.1232,0.0,-3.0045,0.0,0.0,0.0,0.0,0.0,-3.2544,0.0,0.0,-3.2372,-3.2327,-3.2381,-3.2409,-3.2915,-3.3935,-3.3962,-3.4233,-3.4612,-3.3254,0.0,0.0,0.0,0.0,0.0,0.0,-3.3554,-3.3908,-3.3908,-3.3908,-3.388,-3.388,-3.445,-3.5601,-3.5737,-3.5154,-3.4016,-3.3485,-3.2898,-3.2236,-3.1648,0.0,0.0,0.0,0.0,0.0,0.0,0.0,0.0,0.0,0.0,0.0,0.0,0.0,0.0,0.0,0.0,0.0,0.0,0.0,0.0,-3.0649,0.0,0.0,0.0,0.0,0.0,0.0,0.0,0.0,0.0,0.0,-3.0773,-3.1235,-3.2048,-3.3358,0.0,0.0,0.0,0.0,-3.5566,-3.6141,-3.5741,-3.5305,-3.5276,-3.423,-3.3445,-3.3532,0.0,0.0,-3.2568,-3.251,-3.2394,-3.2483,-3.2396,-3.1901,-3.0074,-2.9726,-2.99,-3.0451,-3.0447,-3.0382,-3.017,-2.9903,-2.9885,-3.3132,0.0,0.0,0.0,0.0,-3.1314,-3.1314,-3.1314,-3.1748,-3.1694,-3.1287,-3.0934,0.0,0.0,0.0,0.0,0.0,0.0,-3.3799,-3.4082,-3.4516,-3.4706,-3.4706,-3.4706,-3.4869,-3.5154,-3.5154,-3.5046,-3.4802,-3.4799,-3.412,-3.2979,0.0,0.0,0.0,0.0,-3.4446,-3.4531,-3.4531,-3.4341,-3.3908,-3.3908,-3.4477,-3.5683,-3.651,-3.6401,-3.5209,-3.5058,-3.4299,-3.2925,-3.23,0.0,0.0,0.0,0.0,0.0,0.0,0.0,0.0,0.0,0.0,0.0,0.0,0.0,0.0,0.0,0.0,0.0,0.0,0.0,-3.0317,-3.1078,-3.1415,0.0,0.0,0.0,0.0,0.0,0.0,0.0,0.0,0.0,-3.2706,-3.287,-3.3238,0.0,0.0,-3.4603,-3.588,-3.527,-3.4922,-3.5566,0.0,0.0,0.0,-3.3325,-3.3093,-3.3993,-3.3993,-3.3844,-3.3877,-3.3122,-3.2481,-3.2542,-3.2481,-3.2454,-3.2425,-3.199,-3.1787,-3.1901,-3.1835,-3.174,-3.1677,-3.1422,-3.1225,-3.5276,-3.4244,-3.3783,-3.3376,-3.305,-3.305,-3.2915,-3.2725,-3.3078,-3.3023,-3.2671,-3.2453,-3.2616,-3.3023,-3.2671,0.0,0.0,0.0,-3.4666,-3.4802,-3.5154,-3.5248,-3.4992,-3.5209,-3.5453,-3.571,-3.571,-3.5655,-3.5507,-3.59,-3.5669,-3.4965,0.0,0.0,-3.4775,-3.4802,-3.491,-3.5167,-3.491,-3.4721,-3.4612,-3.5073,-3.5561,-3.6062,-3.7214,-3.7377,-3.6469,-3.6198,-3.5465,-3.4163,-3.3539,-3.2861,0.0,0.0,0.0,0.0,0.0,0.0,0.0,0.0,0.0,0.0,0.0,-2.7515,-2.8356,0.0,0.0,0.0,-3.046,-3.0917,-3.0986,-3.1573,0.0,0.0,0.0,0.0,0.0,0.0,0.0,-3.2971,-3.3204,-3.3579,-3.4383,-3.4631,-3.4763,-3.4811,-3.5009,-3.5532,-3.6577,0.0,-3.5793,-3.6402,-3.5886,-3.5363,-3.5363,-3.4806,-3.4569,-3.5067,-3.512,-3.5154,-3.5154,-3.4516,-3.3964,-3.3732,-3.3645,-3.3703,-3.3819,-3.3529,-3.3267,-3.3267,-3.3202,-3.3103,-3.3038,-3.2811,-3.2611,-3.7512,-3.7404,-3.6266,-3.5845,-3.5845,-3.5845,-3.5507,-3.5019,-3.5046,-3.5019,-3.4883,-3.4395,-3.4721,-3.5588,-3.5655,0.0,-3.571,-3.5818,-3.5561,-3.5073,-3.5127,-3.4856,-3.4368,-3.491,-3.5425,-3.6008,-3.5981,-3.628,-3.6795,-3.6822,-3.6822,-3.6795,-3.628,-3.571,-3.5127,-3.5046,-3.529,-3.5927,-3.5371,-3.5371,-3.6008,-3.6997,-3.7296,-3.6849,-3.7853,-3.8109,-3.7594,-3.7066,-3.6442,-3.5818,-3.5221,-3.4407,-3.3305,0.0,0.0,0.0,0.0,0.0,0.0,0.0,0.0,0.0,0.0,0.0,0.0,0.0,0.0,0.0,-3.1354,0.0,-3.1787,-3.2215,0.0,0.0,0.0,-3.2931,-3.3282,-3.3439,-3.3773,-3.4399,0.0,0.0,-3.5766,0.0,-3.6412,-3.5659,-3.5996,-3.6577,-3.7273,-3.7244,-3.7411,-3.7883,-3.8028,-3.7999,-3.7593,-3.7215,-3.6722,-3.6257,-3.6286,-3.6228,-3.6228,-3.6199,-3.5996,-3.5508,-3.545,-3.5276,-3.4661,-3.4574,-3.4574,-3.4574,-3.4457,-3.4303,-3.4109,-3.3979,-3.3876,-3.7512,-3.7485,-3.7187,-3.7079,-3.7052,-3.7052,-3.697,-3.6889,-3.7323,-3.6997,-3.6198,-3.6482,-3.6049,-3.4992,-3.4992,-3.5263,-3.5764,-3.6645,-3.7214,-3.7582,-3.8016,-3.8152,-3.8043,-3.8179,-3.8315,-3.845,-3.845,-3.8532,-3.8667,-3.8667,-3.864,-3.864,-3.8505,-3.8152,-3.7555,-3.7079,-3.7133,-3.7772,-3.7594,-3.7853,-3.8423,-3.8288,-3.8342,-3.864,-3.8505,-3.8342,-3.8206,-3.8027,-3.7501,-3.6442,-3.5818,-3.5167,-3.4434,-3.343,0.0,0.0,0.0,0.0,0.0,0.0,0.0,0.0,0.0,-2.9767,-3.1458,0.0,-3.1477,0.0,-3.324,-3.3359,-3.3332,-3.3854,0.0,0.0,-3.5052,-3.5554,-3.5898,-3.6103,-3.6268,-3.6619,-3.6697,-3.6704,-3.661,-3.7057,-3.7229,-3.6903,-3.6548,-3.6722,-3.7767,-3.7128,-3.678,-3.7389,-3.7215,-3.678,-3.6867,-3.6635,-3.6577,-3.6344,-3.6315,-3.6286,-3.6315,-3.6286,-3.6228,-3.6112,-3.6083,-3.6025,-3.588,-3.5816,-3.5851,-3.5793,-3.5096,-3.4366,-3.4332,-3.4196,-3.4094,-3.8884,-3.9084,-3.9084,-3.9084,-3.9003,-3.7946,-3.7512,-3.7512,-3.7838,-3.7636,-3.7039,-3.7323,-3.6943,-3.5995,-3.5995,-3.6157,-3.6537,-3.7187,-3.7675,-3.8,-3.8369,-3.8505,-3.8532,-3.8776,-3.8912,-3.8912,-3.9156,-3.9319,-3.9319,-3.9563,-3.9699,-3.9699,-3.997,-3.9943,-3.959,-3.8749,-3.8477,-3.8803,-3.8803,-3.8966,-3.9292,-3.9237,-3.9373,-3.9671,-3.9373,-3.921,-3.921,-3.8939,-3.8369,-3.7473,-3.7094,-3.6659,-3.6022,-3.4896,-3.4147,0.0,0.0,0.0,0.0,0.0,0.0,0.0,0.0,0.0,0.0,0.0,-3.2888,0.0,-3.3908,-3.3908,-3.3908,-3.4365,-3.4817,-3.5059,-3.5674,-3.6215,-3.6734,-3.691,-3.7327,-3.8037,-3.8162,-3.8329,-3.8707,-3.8915,-3.8927,-3.8768,-3.8335,-3.8144,-3.8492,-3.7999,-3.7825,-3.8434,-3.8231,-3.7999,-3.7999,-3.7999,-3.7999,-3.797,-3.7999,-3.7999,-3.7999,-3.7999,-3.7912,-3.7651,-3.7593,-3.7476,-3.7215,-3.6925,-3.678,-3.6635,-3.5967,-3.5212,-3.4893,-3.4766,-3.4605,-4.073,-4.1245,-4.1245,-4.1218,-4.1055,-3.8868,-3.7946,-3.7946,-3.7946,-3.7919,-3.7838,-3.7675,-3.7594,-3.7621,-3.7594,-3.7594,-3.7621,-3.7756,-3.7838,-3.7838,-3.7919,-3.7946,-3.7973,-3.8488,-3.8749,-3.8732,-3.9346,-3.9644,-3.9671,-4.0241,-4.0513,-4.0567,-4.1082,-4.1354,-4.13,-4.0268,-3.9726,-3.9644,-3.9644,-3.9671,-3.9753,-4.0106,-4.035,-4.0404,-4.0268,-4.0214,-4.0296,-3.9726,-3.9183,-3.8667,-3.8505,-3.8163,-3.7621,-3.6578,-3.59,0.0,-3.438,0.0,0.0,0.0,0.0,0.0,0.0,0.0,0.0,-3.4287,-3.4341,-3.426,-3.4314,-3.4368,-3.4368,-3.4783,-3.5176,-3.5564,-3.5946,-3.6416,-3.7025,-3.7304,-3.7895,-3.9201,-3.9533,-4.0054,-4.0812,-4.0926,-4.0733,-4.0383,-4.0061,-3.977,-3.9538,-3.9334,-3.9392,-4.0031,-4.0089,-3.9799,-3.9857,-3.9973,-3.9944,-4.0002,-3.9915,-4.0089,-3.9944,-3.9886,-3.9741,-3.9276,-3.8957,-3.8754,-3.8289,-3.7738,-3.7418,-3.7418,-3.6954,-3.6344,-3.5712,-3.5508,-3.5265,-4.1734,-4.1842,-4.1842,-4.1842,-4.1761,-4.0838,-4.0431,-4.0431,-4.0458,-4.016,-3.9617,-3.8667,-3.819,-3.8217,-3.8217,-3.8217,-3.8315,-3.9264,-3.9699,-3.9699,-4.0214,-4.0413,-4.0458,-4.0521,-4.0575,-4.0648,-4.1218,-4.1489,-4.1517,-4.2086,-4.2358,-4.2385,-4.2493,-4.2548,-4.2548,0.0,0.0,0.0,-4.1489,-4.1734,-4.2141,-4.1381,-4.1164,-4.1598,-4.0703,0.0,-4.0892,-4.035,-3.997,-3.9834,-3.8939,0.0,0.0,0.0,0.0,0.0,0.0,0.0,0.0,0.0,0.0,0.0,-3.6388,-3.6266,-3.5453,-3.6239,-3.6618,-3.6171,-3.651,-3.6808,-3.6808,-3.7222,-3.7673,-3.8062,-3.8462,-3.9003,-3.9585,-3.9891,-4.0267,-4.0626,-4.0912,-4.101,-4.1118,-4.0926,-4.0763,-4.0627,-4.0265,-4.0292,-4.067,-4.0263,-4.0002,-4.0089,-4.0205,-4.0147,-4.0089,-4.0147,-4.0234,-4.0089,-4.0089,-4.0147,-4.0147,-3.9741,-3.9421,-3.9276,-3.8754,-3.8463,-3.8289,-3.8115,-3.8115,-3.8057,-3.7941,-3.7506,-3.6373,-3.6141,-3.6083,-4.2439,0.0,-4.2738,-4.2711,0.0,-4.2114,-4.1978,-4.1951,-4.1354,-4.0947,-4.0621,-4.0024,-3.9708,-3.9708,-3.9708,-3.9753,-3.978,-4.0377,-4.0648,-4.0648,-4.0974,-4.1137,-4.1137,-4.1408,-4.1544,-4.1598,-4.2168,-4.2439,-4.2439,-4.2738,-4.29,-4.29,-4.29,-4.29,-4.29,-4.29,-4.2738,-4.2439,-4.2439,-4.2575,-4.2846,-4.2304,-4.2141,-4.2385,0.0,0.0,0.0,0.0,0.0,0.0,0.0,0.0,0.0,0.0,0.0,-3.7935,-3.7392,-3.6889,-3.6618,-3.6904,-3.7066,-3.7066,-3.7636,-3.7582,-3.6645,-3.7133,-3.735,-3.7052,-3.7296,-3.7512,-3.7485,-3.7823,-3.8173,-3.8628,-3.9078,-3.955,-4.0039,-4.0393,-4.0812,-4.1302,-4.1594,-4.1799,-4.2157,-4.203,-4.1834,-4.1596,-4.1397,-4.1284,-4.1494,-4.1018,-4.0699,-4.1018,-4.1076,-4.1076,-4.1076,-4.1105,-4.1076,-4.1105,-4.1076,-4.1076,-4.1105,-4.0844,-4.0641,-4.0612,-4.035,-4.0118,-4.0089,-3.9886,-3.9538,-3.9189,-3.8899,-3.8405,-3.7447,-3.7012,-3.6693,-4.3036,-4.309,-4.3628,-4.3497,-4.3036,-4.2928,-4.29,-4.2819,0.0,0.0,0.0,-4.1164,-4.1137,-4.1137,-4.1137,-4.1137,-4.1137,-4.1137,-4.1137,-4.1137,-4.1137,-4.1137,-4.1137,-4.1625,-4.1896,-4.2032,-4.2602,-4.2928,-4.3036,-4.3145,-4.3226,-4.3226,-4.3199,-4.3199,-4.3226,-4.3199,-4.3199,-4.3199,-4.2982,-4.29,-4.29,-4.29,-4.29,-4.29,-4.2412,-4.2168,-4.2141,-4.1598,-4.1272,-4.1272,-4.1164,-4.1137,-4.1082,-4.016,-3.9617,-3.959,-3.8678,-3.8109,-3.8136,-3.8109,-3.8136,-3.8136,-3.857,-3.8559,-3.7729,-3.7756,-3.7811,-3.7811,-3.7811,-3.7811,-3.7811,-3.8039,-3.8308,-3.8755,-3.917,-3.965,-4.0067,-4.0466,-4.1046,-4.1655,-4.2011,-4.2387,-4.3011,-4.2961,-4.286,-4.2729,-4.2397,-4.2339,-4.2075,-4.1599,-4.1424,-4.186,-4.1918,-4.2034,-4.2063,-4.2005,-4.2092,-4.1976,-4.2034,-4.2092,-4.2092,-4.2005,-4.1918,-4.1686,-4.1831,-4.1599,-4.1628,-4.1076,-4.0757,-4.0205,-3.9712,-3.9189,-3.8667,-3.8144,-3.7622,-4.371,-4.371,-4.3791,-4.3764,-4.3655,-4.3118,-4.29,-4.2846,-4.2168,-4.1896,-4.1842,-4.1354,-4.1137,-4.1137,-4.1137,-4.1137,-4.1137,-4.1137,-4.1137,0.0,-4.1137,-4.1137,-4.1137,-4.1144,-4.1517,-4.2005,-4.2602,-4.3145,-4.366,-4.4176,-4.4447,-4.442,-4.4447,-4.4447,-4.4447,-4.4447,-4.4447,-4.442,-4.3416,-4.29,-4.29,-4.29,-4.29,-4.29,-4.2819,-4.2765,-4.2765,-4.2195,-4.1869,-4.1869,-4.1408,-4.1137,-4.111,-4.0974,-4.0865,-4.0865,-4.0703,-4.0621,-4.0594,-4.0575,-4.0575,-4.0621,-4.0703,-4.0051,-3.8477,-3.8776,-3.9047,-3.9047,-3.9047,-3.9047,-3.9074,-3.9295,-3.9601,-3.9979,-4.0307,-4.0732,-4.129,-4.1649,-4.1913,-4.2275,-4.2489,-4.264,-4.2898,-4.2858,-4.2847,-4.2718,-4.272,-4.2398,-4.232,-4.2034,-4.1976,-4.2063,-4.2092,-4.2092,-4.215,-4.2121,-4.2208,-4.2092,-4.2179,-4.2237,-4.2266,-4.1889,-4.1599,-4.1337,-4.1134,-4.0757,-4.0641,-4.0321,-4.0437,-4.035,-4.0205,-4.0031,-3.9857,-3.9712,-3.9305,-4.4746,-4.48,-4.5098,-4.5285,-4.518,-4.461,-4.4366,-4.4284,-4.3742,-4.328,-4.2982,-4.3036,-4.3063,-4.3063,-4.3063,-4.3063,-4.3063,-4.3063,-4.3063,-4.3063,-4.3063,-4.3063,-4.3063,-4.3063,-4.3226,-4.3497,-4.3742,-4.4013,-4.4284,-4.4583,-4.4719,-4.4719,-4.4719,-4.4719,-4.4719,-4.4719,-4.4719,-4.4691,-4.3823,-4.3362,-4.3362,-4.3063,-4.29,-4.29,-4.29,-4.29,-4.29,-4.2629,-4.2466,-4.2493,-4.2222,-4.2086,-4.2059,-4.1788,-4.1598,-4.1598,-4.13,-4.1137,-4.1137,-4.1137,-4.1137,-4.1137,-4.1137,-4.0738,-3.9925,-4.0133,-4.0268,-4.0296,-4.0296,-4.0296,-4.0296,-4.0386,-4.0613,-4.0873,-4.1257,-4.1655,-4.2092,-4.2611,-4.2952,-4.3164,-4.3416,-4.3625,-4.3749,-4.372,-4.3708,-4.3583,-4.3374,-4.3351,-4.3557,-4.3602,-4.3224,-4.2353,-4.2382,-4.2557,-4.2615,-4.2905,-4.3079,-4.3137,-4.3108,-4.3108,-4.3108,-4.2789,-4.2673,-4.2644,-4.2353,-4.2237,-4.2179,-4.2208,-4.2063,-4.1715,-4.1657,-4.157,-4.1308,-4.1192,-4.0583,-4.5397,-4.5424,-4.5885,-4.6075,-4.6048,-4.5587,-4.5397,-4.5343,-4.5017,-4.4637,-4.4257,-4.4556,-4.4719,-4.4719,-4.4719,-4.4691,-4.4719,-4.4719,-4.4691,-4.4719,-4.4719,-4.4719,-4.4719,-4.4719,-4.4773,-4.4881,-4.4908,-4.4963,-4.5071,-4.5098,-4.5098,-4.5098,-4.5098,-4.5098,-4.5098,-4.5098,-4.5098,-4.5071,-4.4501,-4.4122,-4.3986,-4.3525,-4.328,-4.3308,-4.3308,-4.3226,-4.309,-4.309,-4.3009,-4.29,-4.29,-4.29,-4.2873,-4.2466,-4.2195,-4.2168,-4.1788,-4.1517,-4.1517,-4.147,-4.1517,-4.1517,-4.1517,-4.1517,-4.1517,-4.1517,-4.1381,-4.1164,-4.1082,-4.1082,-4.1055,-4.1082,-4.1202,-4.1406,-4.1773,-4.2081,-4.2469,-4.3032,-4.3472,-4.3777,-4.3993,-4.4179,-4.4422,-4.4477,-4.4464,-4.444,-4.4429,-4.4618,-4.4951,-4.5022,-4.4268,-4.3372,-4.3168,-4.3427,-4.3427,-4.366,-4.3892,-4.4008,-4.395,-4.3892,-4.3892,-4.395,-4.3907,-4.3791,-4.3849,-4.3704,-4.3849,-4.3892,-4.3588,-4.3124,-4.2923,-4.2865,-4.2405,-4.2116,-4.1707,-4.4827,-4.48,-4.4936,-4.4854,-4.4936,-4.4854,-4.4827,-4.4881,-4.5288,-4.5478,-4.5343,-4.4908,-4.4746,-4.4719,-4.4746,-4.4773,-4.4773,-4.4719,-4.4746,-4.4746,-4.4719,-4.4719,-4.4773,-4.4746,-4.499,-4.5451,-4.5505,-4.5777,-4.6236,-4.6238,-4.6345,-4.6319,-4.6319,-4.6265,-4.6345,-4.6265,-4.6292,-4.6292,-4.5723,-4.5153,-4.4664,-4.4556,-4.4556,-4.4556,-4.4529,-4.4284,-4.3715,-4.3737,-4.3492,-4.2955,-4.2928,-4.29,-4.29,-4.2819,-4.2792,-4.2792,-4.2738,-4.2738,-4.2711,-4.2738,-4.2683,-4.2738,-4.2683,-4.2656,-4.2683,-4.2683,-4.2249,-4.1462,-4.1164,-4.1218,-4.1137,-4.1191,-4.1311,-4.1524,-4.1608,-4.17,-4.2429,-4.2542,-4.2855,-4.3559,-4.392,-4.3791,-4.4313,-4.4486,-4.4689,-4.523,-4.543,-4.557,-4.552,-4.5367,-4.523,-4.4874,-4.48,-4.469,-4.4632,-4.4269,-4.4255,-4.4139,-4.4037,-4.411,-4.4124,-4.4066,-4.3965,-4.405,-4.3979,-4.4052,-4.3907,-4.3806,-4.3979,-4.3834,-4.3661,-4.3502,-4.314,-4.2782,-4.2252,-4.575,-4.575,-4.575,-4.575,-4.5723,-4.5397,-4.5234,-4.5261,-4.5478,-4.5587,-4.5614,-4.5695,-4.575,-4.575,-4.575,-4.575,-4.575,-4.575,-4.575,-4.575,-4.575,-4.575,-4.575,-4.575,-4.5885,-4.6102,-4.6102,-4.6238,-4.648,-4.6535,-4.6535,-4.6535,-4.6535,-4.6535,-4.6535,-4.6535,-4.6535,-4.6455,-4.6238,-4.5994,-4.5695,-4.5071,-4.4719,-4.4719,-4.4719,-4.461,-4.4366,-4.4312,-4.4203,-4.3959,-4.3606,-4.3416,-4.3416,-4.309,-4.29,-4.29,-4.29,-4.29,-4.29,-4.29,-4.29,-4.29,-4.29,-4.29,-4.29,-4.29,-4.2656,-4.2276,-4.2168,-4.2168,-4.2141,-4.2141,-4.2215,-4.2283,-4.2425,-4.2771,-4.3421,-4.3751,-4.4266,-4.4977,-4.5295,-4.5452,-4.574,-4.5849,-4.6056,-4.6408,-4.6529,-4.6401,-4.6365,-4.6271,-4.6252,-4.6195,-4.5924,-4.5643,-4.5499,-4.5413,-4.5228,-4.5171,-4.4895,-4.4637,-4.4624,-4.4637,-4.4592,-4.4473,-4.4506,-4.4506,-4.4559,-4.4547,-4.4592,-4.44,-4.4457,-4.4412,-4.4186,-4.397,-4.3702,-4.6944,-4.6944,-4.6944,-4.6944,-4.6916,-4.6509,-4.6211,-4.6075,-4.6075,-4.5994,-4.5885,-4.6292,-4.6535,-4.6535,-4.6535,-4.6535,-4.6535,-4.6535,-4.6535,-4.6535,-4.6535,-4.6535,-4.6535,-4.6535,-4.6535,-4.6535,-4.6508,-4.6535,-4.6535,-4.6535,-4.6535,-4.6535,-4.6535,-4.6535,-4.6535,-4.6535,-4.6535,-4.6535,-4.6535,-4.6535,-4.6347,-4.5641,-4.518,-4.518,-4.518,-4.5126,-4.4936,-4.4963,-4.4854,-4.4691,-4.4257,-4.404,-4.4063,-4.3633,-4.3308,-4.3118,-4.2955,-4.29,-4.29,-4.29,-4.29,-4.29,-4.29,-4.29,-4.29,-4.29,-4.29,-4.2873,-4.29,-4.2846,-4.29,-4.29,-4.29,-4.2922,-4.3094,-4.343,-4.3855,-4.4284,-4.4677,-4.5468,-4.5428,-4.6034,-4.6348,-4.6462,-4.6661,-4.6813,-4.6824,-4.6832,-4.6851,-4.6775,-4.6631,-4.6736,-4.6338,-4.6045,-4.6016,-4.5709,-4.5881,-4.5767,-4.5281,-4.5024,-4.5018,-4.5018,-4.4833,-4.4429,-4.4776,-4.4805,-4.4496,-4.4627,-4.4805,-4.4787,-4.4712,-4.4591,-4.4275,-4.4387,-4.4163,-4.811,-4.8083,-4.8083,-4.8056,-4.8083,-4.8002,-4.7758,-4.7268,-4.7295,-4.7024,-4.6509,-4.6589,-4.6509,-4.6616,-4.6591,-4.6482,-4.6535,-4.6535,-4.6562,-4.6589,-4.6562,-4.6535,-4.6535,-4.6535,-4.6509,-4.6645,-4.6645,-4.6643,-4.6616,-4.6589,-4.6535,-4.6509,-4.6643,-4.6589,-4.6564,-4.6671,-4.6509,-4.6618,-4.6671,-4.6589,-4.6589,-4.6508,-4.6401,-4.6399,-4.6399,-4.6048,-4.5641,-4.556,-4.5316,-4.4746,-4.4691,-4.4664,-4.4664,-4.461,-4.4284,-4.3818,-4.3226,-4.2928,-4.2982,-4.3009,-4.2982,-4.2955,-4.2982,-4.2928,-4.2982,-4.2928,-4.29,-4.29,-4.29,-4.29,-4.29,-4.29,-4.29,-4.29,-4.2949,-4.3073,-4.3369,-4.3554,-4.3629,-4.4129,-4.4439,-4.4788,-4.5062,-4.5627,-4.613,-4.6253,-4.6299,-4.6341,-4.6458,-4.6195,-4.5972,-4.5867,-4.5811,-4.5901,-4.596,-4.559,-4.5239,-4.5107,-4.5052,-4.4954,-4.4862,-4.4723,-4.4472,-4.4256,-4.4256,-4.4209,-4.4162,-4.4115,-4.4162,-4.4115,-4.3899,-4.3757,-4.3515,-4.3444,-4.3156,-4.7893,-4.8192,-4.8192,-4.8192,-4.8192,-4.8192,-4.8056,-4.7948,-4.792,-4.7812,-4.7649,-4.7595,-4.7622,-4.7595,-4.7595,-4.7188,-4.6562,-4.6535,-4.6725,-4.7051,-4.7078,-4.7242,-4.7595,-4.7622,-4.7595,-4.7595,-4.7622,-4.7595,-4.7595,-4.7595,-4.7595,-4.7622,-4.7595,-4.7622,-4.7595,-4.7595,-4.7595,-4.7595,-4.7595,-4.7622,-4.7568,-4.7595,-4.7432,-4.7105,-4.6672,-4.6374,-4.6157,-4.6157,-4.6048,-4.5831,-4.5478,-4.5261,-4.5234,-4.4908,-4.461,-4.4393,-4.4176,-4.404,-4.4067,-4.4067,-4.404,-4.4013,-4.366,-4.3519,-4.3389,-4.3118,-4.29,-4.29,-4.29,-4.29,-4.29,-4.29,-4.29,-4.29,-4.29,-4.3085,-4.3481,-4.3639,-4.3873,-4.4545,-4.4851,-4.5094,-4.5272,-4.5629,-4.5769,-4.5942,-4.6013,-4.5832,-4.5455,-4.5302,-4.5198,-4.4608,-4.4449,-4.4553,-4.4782,-4.4849,-4.4769,-4.4609,-4.4526,-4.4227,-4.4096,-4.4065,-4.3807,-4.3822,-4.3739,-4.3671,-4.3657,-4.3629,-4.3623,-4.3547,-4.3327,-4.306,-4.2406,-4.2466,-4.1998,-4.8463,-4.8734,-4.8761,-4.8761,-4.8761,-4.8761,-4.8652,-4.849,-4.8463,-4.8354,-4.8219,-4.8192,-4.8192,-4.8192,-4.8192,-4.7839,-4.7079,-4.7052,-4.7269,-4.7622,-4.7649,-4.7866,-4.811,-4.8192,-4.8192,-4.8164,-4.8192,-4.8192,-4.8192,-4.8192,-4.8192,-4.8164,-4.8192,-4.8192,-4.8192,-4.8192,-4.8192,-4.8192,-4.8192,-4.8164,-4.8192,-4.8192,-4.8056,-4.7649,-4.7242,-4.6835,-4.6562,-4.6535,-4.6535,-4.648,-4.6075,-4.5885,-4.5831,-4.5316,-4.499,-4.499,-4.48,-4.4719,-4.4719,-4.4719,-4.4691,-4.4691,-4.4339,-4.4067,-4.404,-4.3715,-4.3525,-4.347,-4.347,-4.347,-4.3416,-4.3308,-4.309,-4.2955,-4.29,-4.3036,-4.3416,-4.3519,-4.3732,-4.4146,-4.4474,-4.4802,-4.5031,-4.4927,-4.4948,-4.515,-4.5129,-4.4789,-4.4456,-4.4491,-4.4519,-4.3836,-4.3959,-4.4065,-4.4189,-4.4293,-4.4562,-4.4502,-4.4413,-4.4007,-4.367,-4.3579,-4.346,-4.3416,-4.3345,-4.3246,-4.3148,-4.3148,-4.3121,-4.3094,-4.3062,-4.2878,-4.2221,-4.1614,-4.1096,-4.9956,-4.9901,-4.9983,-4.9901,-4.9847,-4.9847,-4.963,-4.9169,-4.9114,-4.8815,-4.8463,-4.83,-4.8381,-4.83,-4.8408,-4.8246,-4.8219,-4.8192,-4.8164,-4.8192,-4.8192,-4.8219,-4.8354,-4.8381,-4.8381,-4.8381,-4.8273,-4.8273,-4.8354,-4.8381,-4.8354,-4.8273,-4.8354,-4.8408,-4.8246,-4.8381,-4.83,-4.8354,-4.8381,-4.83,-4.8219,-4.8327,-4.8327,-4.8219,-4.8137,-4.7676,-4.6671,-4.6616,-4.6616,-4.6589,-4.6455,-4.6508,-4.6399,-4.5885,-4.5587,-4.5533,-4.5098,-4.48,-4.48,-4.4854,-4.4908,-4.4881,-4.4773,-4.4719,-4.4691,-4.4583,-4.4529,-4.4501,-4.4529,-4.4583,-4.4474,-4.4094,-4.3552,-4.3009,-4.2955,-4.2928,-4.2955,-4.2928,-4.2928,-4.3106,-4.3354,-4.3362,-4.341,-4.3753,-4.396,-4.4015,-4.3918,-4.3822,-4.387,-4.4129,-4.4043,-4.39,-4.399,-4.4111,-4.3972,-4.3877,-4.4184,-4.4411,-4.4428,-4.4184,-4.3976,-4.3825,-4.3621,-4.3546,-4.3419,-4.3267,-4.3267,-4.3267,-4.3296,-4.3269,-4.308,-4.2605,-4.1822,-4.1067,-4.0382,-5.001,-5.001,-5.001,-5.001,-5.001,-5.001,-4.9874,-4.9766,-4.9739,-4.963,-4.9467,-4.9467,-4.9467,-4.9467,-4.9467,-4.944,-4.9467,-4.944,-4.925,-4.8842,-4.8788,-4.9005,-4.9359,-4.944,-4.944,-4.9467,-4.9467,-4.944,-4.9413,-4.944,-4.944,-4.9467,-4.944,-4.9467,-4.9413,-4.944,-4.9467,-4.9467,-4.9467,-4.9467,-4.9467,-4.944,-4.9277,-4.8842,-4.8815,-4.8408,-4.7677,-4.7296,-4.716,-4.7132,-4.6699,-4.6535,-4.648,-4.6319,-4.6211,-4.6184,-4.6048,-4.5912,-4.5912,-4.5912,-4.5885,-4.5831,-4.556,-4.5343,-4.5261,-4.4963,-4.4773,-4.4746,-4.4719,-4.4719,-4.4664,-4.4556,-4.4176,-4.3601,-4.3145,-4.2982,-4.3063,-4.2982,-4.29,-4.29,-4.2997,-4.3209,-4.3536,-4.3715,-4.3928,-4.4256,-4.4239,-4.4162,-4.4045,-4.4126,-4.4091,-4.3865,-4.4082,-4.4246,-4.4096,-4.4045,-4.4177,-4.4333,-4.4356,-4.4327,-4.4143,-4.3962,-4.3805,-4.3623,-4.3493,-4.3441,-4.3362,-4.3389,-4.3415,-4.3206,-4.2866,-4.2162,-4.1255,-4.0582,-4.006,-5.001,-5.001,-5.001,-5.001,-5.001,-5.001,-5.001,-5.001,-5.001,-5.001,-4.9983,-4.9983,-5.001,-5.001,-5.001,-5.001,-5.001,-5.001,-4.982,-4.9494,-4.944,-4.9684,-4.9983,-5.001,-5.001,-5.001,-5.001,-5.001,-5.001,-5.001,-5.001,-4.9983,-5.001,-4.9983,-5.001,-5.001,-5.001,-5.001,-4.9983,-5.001,-5.001,-5.001,-4.982,-4.9521,-4.9467,-4.9277,-4.8842,-4.8327,-4.7893,-4.7649,-4.7134,-4.6727,-4.6509,-4.6535,-4.6535,-4.6535,-4.6535,-4.6508,-4.6535,-4.6453,-4.6535,-4.6453,-4.6182,-4.594,-4.5858,-4.5533,-4.537,-4.537,-4.5397,-4.537,-4.537,-4.537,-4.518,-4.4827,-4.4312,-4.3932,-4.3904,-4.3877,-4.3796,-4.3742,-4.3606,-4.3769,-4.3986,-4.4122,-4.4257,-4.4637,-4.4691,-4.4513,-4.4364,-4.4396,-4.4271,-4.4173,-4.4229,-4.4309,-4.4254,-4.4224,-4.4221,-4.4278,-4.4281,-4.4282,-4.415,-4.4097,-4.3965,-4.3804,-4.3617,-4.3669,-4.3669,-4.3591,-4.3538,-4.3119,-4.2859,-4.2291,-4.1673,-4.0849,-4.0282,-5.001,-5.001,-5.001,-5.001,-5.001,-5.001,-5.001,-5.001,-5.001,-5.001,-5.001,-5.001,-5.001,-5.001,-5.001,-5.001,-5.001,-5.001,-4.9983,-4.9928,-4.9928,-4.9983,-5.001,-5.001,-5.001,-5.001,-5.001,-5.001,-5.001,-5.001,-5.001,-5.001,-5.001,-5.001,-5.001,-5.001,-5.001,-5.001,-5.001,-5.001,-5.001,-5.001,-4.9983,-4.9956,-4.9928,-4.9901,-4.9766,-4.9331,-4.8816,-4.8219,-4.7676,-4.7188,-4.6727,-4.6616,-4.6643,-4.6643,-4.6562,-4.6535,-4.6535,-4.6535,-4.6535,-4.6508,-4.648,-4.6535,-4.6426,-4.6345,-4.629,-4.6317,-4.6345,-4.6399,-4.6347,-4.6319,-4.6399,-4.6482,-4.5831,-4.5505,-4.5587,-4.5533,-4.5234,-4.4881,-4.48,-4.48,-4.4827,-4.4827,-4.48,-4.4936,-4.4912,-4.4762,-4.4611,-4.4751,-4.4782,-4.4653,-4.4439,-4.4383,-4.4379,-4.4242,-4.4186,-4.4106,-4.4136,-4.4139,-4.4113,-4.4084,-4.4002,-4.3891,-4.3778,-4.3826,-4.3826,-4.3756,-4.365,-4.3464,-4.3128,-4.2769,-4.2153,-4.1307,-4.067,-5.001,-5.001,-5.001,-5.001,-5.001,-5.001,-5.001,-5.001,-5.001,-5.001,-5.001,-5.001,-5.001,-5.001,-5.001,-5.001,-5.001,-5.001,-5.001,-5.001,-5.001,-5.001,-5.001,-5.001,-5.001,-5.001,-4.9956,-5.001,-5.001,-4.9928,-4.9956,-5.001,-4.9956,-4.9983,-5.001,-5.001,-5.001,-5.001,-5.001,-5.001,-5.001,-5.001,-5.001,-5.001,-5.001,-5.001,-5.001,-4.9874,-4.925,-4.8273,-4.8056,-4.7975,-4.7703,-4.7351,-4.7187,-4.7132,-4.6779,-4.6535,-4.6562,-4.6535,-4.6535,-4.6535,-4.6535,-4.6535,-4.6535,-4.6535,-4.6535,-4.6535,-4.6535,-4.6535,-4.6535,-4.6562,-4.6835,-4.7486,-4.6916,-4.6347,-4.6319,-4.629,-4.6209,-4.5994,-4.5641,-4.5668,-4.5831,-4.5695,-4.556,-4.5858,-4.573,-4.5442,-4.5179,-4.5022,-4.505,-4.4783,-4.4617,-4.4507,-4.4396,-4.4287,-4.4123,-4.4013,-4.3987,-4.3936,-4.3936,-4.3936,-4.3907,-4.3903,-4.3742,-4.3683,-4.3819,-4.3852,-4.3764,-4.3598,-4.3339,-4.2903,-4.2486,-4.1821,-4.1266,-5.001,-5.001,-5.001,-5.001,-5.001,-5.001,-5.001,-5.001,-5.001,-5.001,-5.001,-5.001,-5.001,-5.001,-5.001,-5.001,-5.001,-5.001,-5.001,-5.001,-5.001,-5.001,-5.001,-5.001,-5.001,-4.9956,-4.9739,-4.963,-4.9549,-4.9413,-4.9386,-4.9576,-4.963,-4.9739,-5.001,-5.001,-5.001,-5.001,-5.001,-5.001,-5.001,-5.001,-5.001,-5.001,-5.001,-5.001,-5.001,-5.001,-4.9549,-4.8761,-4.8544,-4.8463,-4.8164,-4.7948,-4.7731,-4.7703,-4.7188,-4.6915,-4.6834,-4.6698,-4.6535,-4.6535,-4.6535,-4.6535,-4.6535,-4.6535,-4.6535,-4.6535,-4.6535,-4.6535,-4.6562,-4.6725,-4.7269,-4.7948,-4.7839,-4.7568,-4.7568,-4.7622,-4.7459,-4.7242,-4.6944,-4.6781,-4.7161,-4.6672,-4.6564,-4.6645,-4.6377,-4.6007,-4.5608,-4.5448,-4.518,-4.491,-4.4585,-4.4422,-4.4203,-4.4039,-4.3819,-4.3653,-4.3598,-4.3598,-4.3653,-4.3679,-4.3568,-4.3568,-4.3568,-4.3568,-4.3623,-4.3598,-4.3432,-4.324,-4.324,-4.3108,-4.2695,-4.2338,-4.1835,-5.001,-5.001,-5.001,-5.001,-5.001,-5.001,-5.001,-5.001,-5.001,-5.001,-5.001,-5.001,-5.001,-5.001,-5.001,-5.001,-5.001,-5.001,-5.001,-5.001,-5.001,-5.001,-5.001,-4.9847,-4.982,-4.9739,-4.9304,-4.9005,-4.8952,-4.849,-4.8544,-4.8923,-4.9059,-4.9413,-4.9766,-4.9928,-5.001,-5.001,-5.001,-5.001,-5.001,-5.001,-5.001,-5.001,-5.001,-5.001,-5.001,-4.9983,-4.9739,-4.925,-4.9223,-4.8923,-4.849,-4.8381,-4.8273,-4.8192,-4.7812,-4.7513,-4.7458,-4.7052,-4.6672,-4.6725,-4.6671,-4.6562,-4.6509,-4.6535,-4.6535,-4.6535,-4.6535,-4.6535,-4.6537,-4.6969,-4.7378,-4.792,-4.8463,-4.8843,-4.9005,-4.9142,-4.895,-4.8435,-4.83,-4.8164,-4.8029,-4.7731,-4.7268,-4.6752,-4.6565,-4.6193,-4.5795,-4.5529,-4.5207,-4.4776,-4.4531,-4.4258,-4.3984,-4.3708,-4.3487,-4.3265,-4.3209,-4.3209,-4.3321,-4.3265,-4.3154,-4.3098,-4.3209,-4.3209,-4.3154,-4.3098,-4.3098,-4.3098,-4.3098,-4.3098,-4.2911,-4.2665,-4.2238,-5.001,-5.001,-5.001,-5.001,-5.001,-5.001,-5.001,-5.001,-5.001,-5.001,-5.001,-5.001,-5.001,-5.001,-5.001,-5.001,-5.001,-5.001,-5.001,-5.001,-5.001,-5.001,-4.9874,-4.9521,-4.9304,-4.9196,-4.8679,-4.8381,-4.83,-4.8219,-4.8246,-4.8381,-4.8789,-4.9196,-4.9359,-4.9766,-5.001,-5.001,-5.001,-5.001,-5.001,-5.001,-5.001,-5.001,-5.001,-5.001,-5.001,-5.001,-4.9928,-4.9847,-4.9793,-4.9657,-4.9467,-4.9142,-4.8896,-4.8761,-4.8327,-4.8056,-4.8002,-4.7866,-4.7649,-4.7215,-4.7214,-4.7024,-4.6562,-4.6509,-4.6562,-4.6535,-4.6535,-4.6535,-4.6562,-4.6616,-4.7024,-4.7459,-4.7731,-4.8002,-4.8463,-4.9196,-4.9494,-4.9359,-4.8679,-4.8192,-4.8137,-4.7323,-4.6916,-4.6779,-4.6485,-4.6219,-4.5928,-4.5635,-4.5207,-4.4776,-4.4613,-4.4367,-4.3929,-4.3653,-4.3321,-4.3098,-4.3042,-4.2986,-4.3098,-4.3098,-4.3042,-4.2986,-4.3042,-4.2986,-4.2986,-4.2986,-4.3042,-4.3042,-4.2986,-4.2986,-4.2936,-4.276,-4.269,-5.001,-5.001,-5.001,-5.001,-5.001,-5.001,-5.001,-5.001,-5.001,-5.001,-5.001,-5.001,-5.001,-5.001,-5.001,-5.001,-5.001,-5.001,-5.001,-4.9928,-4.9766,-4.9603,-4.9359,-4.8843,-4.849,-4.8843,-4.8219,-4.7866,-4.7785,-4.7595,-4.7513,-4.7812,-4.8165,-4.8626,-4.906,-4.9467,-4.9739,-4.9956,-5.001,-5.001,-5.001,-5.001,-5.001,-5.001,-5.001,-5.001,-5.001,-5.001,-5.001,-5.001,-5.001,-5.001,-4.9983,-4.9711,-4.9576,-4.944,-4.8923,-4.8625,-4.8571,-4.8327,-4.8029,-4.7812,-4.7785,-4.7432,-4.7052,-4.6889,-4.6779,-4.6616,-4.6535,-4.6535,-4.6535,-4.6535,-4.6752,-4.6942,-4.7268,-4.7486,-4.7893,-4.8626,-4.9169,-4.9032,-4.849,-4.8246,-4.7839,-4.7188,-4.6998,-4.7024,-4.6591,-4.6245,-4.5822,-4.5529,-4.5207,-4.4884,-4.4776,-4.4476,-4.401,-4.3623,-4.3265,-4.3098,-4.3042,-4.2986,-4.3042,-4.3042,-4.2986,-4.2986,-4.2986,-4.2986,-4.2986,-4.2986,-4.2986,-4.2986,-4.2986,-4.2986,-4.2961,-4.2861,-4.2811,-5.001,-5.001,-5.001,-5.001,-5.001,-5.001,-5.001,-5.001,-5.001,-5.001,-5.001,-5.001,-4.9956,-4.9874,-4.982,-4.9874,-4.9847,-4.9847,-4.982,-4.9956,-4.963,-4.9386,-4.9033,-4.8382,-4.8029,-4.868,-4.7758,-4.7269,-4.7079,-4.6861,-4.6889,-4.7241,-4.7431,-4.8002,-4.8789,-4.9142,-4.9467,-4.9928,-5.001,-5.001,-5.001,-5.001,-5.001,-5.001,-5.001,-5.001,-5.001,-5.001,-5.001,-5.001,-5.001,-5.001,-5.001,-5.001,-5.001,-4.9983,-4.9494,-4.9304,-4.9196,-4.8842,-4.8544,-4.8381,-4.8327,-4.8083,-4.7676,-4.7459,-4.7268,-4.6888,-4.6591,-4.6535,-4.6535,-4.6535,-4.6535,-4.6643,-4.7024,-4.7241,-4.7377,-4.7703,-4.7975,-4.8273,-4.8165,-4.7948,-4.7785,-4.7323,-4.7296,-4.7161,-4.6674,-4.6245,-4.5875,-4.5449,-4.5101,-4.4702,-4.4462,-4.4113,-4.365,-4.3436,-4.3103,-4.2997,-4.2886,-4.2886,-4.2911,-4.2986,-4.2986,-4.2986,-4.2986,-4.2986,-4.2986,-4.2986,-4.2986,-4.2986,-4.2986,-4.2986,-4.2986,-4.2986,-4.2886,-5.001,-5.001,-5.001,-5.001,-5.001,-5.001,-5.001,-5.001,-4.9983,-5.001,-4.9983,-4.9983,-4.9657,-4.9386,-4.9277,-4.9277,-4.9413,-4.9494,-4.963,-4.9928,-4.9766,-4.9549,-4.9006,-4.8382,-4.8002,-4.7486,-4.7079,-4.6862,-4.6672,-4.6537,-4.6616,-4.6727,-4.7132,-4.7731,-4.8327,-4.8815,-4.9331,-4.982,-4.9956,-5.001,-5.001,-5.001,-5.001,-5.001,-5.001,-5.001,-5.001,-5.001,-5.001,-5.001,-5.001,-5.001,-5.001,-5.001,-5.001,-4.9956,-4.9874,-4.9766,-4.9711,-4.9711,-4.9413,-4.9142,-4.8923,-4.8652,-4.8273,-4.8029,-4.7812,-4.7323,-4.6835,-4.6537,-4.6535,-4.6616,-4.6535,-4.6537,-4.6564,-4.6672,-4.6752,-4.6862,-4.7269,-4.7812,-4.7703,-4.7486,-4.7323,-4.7161,-4.6971,-4.6782,-4.6487,-4.6086,-4.5768,-4.5315,-4.4942,-4.4518,-4.4043,-4.3643,-4.3185,-4.3077,-4.2891,-4.2766,-4.2685,-4.2685,-4.2735,-4.2936,-4.2961,-4.2685,-4.2811,-4.2986,-4.2986,-4.2986,-4.2886,-4.2891,-4.2886,-4.2936,-4.2735,-4.2534,-4.271,-5.001,-5.001,-5.001,-5.001,-5.001,-5.001,-5.001,-4.9956,-4.9684,-4.9549,-4.944,-4.925,-4.8896,-4.8734,-4.8978,-4.9277,-4.9494,-4.9603,-4.9766,-4.9956,-4.9684,-4.9467,-4.9005,-4.8463,-4.8138,-4.7812,-4.7513,-4.6998,-4.6589,-4.6535,-4.6562,-4.6589,-4.6834,-4.7188,-4.7785,-4.8355,-4.8979,-4.944,-4.9793,-4.9983,-4.9983,-4.9983,-4.9983,-5.001,-5.001,-5.001,-5.001,-5.001,-5.001,-5.001,-5.001,-5.001,-5.001,-5.001,-5.001,-5.001,-5.001,-5.001,-5.001,-5.001,-4.9847,-4.9657,-4.9576,-4.9304,-4.8842,-4.8598,-4.8409,-4.792,-4.7649,-4.7242,-4.7051,-4.6944,-4.6834,-4.6589,-4.6535,-4.6562,-4.6535,-4.6535,-4.6889,-4.7351,-4.7106,-4.6997,-4.6915,-4.6752,-4.6589,-4.6377,-4.6192,-4.5928,-4.5635,-4.5262,-4.4834,-4.4331,-4.3831,-4.3172,-4.2772,-4.2489,-4.2409,-4.2359,-4.2333,-4.2333,-4.2258,-4.2308,-4.2208,-4.1982,-4.2283,-4.2735,-4.2936,-4.2911,-4.2841,-4.2665,-4.2534,-4.2409,-4.2208,-4.2133,-4.2258,-5.001,-5.001,-5.001,-5.001,-4.9983,-4.9874,-4.982,-4.9739,-4.9196,-4.8896,-4.8842,-4.8463,-4.8246,-4.83,-4.8679,-4.925,-4.9793,-4.9793,-4.982,-4.9901,-4.963,-4.9331,-4.895,-4.8652,-4.83,-4.8083,-4.8056,-4.7758,-4.7106,-4.6861,-4.6672,-4.6672,-4.6671,-4.6806,-4.7458,-4.7866,-4.8409,-4.8869,-4.9386,-4.9684,-4.9793,-4.982,-4.9901,-4.9983,-5.001,-5.001,-5.001,-5.001,-5.001,-5.001,-5.001,-5.001,-5.001,-5.001,-5.001,-5.001,-5.001,-5.001,-5.001,-5.001,-4.9983,-4.9901,-4.9983,-4.9711,-4.9413,-4.9142,-4.8842,-4.8463,-4.8164,-4.8002,-4.7595,-4.7541,-4.7295,-4.6915,-4.6752,-4.6618,-4.6562,-4.6535,-4.6535,-4.6645,-4.6535,-4.6562,-4.6643,-4.6643,-4.6535,-4.635,-4.6139,-4.5875,-4.5529,-4.5207,-4.4753,-4.425,-4.3643,-4.2832,-4.2279,-4.1881,-4.176,-4.1756,-4.1731,-4.1731,-4.1551,-4.1451,-4.1401,-4.1505,-4.1882,-4.2308,-4.2585,-4.2635,-4.2283,-4.2057,-4.2007,-4.1932,-4.1781,-4.1626,-4.1706,-5.001,-5.001,-4.9983,-5.001,-4.9901,-4.944,-4.9223,-4.9142,-4.8544,-4.83,-4.83,-4.8219,-4.8137,-4.83,-4.8327,-4.8707,-4.9169,-4.9413,-4.9657,-4.9928,-4.9847,-4.9576,-4.9223,-4.9059,-4.8734,-4.8517,-4.8354,-4.8137,-4.792,-4.7541,-4.7323,-4.7241,-4.6916,-4.6781,-4.7377,-4.7622,-4.7758,-4.8219,-4.8408,-4.8707,-4.9086,-4.9223,-4.9494,-4.982,-4.9956,-4.9956,-4.9983,-5.001,-5.001,-5.001,-5.001,-5.001,-5.001,-5.001,-5.001,-5.001,-5.001,-5.001,-5.001,-5.001,-5.001,-5.001,-5.001,-4.9956,-4.9766,-4.944,-4.9169,-4.9005,-4.8598,-4.8273,-4.8219,-4.811,-4.7839,-4.7486,-4.7241,-4.6916,-4.6699,-4.6535,-4.6535,-4.6535,-4.6535,-4.6535,-4.6562,-4.6562,-4.6482,-4.6297,-4.6086,-4.5822,-4.5475,-4.51,-4.4674,-4.4146,-4.3303,-4.2519,-4.1846,-4.1372,-4.1084,-4.1025,-4.1025,-4.1025,-4.0924,-4.0902,-4.1075,-4.1254,-4.153,-4.1555,-4.1555,-4.153,-4.148,-4.148,-4.143,-4.143,-4.1351,-4.125,-4.105,-5.001,-4.9983,-4.963,-4.9494,-4.944,-4.8815,-4.8571,-4.8435,-4.8002,-4.7758,-4.7731,-4.7703,-4.8002,-4.8544,-4.8679,-4.9032,-4.9549,-4.9603,-4.9739,-4.9928,-4.9983,-4.9874,-4.9711,-4.963,-4.9413,-4.925,-4.9223,-4.9304,-4.8979,-4.8355,-4.7866,-4.7812,-4.7595,-4.7378,-4.754,-4.7703,-4.7758,-4.7893,-4.8056,-4.83,-4.849,-4.8598,-4.8869,-4.9467,-4.9521,-4.9684,-4.9901,-5.001,-5.001,-5.001,-5.001,-5.001,-5.001,-5.001,-5.001,-5.001,-5.001,-5.001,-5.001,-5.001,-5.001,-5.001,-5.001,-4.9983,-4.9956,-4.9793,-4.9603,-4.963,-4.9413,-4.9059,-4.8761,-4.8707,-4.8354,-4.8029,-4.7703,-4.7377,-4.7024,-4.6671,-4.6535,-4.6535,-4.6535,-4.6535,-4.6535,-4.6535,-4.6482,-4.6297,-4.6034,-4.5715,-4.5368,-4.5046,-4.4569,-4.4043,-4.3097,-4.2158,-4.1487,-4.092,-4.0404,-4.0325,-4.03,-4.03,-4.03,-4.035,-4.0576,-4.0526,-4.045,-4.045,-4.0501,-4.0827,-4.1153,-4.1028,-4.0877,-4.0802,-4.0727,-4.0475,-4.03,-4.9793,-4.9739,-4.9304,-4.9005,-4.8815,-4.8273,-4.8029,-4.7948,-4.7405,-4.7187,-4.7295,-4.7459,-4.8192,-4.8979,-4.9277,-4.9576,-4.9956,-5.001,-5.001,-5.001,-5.001,-4.9983,-4.9928,-4.9956,-4.9956,-5.001,-4.982,-4.9847,-4.963,-4.9196,-4.8598,-4.8408,-4.8137,-4.7975,-4.7812,-4.7893,-4.7975,-4.7486,-4.7595,-4.7785,-4.7975,-4.8029,-4.8382,-4.8707,-4.8923,-4.9169,-4.9684,-4.9766,-4.9739,-5.001,-5.001,-5.001,-5.001,-5.001,-5.001,-5.001,-5.001,-5.001,-5.001,-5.001,-5.001,-5.001,-5.001,-5.001,-5.001,-5.001,-4.9983,-4.9928,-4.9901,-4.9657,-4.9467,-4.9359,-4.9033,-4.8599,-4.8165,-4.7758,-4.7431,-4.7051,-4.6698,-4.6535,-4.6535,-4.6535,-4.6535,-4.6535,-4.643,-4.6297,-4.5981,-4.5609,-4.5261,-4.4938,-4.4593,-4.404,-4.3277,-4.2311,-4.151,-4.0817,-4.023,-3.9722,-3.9697,-3.9747,-3.9898,-3.9898,-3.9973,-3.9823,-3.9697,-3.9823,-4.0099,-4.0501,-4.0827,-4.0526,-4.0275,-4.0124,-3.9948,-3.9747,-3.9722,-4.9169,-4.9169,-4.9114,-4.8707,-4.8192,-4.7676,-4.7458,-4.7378,-4.6861,-4.6645,-4.6944,-4.7676,-4.849,-4.9142,-4.963,-4.9901,-5.001,-5.001,-5.001,-5.001,-5.001,-5.001,-5.001,-5.001,-5.001,-5.001,-5.001,-5.001,-4.9983,-4.982,-4.9413,-4.9059,-4.8707,-4.8327,-4.811,-4.8137,-4.8002,-4.7513,-4.7323,-4.7215,-4.7405,-4.7568,-4.7785,-4.811,-4.83,-4.8517,-4.9114,-4.9169,-4.9413,-4.9847,-4.9874,-4.9983,-4.9983,-4.9983,-5.001,-5.001,-5.001,-5.001,-5.001,-5.001,-5.001,-5.001,-5.001,-5.001,-5.001,-5.001,-5.001,-5.001,-5.001,-4.9983,-4.9901,-4.9874,-4.9521,-4.9196,-4.8735,-4.8327,-4.7947,-4.7431,-4.7051,-4.6671,-4.6535,-4.6535,-4.6535,-4.6535,-4.635,-4.6192,-4.5822,-4.5395,-4.5072,-4.4776,-4.4639,-4.4162,-4.3478,-4.2613,-4.1811,-4.1092,-4.0277,-3.9848,-3.9697,-3.9697,-3.9747,-3.9697,-3.9697,-3.9697,-3.9697,-3.9697,-3.9722,-4.0049,-4.0199,-3.9898,-3.9722,-3.9798,-3.9798,-3.9722,-3.9697,-4.8355,-4.8056,-4.8056,-4.7893,-4.7649,-4.7105,-4.6861,-4.6834,-4.6616,-4.6944,-4.7595,-4.8354,-4.9059,-4.9603,-4.982,-5.001,-5.001,-5.001,-5.001,-5.001,-5.001,-5.001,-5.001,-5.001,-5.001,-5.001,-5.001,-5.001,-5.001,-5.001,-4.9928,-4.9603,-4.9331,-4.9032,-4.8815,-4.8435,-4.8138,-4.7975,-4.7649,-4.7595,-4.7323,-4.7404,-4.7459,-4.7649,-4.7703,-4.8002,-4.8435,-4.8517,-4.8896,-4.9304,-4.944,-4.963,-4.9901,-4.9928,-4.9983,-4.9983,-5.001,-5.001,-5.001,-5.001,-5.001,-5.001,-5.001,-5.001,-5.001,-5.001,-5.001,-5.001,-5.001,-5.001,-5.001,-4.9983,-4.9847,-4.963,-4.9304,-4.8897,-4.8436,-4.792,-4.7431,-4.7024,-4.6698,-4.6535,-4.6535,-4.6535,-4.6297,-4.6086,-4.5662,-4.5234,-4.491,-4.4639,-4.4476,-4.418,-4.3521,-4.2789,-4.196,-4.1165,-4.035,-4.0023,-3.9747,-3.9697,-3.9697,-3.9697,-3.9697,-3.9697,-3.9697,-3.9697,-3.9697,-3.9697,-3.9697,-3.9697,-3.9697,-3.9722,-3.9697,-3.9697,-3.9697,-4.7731,-4.7404,-4.7214,-4.716,-4.7105,-4.6698,-4.6535,-4.6535,-4.6535,-4.7134,-4.8219,-4.8815,-4.944,-4.9874,-5.001,-5.001,-5.001,-5.001,-5.001,-5.001,-5.001,-5.001,-5.001,-5.001,-5.001,-5.001,-5.001,-5.001,-5.001,-5.001,-4.9956,-4.9956,-4.9983,-4.9684,-4.9386,-4.8788,-4.8463,-4.8435,-4.8219,-4.8056,-4.7676,-4.7649,-4.7649,-4.7731,-4.7731,-4.7893,-4.8164,-4.8273,-4.8408,-4.8679,-4.8869,-4.9169,-4.9494,-4.9766,-4.9847,-4.9928,-5.001,-5.001,-5.001,-5.001,-5.001,-5.001,-5.001,-5.001,-5.001,-5.001,-5.001,-5.001,-5.001,-5.001,-5.001,-5.001,-5.001,-4.9793,-4.9711,-4.9331,-4.8924,-4.8463,-4.7866,-4.7404,-4.7078,-4.6727,-4.635,-4.6297,-4.6034,-4.5742,-4.5315,-4.4992,-4.483,-4.4585,-4.4367,-4.4045,-4.3592,-4.2808,-4.2084,-4.1389,-4.0752,-4.0224,-3.9948,-3.9747,-3.9697,-3.9697,-3.9697,-3.9697,-3.9697,-3.9697,-3.9697,-3.9697,-3.9697,-3.9697,-3.9697,-3.9697,-3.9697,-3.9697,-3.9697,-4.7404,-4.735,-4.6806,-4.6589,-4.6564,-4.6535,-4.6535,-4.6562,-4.6618,-4.7242,-4.8219,-4.8842,-4.9467,-4.9901,-5.001,-5.001,-5.001,-5.001,-5.001,-5.001,-5.001,-5.001,-5.001,-5.001,-5.001,-5.001,-5.001,-5.001,-5.001,-5.001,-5.001,-5.001,-5.001,-4.9983,-4.9928,-4.9413,-4.9086,-4.8978,-4.8544,-4.8354,-4.8192,-4.8164,-4.8219,-4.8083,-4.8056,-4.8083,-4.8137,-4.8192,-4.8327,-4.8517,-4.8408,-4.8679,-4.9196,-4.9277,-4.9467,-4.9847,-4.9956,-5.001,-5.001,-5.001,-5.001,-5.001,-5.001,-5.001,-5.001,-5.001,-5.001,-5.001,-5.001,-5.001,-5.001,-5.001,-5.001,-4.9983,-4.9874,-4.9739,-4.9331,-4.8924,-4.8327,-4.7866,-4.754,-4.7134,-4.6515,-4.6086,-4.5768,-4.5422,-4.4992,-4.4776,-4.4613,-4.4476,-4.4313,-4.3932,-4.3504,-4.2928,-4.2254,-4.1739,-4.1153,-4.0601,-4.0174,-3.9948,-3.9747,-3.9697,-3.9697,-3.9697,-3.9697,-3.9697,-3.9697,-3.9697,-3.9697,-3.9697,-3.9697,-3.9697,-3.9697,-3.9697,-3.9697,-4.6781,-4.6806,-4.6616,-4.6535,-4.6535,-4.6535,-4.6535,-4.6618,-4.7269,-4.7839,-4.8327,-4.9223,-4.9766,-4.9983,-5.001,-5.001,-5.001,-5.001,-5.001,-5.001,-5.001,-5.001,-5.001,-5.001,-5.001,-5.001,-5.001,-5.001,-5.001,-5.001,-5.001,-5.001,-5.001,-5.001,-4.9983,-4.9766,-4.9711,-4.9711,-4.9494,-4.925,-4.8815,-4.8761,-4.8625,-4.8273,-4.8273,-4.8273,-4.8246,-4.8273,-4.8381,-4.8544,-4.8408,-4.849,-4.895,-4.9086,-4.925,-4.9549,-4.9684,-5.001,-5.001,-5.001,-5.001,-5.001,-5.001,-5.001,-5.001,-5.001,-5.001,-5.001,-5.001,-5.001,-5.001,-5.001,-5.001,-5.001,-4.9956,-4.9928,-4.9657,-4.9277,-4.8816,-4.8436,-4.8083,-4.7135,-4.6355,-4.5954,-4.5662,-4.5341,-4.4938,-4.4613,-4.4476,-4.4367,-4.4203,-4.3738,-4.3335,-4.2916,-4.2423,-4.1986,-4.1379,-4.0752,-4.04,-4.0174,-3.9998,-3.9747,-3.9697,-3.9697,-3.9697,-3.9697,-3.9697,-3.9697,-3.9697,-3.9697,-3.9697,-3.9697,-3.9697,-3.9697,-3.9697,-4.6535,-4.6535,-4.6535,-4.6535,-4.6535,-4.6535,-4.6564,-4.6916,-4.7812,-4.83,-4.8679,-4.9576,-5.001,-5.001,-5.001,-5.001,-5.001,-5.001,-5.001,-5.001,-5.001,-5.001,-5.001,-5.001,-5.001,-5.001,-5.001,-5.001,-5.001,-5.001,-5.001,-5.001,-5.001,-5.001,-4.9983,-4.9956,-4.9956,-4.9928,-4.982,-4.9766,-4.9521,-4.9386,-4.925,-4.8978,-4.8842,-4.8761,-4.8571,-4.8544,-4.8571,-4.8679,-4.8571,-4.849,-4.8869,-4.9142,-4.9223,-4.9494,-4.9739,-5.001,-5.001,-5.001,-5.001,-5.001,-5.001,-5.001,-5.001,-5.001,-5.001,-5.001,-5.001,-5.001,-5.001,-5.001,-5.001,-5.001,-5.001,-4.9983,-4.9901,-4.9521,-4.9277,-4.8924,-4.8273,-4.7244,-4.6222,-4.5849,-4.5555,-4.5234,-4.491,-4.4639,-4.4313,-4.4203,-4.4039,-4.3628,-4.3295,-4.2952,-4.2645,-4.2288,-4.163,-4.0927,-4.0626,-4.04,-3.9973,-3.9697,-3.9697,-3.9697,-3.9697,-3.9697,-3.9697,-3.9697,-3.9697,-3.9697,-3.9697,-3.9697,-3.9697,-3.9697,-3.9697,-4.6535,-4.6535,-4.6535,-4.6535,-4.6535,-4.6535,-4.6834,-4.7431,-4.7975,-4.849,-4.9169,-4.9711,-5.001,-5.001,-5.001,-5.001,-5.001,-5.001,-5.001,-5.001,-5.001,-5.001,-5.001,-5.001,-5.001,-5.001,-5.001,-5.001,-5.001,-5.001,-5.001,-5.001,-5.001,-5.001,-5.001,-5.001,-5.001,-5.001,-4.9983,-4.9956,-4.982,-4.9874,-4.9793,-4.9657,-4.9657,-4.9467,-4.9304,-4.9169,-4.8842,-4.8652,-4.8354,-4.8625,-4.8869,-4.9059,-4.9494,-4.982,-5.001,-5.0091,-5.001,-5.001,-5.001,-5.001,-5.001,-5.001,-5.001,-5.001,-5.001,-5.001,-5.001,-5.001,-5.001,-5.001,-5.001,-5.001,-5.001,-5.001,-5.001,-4.982,-4.963,-4.9223,-4.8517,-4.7623,-4.641,-4.5849,-4.5501,-4.5126,-4.4802,-4.4531,-4.4258,-4.4039,-4.3819,-4.3462,-4.3184,-4.3042,-4.276,-4.2564,-4.2162,-4.1455,-4.0902,-4.0601,-4.0124,-3.9747,-3.9697,-3.9697,-3.9697,-3.9697,-3.9697,-3.9697,-3.9697,-3.9697,-3.9697,-3.9697,-3.9697,-3.9697,-3.9697,-4.6535,-4.6535,-4.6535,-4.6535,-4.6535,-4.6535,-4.6861,-4.7405,-4.7975,-4.8544,-4.9169,-4.9739,-4.9983,-5.001,-5.001,-5.001,-5.001,-5.001,-5.001,-5.001,-5.001,-5.001,-5.001,-5.001,-5.001,-5.001,-5.001,-5.001,-5.001,-5.001,-5.001,-5.001,-5.001,-5.001,-5.001,-5.001,-5.001,-5.001,-5.001,-5.001,-5.001,-5.001,-5.001,-5.001,-5.001,-4.982,-4.9739,-4.9684,-4.9494,-4.9467,-4.8978,-4.9005,-4.9005,-4.9169,-4.9386,-4.9983,-5.0281,-5.0498,-5.0118,-5.001,-5.0037,-5.0064,-5.0037,-5.001,-5.001,-5.001,-5.001,-5.001,-5.001,-5.001,-5.001,-5.001,-5.001,-5.001,-5.001,-5.001,-5.001,-4.9956,-4.9766,-4.9384,-4.8734,-4.7784,-4.6598,-4.5902,-4.5527,-4.5071,-4.4694,-4.4422,-4.4203,-4.401,-4.3653,-4.3321,-4.3129,-4.3042,-4.2986,-4.2785,-4.2434,-4.2007,-4.1455,-4.0877,-4.04,-4.0049,-3.9798,-3.9697,-3.9697,-3.9697,-3.9697,-3.9697,-3.9697,-3.9697,-3.9697,-3.9697,-3.9697,-3.9697,-3.9697,-4.6535,-4.6535,-4.6535,-4.6535,-4.6535,-4.6535,-4.6861,-4.7458,-4.8002,-4.8625,-4.9467,-4.9847,-5.001,-5.001,-5.001,-5.001,-5.001,-5.001,-5.001,-5.001,-5.001,-5.001,-5.001,-5.001,-5.001,-5.001,-5.001,-5.001,-5.001,-5.001,-5.001,-5.001,-5.001,-5.001,-5.001,-5.001,-5.001,-5.001,-5.001,-5.001,-5.001,-5.001,-5.001,-5.001,-5.001,-5.001,-5.001,-5.001,-5.001,-5.001,-4.9549,-4.9494,-4.9494,-4.9521,-4.9549,-5.0091,-5.0498,-5.0634,-5.0471,-5.039,-5.0363,-5.0281,-5.0146,-5.001,-5.001,-5.001,-5.001,-5.001,-5.001,-5.001,-5.001,-5.001,-5.001,-5.001,-5.001,-5.001,-5.001,-5.001,-4.9793,-4.9493,-4.8812,-4.7808,-4.6946,-4.6194,-4.5499,-4.4963,-4.4585,-4.4313,-4.4119,-4.3955,-4.3623,-4.3154,-4.3098,-4.2986,-4.2986,-4.2961,-4.2635,-4.2308,-4.1957,-4.1379,-4.0777,-4.0325,-4.0074,-3.9848,-3.9697,-3.9697,-3.9697,-3.9697,-3.9697,-3.9697,-3.9697,-3.9697,-3.9697,-3.9697,-3.9697,-4.6535,-4.6535,-4.6535,-4.6535,-4.6535,-4.6535,-4.6808,-4.7458,-4.8002,-4.8788,-4.9739,-4.9956,-5.001,-5.001,-5.001,-5.001,-5.001,-5.001,-5.001,-5.001,-5.001,-5.001,-5.001,-5.001,-5.001,-5.001,-5.001,-5.001,-5.001,-5.001,-5.001,-5.001,-5.001,-5.001,-5.001,-5.001,-5.001,-5.001,-5.001,-5.001,-5.001,-5.001,-5.001,-5.001,-5.001,-5.001,-5.001,-5.001,-5.001,-5.001,-4.9983,-4.9956,-4.9928,-5.0064,-5.0091,-5.0173,-5.058,-5.0634,-5.0661,-5.0661,-5.077,-5.0661,-5.0417,-5.0254,-5.0254,-5.0064,-5.001,-5.001,-5.001,-5.001,-5.001,-5.001,-5.001,-5.001,-5.001,-5.001,-5.001,-4.9983,-4.9874,-4.9574,-4.9,-4.8049,-4.7344,-4.6618,-4.5708,-4.5038,-4.4476,-4.4229,-4.401,-4.3844,-4.3487,-4.3098,-4.3042,-4.2986,-4.2986,-4.2911,-4.2816,-4.2539,-4.2288,-4.1936,-4.1279,-4.0777,-4.03,-3.9998,-3.9697,-3.9697,-3.9697,-3.9697,-3.9697,-3.9697,-3.9697,-3.9697,-3.9697,-3.9645,-3.9697,-4.6535,-4.6535,-4.6535,-4.6535,-4.6535,-4.6535,-4.6808,-4.7458,-4.7975,-4.8598,-4.9331,-4.9766,-5.001,-5.001,-5.001,-5.001,-5.001,-5.001,-5.001,-5.001,-5.001,-5.001,-5.001,-5.001,-5.001,-5.001,-5.001,-5.001,-5.001,-5.001,-5.001,-5.001,-5.001,-5.001,-5.001,-5.001,-5.001,-5.001,-5.001,-5.001,-5.001,-5.001,-5.001,-5.001,-5.001,-5.001,-5.001,-5.001,-5.001,-5.001,-5.001,-4.9983,-5.001,-5.0417,-5.039,-5.0227,-5.0553,-5.0634,-5.0607,-5.0715,-5.0905,-5.0932,-5.077,-5.0715,-5.0553,-5.0227,-5.0037,-5.001,-5.001,-5.001,-5.001,-5.001,-5.001,-5.001,-5.001,-5.001,-5.001,-4.9956,-4.9928,-4.9572,-4.9106,-4.8449,-4.7742,-4.6904,-4.6046,-4.5271,-4.4632,-4.4229,-4.3929,-4.3708,-4.3432,-4.3098,-4.3042,-4.2986,-4.2986,-4.2961,-4.2811,-4.274,-4.2514,-4.2162,-4.1785,-4.1028,-4.035,-3.9973,-3.9697,-3.9697,-3.9697,-3.9697,-3.9697,-3.9697,-3.9645,-3.9594,-3.9542,-3.9517,-3.9594,-4.6535,-4.6535,-4.6535,-4.6535,-4.6535,-4.6535,-4.6725,-4.7079,-4.7866,-4.8354,-4.8815,-4.9549,-5.001,-5.001,-5.001,-5.001,-5.001,-5.001,-5.001,-5.001,-5.001,-5.001,-5.001,-5.001,-5.001,-5.001,-5.001,-5.001,-5.001,-5.001,-5.001,-5.001,-5.001,-5.001,-5.001,-5.001,-5.001,-5.001,-5.001,-5.001,-5.001,-5.001,-5.001,-5.001,-5.001,-5.001,-5.001,-5.001,-5.001,-5.001,-5.001,-5.001,-5.0037,-5.0254,-5.0281,-5.0281,-5.0471,-5.0743,-5.058,-5.0661,-5.0987,-5.1095,-5.096,-5.0851,-5.0824,-5.0498,-5.0227,-5.02,-5.0037,-5.001,-5.001,-5.001,-5.001,-5.001,-5.001,-5.001,-5.001,-4.9983,-4.9983,-4.9845,-4.9319,-4.8682,-4.8027,-4.7423,-4.6455,-4.5503,-4.4863,-4.4303,-4.3947,-4.3543,-4.3265,-4.3098,-4.3042,-4.2986,-4.2986,-4.2986,-4.2936,-4.2811,-4.274,-4.2439,-4.2011,-4.1103,-4.04,-4.0124,-3.9873,-3.9697,-3.9697,-3.9697,-3.9697,-3.9697,-3.9594,-3.9465,-3.9413,-3.931,-3.9206,-4.6535,-4.6535,-4.6535,-4.6535,-4.6535,-4.6535,-4.6535,-4.6699,-4.7731,-4.8192,-4.8408,-4.9521,-4.9956,-5.001,-5.001,-5.001,-5.001,-5.001,-5.001,-5.001,-5.001,-5.001,-5.001,-5.001,-5.001,-5.001,-5.001,-5.001,-5.001,-5.001,-5.001,-5.001,-5.001,-5.001,-5.001,-5.001,-5.001,-5.001,-5.001,-5.001,-5.001,-5.001,-5.001,-5.001,-5.001,-5.001,-5.001,-5.001,-5.001,-5.001,-5.001,-5.001,-5.001,-5.0091,-5.0091,-5.0146,-5.0363,-5.058,-5.0661,-5.0743,-5.115,-5.1339,-5.1095,-5.1041,-5.1014,-5.0905,-5.0634,-5.0363,-5.02,-5.001,-5.001,-5.001,-5.001,-5.001,-5.001,-5.001,-5.001,-5.001,-4.9953,-4.9953,-4.9422,-4.8836,-4.8334,-4.7753,-4.6891,-4.5913,-4.5171,-4.4553,-4.4045,-4.3533,-4.3154,-4.3042,-4.3042,-4.2986,-4.2986,-4.2986,-4.2986,-4.2961,-4.2811,-4.264,-4.2288,-4.1555,-4.0953,-4.045,-4.0199,-3.9948,-3.9696,-3.9645,-3.9645,-3.9594,-3.9362,-3.9206,-3.9154,-3.8998,-3.8788,-4.6535,-4.6535,-4.6535,-4.6535,-4.6535,-4.6535,-4.6535,-4.6672,-4.7703,-4.8192,-4.849,-4.9386,-5.001,-5.001,-5.001,-5.001,-5.001,-5.001,-5.001,-5.001,-5.001,-5.001,-5.001,-5.001,-5.001,-5.001,-5.001,-5.001,-5.0064,-5.0037,-5.0037,-5.0064,-5.0091,-5.0091,-5.0064,-5.0091,-5.02,-5.0227,-5.0227,-5.0227,-5.0146,-5.0118,-5.001,-5.001,-5.001,-5.001,-5.001,-5.001,-5.001,-5.001,-5.001,-5.001,-5.001,-5.001,-5.001,-5.001,-5.0254,-5.0254,-5.0363,-5.0607,-5.096,-5.1177,-5.1095,-5.1448,-5.1475,-5.1529,-5.1204,-5.077,-5.0525,-5.0146,-5.0064,-5.001,-5.001,-5.001,-5.001,-5.001,-5.001,-4.9953,-4.9897,-4.967,-4.9358,-4.8935,-4.8621,-4.7985,-4.7273,-4.6373,-4.5494,-4.4873,-4.4184,-4.365,-4.3037,-4.2986,-4.2986,-4.2986,-4.2986,-4.2986,-4.2986,-4.2986,-4.2936,-4.2766,-4.2539,-4.2238,-4.163,-4.1053,-4.0498,-4.0172,-3.9919,-3.959,-3.9387,-3.9335,-3.905,-3.8893,-3.8841,-3.8631,-3.8368]},{"header":{"parameterUnit":"m.s-1","parameterCategory":1,"la1":31.0,"la2":29.5877,"lo1":-88.7671,"lo2":-86.6584,"dy":0.0162,"dx":0.0185,"nx":115,"ny":88,"refTime":"2023-03-27T18:00:00:Z","depth":0,"parameterNumber":3,"parameterNumberName":"V-component_of_WINDS"},"data":[0.0,0.0,0.0,0.0,0.0,0.0,0.0,0.0,0.0,0.0,0.0,0.0,0.0,0.0,0.0,0.0,0.0,0.0,0.0,0.0,0.0,0.0,0.0,0.0,0.0,0.0,0.0,0.0,0.0,0.0,0.0,0.0,0.0,0.0,0.0,0.0,0.0,0.0,0.0,0.0,0.0,0.0,0.0,0.0,0.0,0.0,0.0,0.0,0.0,0.0,0.0,0.0,0.0,0.0,0.0,0.0,0.0,0.0,0.0,0.0,0.0,0.0,0.0,0.0,0.0,0.0,0.0,0.0,0.0,0.0,0.0,0.0,0.0,0.0,0.0,0.0,0.0,0.0,0.0,0.0,0.0,0.0,0.0,0.0,0.0,0.0,0.0,0.0,0.0,0.0,0.0,0.0,0.0,0.0,0.0,0.0,0.0,0.0,0.0,0.0,0.0,0.0,0.0,0.0,0.0,0.0,0.0,0.0,0.0,0.0,0.0,0.0,0.0,0.0,0.0,0.0,0.0,0.0,0.0,0.0,0.0,0.0,0.0,0.0,0.0,0.0,0.0,0.0,0.0,0.0,0.0,0.0,0.0,0.0,0.0,0.0,0.0,0.0,0.0,0.0,0.0,0.0,0.0,0.0,0.0,0.0,0.0,0.0,0.0,0.0,0.0,0.0,0.0,0.0,0.0,0.0,0.0,0.0,0.0,0.0,0.0,0.0,0.0,0.0,0.0,0.0,0.0,0.0,0.0,0.0,0.0,0.0,0.0,0.0,0.0,0.0,0.0,0.0,0.0,0.0,0.0,0.0,0.0,0.0,0.0,0.0,0.0,0.0,0.0,0.0,0.0,0.0,0.0,0.0,0.0,0.0,0.0,0.0,0.0,0.0,0.0,0.0,0.0,0.0,0.0,0.0,0.0,0.0,0.0,0.0,0.0,0.0,0.0,0.0,0.0,0.0,0.0,0.0,0.0,0.0,0.0,0.0,0.0,0.0,0.0,0.0,0.0,0.0,0.0,0.0,0.0,0.0,0.0,0.0,0.0,0.0,0.0,0.0,0.0,0.0,0.0,0.0,0.0,0.0,0.0,0.0,0.0,0.0,0.0,0.0,0.0,0.0,0.0,0.0,0.0,0.0,0.0,0.0,0.0,0.0,0.0,0.0,0.0,0.0,0.0,0.0,0.0,0.0,0.0,0.0,0.0,0.0,0.0,0.0,0.0,0.0,0.0,0.0,0.0,0.0,0.0,0.0,0.0,0.0,0.0,0.0,0.0,0.0,0.0,0.0,0.0,0.0,0.0,0.0,0.0,0.0,0.0,0.0,0.0,0.0,0.0,0.0,0.0,0.0,0.0,0.0,0.0,0.0,0.0,0.0,0.0,0.0,0.0,0.0,0.0,0.0,0.0,0.0,0.0,0.0,0.0,0.0,0.0,0.0,0.0,0.0,0.0,0.0,0.0,0.0,0.0,0.0,0.0,0.0,0.0,0.0,0.0,0.0,0.0,0.0,0.0,0.0,0.0,0.0,0.0,0.0,0.0,0.0,0.0,0.0,0.0,0.0,0.0,0.0,0.0,0.0,0.0,0.0,0.0,0.0,0.0,0.0,0.0,0.0,0.0,0.0,0.0,0.0,0.0,0.0,0.0,0.0,0.0,0.0,0.0,0.0,0.0,0.0,0.0,0.0,0.0,0.0,0.0,0.0,0.0,0.0,0.0,0.0,0.0,0.0,0.0,0.0,0.0,0.0,0.0,0.0,0.0,0.0,0.0,0.0,0.0,0.0,0.0,0.0,0.0,0.0,0.0,0.0,0.0,0.0,0.0,0.0,0.0,0.0,0.0,0.0,0.0,0.0,0.0,0.0,0.0,0.0,0.0,0.0,0.0,0.0,0.0,0.0,0.0,0.0,0.0,0.0,0.0,0.0,0.0,0.0,0.0,0.0,0.0,0.0,0.0,0.0,0.0,0.0,0.0,0.0,0.0,0.0,0.0,0.0,0.0,0.0,0.0,0.0,0.0,0.0,0.0,0.0,0.0,0.0,0.0,0.0,0.0,0.0,0.0,0.0,0.0,0.0,0.0,0.0,0.0,0.0,0.0,0.0,0.0,0.0,0.0,0.0,0.0,0.0,0.0,0.0,0.0,0.0,0.0,0.0,0.0,0.0,0.0,0.0,0.0,0.0,0.0,0.0,0.0,0.0,0.0,0.0,0.0,0.0,0.0,0.0,0.0,0.0,0.0,0.0,0.0,0.0,0.0,0.0,0.0,0.0,0.0,0.0,0.0,0.0,0.0,0.0,0.0,0.0,0.0,0.0,0.0,0.0,0.0,0.0,0.0,0.0,0.0,0.0,0.0,0.0,0.0,0.0,0.0,0.0,0.0,0.0,0.0,0.0,0.0,0.0,0.0,0.0,0.0,0.0,0.0,0.0,0.0,0.0,0.0,0.0,0.0,0.0,0.0,0.0,0.0,0.0,0.0,0.0,0.0,0.0,0.0,0.0,0.0,0.0,0.0,0.0,0.0,0.0,0.0,0.0,0.0,0.0,0.0,0.0,0.0,0.0,0.0,0.0,0.0,0.0,0.0,0.0,0.0,0.0,0.0,0.0,0.0,0.0,0.0,0.0,0.0,0.0,0.0,0.0,0.0,0.0,0.0,0.0,0.0,0.0,0.0,0.0,0.0,0.0,0.0,0.0,0.0,0.0,0.0,0.0,0.0,0.0,0.0,0.0,0.0,0.0,0.0,0.0,0.0,0.0,0.0,0.0,0.0,0.0,0.0,0.0,0.0,0.0,0.0,0.0,0.0,0.0,0.0,0.0,0.0,0.0,0.0,0.0,0.0,0.0,0.0,0.0,0.0,0.0,0.0,0.0,0.0,0.0,0.0,0.0,0.0,0.0,0.0,0.0,0.0,0.0,0.0,0.0,0.0,0.0,0.0,0.0,0.0,0.0,0.0,0.0,0.0,0.0,0.0,0.0,0.0,0.0,0.0,0.0,0.0,0.0,0.0,0.0,0.0,0.0,0.0,0.0,0.0,0.0,0.0,0.0,0.0,0.0,0.0,0.0,0.0,0.0,0.0,0.0,0.0,0.0,0.0,0.0,0.0,0.0,0.0,0.0,0.0,0.0,0.0,0.0,0.0,0.0,0.0,0.0,0.0,0.0,0.0,0.0,0.0,0.0,0.0,0.0,0.0,0.0,0.0,0.0,0.0,0.0,0.0,0.0,0.0,0.0,0.0,0.0,0.0,0.0,0.0,0.0,0.0,0.0,0.0,0.0,0.0,0.0,0.0,0.0,0.0,0.0,0.0,0.0,0.0,0.0,0.0,0.0,0.0,0.0,0.0,0.0,0.0,0.0,0.0,0.0,0.0,0.0,0.0,0.0,0.0,0.0,0.0,0.0,0.0,0.0,0.0,0.0,0.0,0.0,0.0,0.0,0.0,0.0,0.0,0.0,0.0,0.0,0.0,0.0,0.0,0.0,0.0,0.0,0.0,0.0,0.0,0.0,0.0,0.0,0.0,0.0,0.0,0.0,0.0,0.0,0.0,0.0,0.0,0.0,0.0,0.0,0.0,0.0,0.0,0.0,0.0,0.0,0.0,0.0,0.0,0.0,0.0,0.0,0.0,0.0,0.0,0.0,0.0,0.0,0.0,0.0,0.0,0.0,0.0,0.0,0.0,0.0,0.0,0.0,0.0,0.0,0.0,0.0,0.0,0.0,0.0,0.0,0.0,0.0,0.0,0.0,0.0,0.0,0.0,0.0,0.0,0.0,0.0,0.0,0.0,0.0,0.0,0.0,0.0,0.0,0.0,0.0,0.0,0.0,0.0,0.0,0.0,0.0,0.0,0.0,0.0,0.0,0.0,0.0,0.0,0.0,0.0,0.0,0.0,0.0,0.0,0.0,0.0,0.0,0.0,0.0,0.0,0.0,0.0,0.0,0.0,0.0,0.0,0.0,0.0,0.0,0.0,0.0,0.0,0.0,0.0,0.0,0.0,0.0,0.0,0.0,0.0,0.0,0.0,0.0,0.0,0.0,0.0,0.0,0.0,0.0,0.0,0.0,0.0,0.0,0.0,0.0,0.0,0.0,0.0,0.0,0.0,0.0,0.0,0.0,0.0,0.0,0.0,0.0,0.0,0.0,0.0,0.0,0.0,0.0,0.0,0.0,0.0,0.0,0.0,0.0,0.0,0.0,0.0,0.0,0.0,0.0,0.0,0.0,0.0,0.0,0.0,0.0,0.0,0.0,0.0,0.0,0.0,0.0,0.0,0.0,1.6841,0.0,0.0,0.0,0.0,0.0,0.0,0.0,0.0,0.0,0.0,0.0,0.0,0.0,0.0,0.0,0.0,0.0,0.0,0.0,0.0,0.0,0.0,0.0,0.0,0.0,0.0,0.0,0.0,0.0,0.0,0.0,0.0,0.0,0.0,0.0,0.0,0.0,0.0,0.0,0.0,0.0,0.0,0.0,0.0,0.0,0.0,0.0,0.0,0.0,0.0,0.0,0.0,0.0,0.0,0.0,0.0,0.0,0.0,0.0,0.0,0.0,0.0,0.0,0.0,0.0,0.0,0.0,0.0,0.0,0.0,0.0,0.0,0.0,0.0,0.0,0.0,0.0,0.0,0.0,0.0,0.0,0.0,0.0,0.0,0.0,0.0,0.0,0.0,0.0,0.0,0.0,0.0,0.0,0.0,0.0,0.0,0.0,0.0,0.0,0.0,0.0,0.0,0.0,0.0,0.0,0.0,0.0,0.0,0.0,0.0,1.7995,1.7454,1.7277,1.7299,1.7546,0.0,0.0,0.0,0.0,0.0,0.0,0.0,0.0,0.0,0.0,0.0,0.0,0.0,0.0,0.0,0.0,0.0,0.0,0.0,0.0,0.0,0.0,0.0,0.0,0.0,0.0,0.0,0.0,0.0,0.0,0.0,0.0,0.0,0.0,0.0,0.0,0.0,0.0,0.0,0.0,0.0,0.0,0.0,0.0,0.0,0.0,0.0,0.0,0.0,0.0,0.0,0.0,0.0,0.0,0.0,0.0,0.0,0.0,0.0,0.0,0.0,0.0,0.0,0.0,0.0,0.0,0.0,0.0,0.0,0.0,0.0,0.0,0.0,0.0,0.0,0.0,0.0,0.0,0.0,0.0,0.0,0.0,0.0,0.0,0.0,0.0,0.0,0.0,0.0,0.0,0.0,0.0,0.0,0.0,0.0,0.0,0.0,0.0,0.0,0.0,0.0,0.0,0.0,0.0,0.0,0.0,0.0,0.0,0.0,0.0,0.0,0.0,1.8064,1.8086,1.8236,0.0,0.0,0.0,0.0,0.0,0.0,0.0,0.0,0.0,0.0,0.0,0.0,0.0,0.0,0.0,0.0,0.0,0.0,0.0,0.0,0.0,0.0,0.0,0.0,0.0,0.0,0.0,0.0,0.0,0.0,0.0,0.0,0.0,0.0,0.0,0.0,0.0,0.0,0.0,0.0,0.0,0.0,0.0,0.0,0.0,0.0,0.0,0.0,0.0,0.0,0.0,0.0,0.0,0.0,0.0,0.0,0.0,0.0,0.0,0.0,0.0,0.0,0.0,0.0,0.0,0.0,0.0,0.0,0.0,0.0,0.0,0.0,0.0,0.0,0.0,0.0,0.0,0.0,0.0,0.0,0.0,0.0,0.0,0.0,0.0,0.0,0.0,0.0,0.0,0.0,0.0,0.0,0.0,0.0,0.0,0.0,0.0,0.0,0.0,0.0,0.0,0.0,0.0,0.0,0.0,0.0,0.0,0.0,0.0,0.0,1.8933,1.8883,1.8456,0.0,1.8883,0.0,0.0,0.0,0.0,0.0,0.0,0.0,0.0,0.0,0.0,0.0,0.0,0.0,0.0,0.0,0.0,0.0,0.0,0.0,0.0,0.0,0.0,0.0,0.0,0.0,0.0,0.0,0.0,0.0,0.0,0.0,0.0,0.0,0.0,0.0,0.0,0.0,0.0,0.0,0.0,0.0,0.0,0.0,0.0,0.0,0.0,0.0,0.0,0.0,0.0,0.0,0.0,0.0,0.0,0.0,0.0,0.0,0.0,0.0,0.0,0.0,0.0,0.0,0.0,0.0,0.0,0.0,0.0,0.0,0.0,0.0,0.0,0.0,0.0,0.0,0.0,0.0,0.0,0.0,0.0,0.0,0.0,0.0,0.0,0.0,0.0,0.0,0.0,0.0,0.0,0.0,0.0,0.0,0.0,0.0,0.0,0.0,0.0,0.0,0.0,0.0,0.0,0.0,0.0,0.0,0.0,0.0,0.0,0.0,0.0,1.9484,1.9459,1.9258,1.9258,0.0,0.0,0.0,0.0,0.0,0.0,0.0,0.0,0.0,0.0,0.0,0.0,0.0,0.0,0.0,0.0,0.0,0.0,0.0,0.0,0.0,0.0,0.0,0.0,0.0,0.0,0.0,0.0,0.0,0.0,0.0,0.0,0.0,0.0,0.0,0.0,0.0,0.0,0.0,0.0,0.0,0.0,0.0,0.0,0.0,0.0,0.0,0.0,0.0,0.0,0.0,0.0,0.0,0.0,0.0,0.0,0.0,0.0,0.0,0.0,0.0,0.0,0.0,0.0,0.0,0.0,0.0,0.0,0.0,0.0,0.0,0.0,0.0,0.0,0.0,0.0,0.0,0.0,0.0,0.0,0.0,0.0,0.0,0.0,0.0,0.0,0.0,0.0,0.0,0.0,0.0,0.0,0.0,0.0,0.0,0.0,0.0,0.0,0.0,0.0,0.0,0.0,0.0,0.0,0.0,0.0,0.0,0.0,0.0,0.0,1.9886,1.9811,1.9811,1.9962,2.0063,2.0037,0.0,0.0,0.0,0.0,0.0,0.0,0.0,0.0,0.0,0.0,0.0,0.0,0.0,0.0,0.0,0.0,0.0,0.0,0.0,0.0,0.0,0.0,0.0,0.0,0.0,0.0,0.0,0.0,0.0,0.0,0.0,0.0,0.0,0.0,0.0,0.0,0.0,0.0,0.0,0.0,0.0,0.0,0.0,0.0,0.0,0.0,0.0,0.0,0.0,0.0,0.0,0.0,0.0,0.0,0.0,0.0,0.0,0.0,0.0,0.0,0.0,0.0,0.0,0.0,0.0,0.0,0.0,0.0,0.0,0.0,0.0,0.0,0.0,0.0,0.0,0.0,0.0,0.0,0.0,0.0,0.0,0.0,0.0,0.0,0.0,0.0,0.0,0.0,0.0,0.0,0.0,0.0,0.0,0.0,0.0,0.0,0.0,0.0,0.0,0.0,0.0,0.0,0.0,0.0,0.0,0.0,0.0,0.0,2.0641,2.0112,1.9811,1.9836,2.0365,2.0641,0.0,0.0,0.0,0.0,0.0,0.0,0.0,0.0,0.0,0.0,0.0,0.0,0.0,0.0,0.0,0.0,0.0,0.0,0.0,0.0,0.0,0.0,0.0,0.0,0.0,0.0,0.0,0.0,0.0,0.0,0.0,0.0,0.0,0.0,0.0,0.0,0.0,0.0,0.0,0.0,0.0,0.0,0.0,0.0,0.0,0.0,0.0,0.0,0.0,0.0,0.0,0.0,0.0,0.0,0.0,0.0,0.0,0.0,0.0,0.0,0.0,0.0,0.0,0.0,0.0,0.0,0.0,0.0,0.0,0.0,0.0,0.0,0.0,0.0,0.0,0.0,0.0,0.0,0.0,0.0,0.0,0.0,0.0,0.0,0.0,0.0,0.0,0.0,0.0,0.0,0.0,0.0,0.0,0.0,0.0,0.0,0.0,0.0,0.0,0.0,0.0,0.0,0.0,0.0,0.0,0.0,0.0,0.0,0.0,2.0742,2.0815,2.0865,2.0891,2.1119,2.1219,0.0,0.0,0.0,0.0,0.0,0.0,0.0,0.0,0.0,0.0,0.0,0.0,0.0,0.0,0.0,0.0,0.0,0.0,0.0,0.0,0.0,0.0,0.0,0.0,0.0,0.0,0.0,0.0,0.0,0.0,0.0,0.0,0.0,0.0,0.0,0.0,0.0,0.0,0.0,0.0,0.0,0.0,0.0,0.0,0.0,0.0,0.0,0.0,0.0,0.0,0.0,0.0,0.0,0.0,0.0,0.0,0.0,0.0,0.0,0.0,0.0,0.0,0.0,0.0,0.0,0.0,0.0,0.0,0.0,0.0,0.0,0.0,0.0,0.0,0.0,0.0,0.0,0.0,0.0,0.0,0.0,0.0,0.0,0.0,0.0,0.0,0.0,0.0,0.0,0.0,0.0,0.0,0.0,0.0,0.0,0.0,0.0,0.0,0.0,0.0,0.0,0.0,0.0,0.0,0.0,0.0,0.0,0.0,0.0,2.0742,0.0,2.1345,2.1521,2.1669,2.1744,0.0,0.0,0.0,0.0,0.0,0.0,0.0,0.0,0.0,0.0,0.0,0.0,0.0,0.0,0.0,0.0,0.0,0.0,0.0,0.0,0.0,0.0,0.0,0.0,0.0,0.0,0.0,0.0,0.0,0.0,0.0,0.0,0.0,0.0,0.0,0.0,0.0,0.0,0.0,0.0,0.0,0.0,0.0,0.0,0.0,0.0,0.0,0.0,0.0,0.0,0.0,0.0,0.0,0.0,0.0,0.0,0.0,0.0,0.0,0.0,0.0,0.0,0.0,0.0,0.0,0.0,0.0,0.0,0.0,0.0,0.0,0.0,0.0,0.0,0.0,0.0,0.0,0.0,0.0,0.0,0.0,0.0,0.0,0.0,0.0,0.0,0.0,0.0,0.0,0.0,0.0,0.0,0.0,0.0,0.0,0.0,0.0,0.0,0.0,0.0,0.0,0.0,0.0,0.0,0.0,0.0,0.0,0.0,2.1267,2.0792,2.0817,2.1169,2.1546,2.2096,2.2347,0.0,0.0,0.0,0.0,0.0,0.0,0.0,0.0,0.0,0.0,0.0,0.0,0.0,0.0,0.0,0.0,0.0,0.0,0.0,0.0,0.0,0.0,0.0,0.0,0.0,0.0,0.0,0.0,0.0,0.0,0.0,0.0,0.0,0.0,0.0,0.0,0.0,0.0,0.0,0.0,0.0,0.0,0.0,0.0,0.0,0.0,0.0,0.0,0.0,0.0,0.0,0.0,0.0,0.0,0.0,0.0,0.0,0.0,0.0,0.0,0.0,0.0,0.0,0.0,0.0,0.0,0.0,0.0,0.0,0.0,0.0,0.0,0.0,0.0,0.0,0.0,0.0,0.0,0.0,0.0,0.0,0.0,0.0,0.0,0.0,0.0,0.0,0.0,0.0,0.0,0.0,0.0,0.0,0.0,0.0,0.0,0.0,0.0,0.0,0.0,0.0,0.0,0.0,0.0,0.0,0.0,0.0,0.0,0.0,2.2979,2.3326,2.3627,2.3778,2.3577,2.3477,0.0,0.0,0.0,0.0,0.0,0.0,0.0,0.0,0.0,0.0,0.0,0.0,0.0,0.0,0.0,0.0,0.0,0.0,0.0,0.0,0.0,0.0,0.0,0.0,0.0,0.0,0.0,0.0,0.0,0.0,0.0,0.0,0.0,0.0,0.0,0.0,0.0,0.0,0.0,0.0,0.0,0.0,0.0,0.0,0.0,0.0,0.0,0.0,0.0,0.0,0.0,0.0,0.0,0.0,0.0,0.0,0.0,0.0,0.0,0.0,0.0,0.0,0.0,0.0,0.0,0.0,0.0,0.0,0.0,0.0,0.0,0.0,0.0,0.0,0.0,0.0,0.0,0.0,0.0,0.0,0.0,0.0,0.0,0.0,0.0,0.0,0.0,0.0,0.0,0.0,0.0,0.0,0.0,0.0,0.0,0.0,0.0,0.0,0.0,0.0,0.0,0.0,0.0,0.0,0.0,0.0,0.0,0.0,0.0,2.4255,2.4029,2.4048,2.4506,2.418,2.4004,2.3954,0.0,0.0,0.0,0.0,0.0,0.0,0.0,0.0,0.0,0.0,0.0,0.0,0.0,0.0,0.0,0.0,0.0,0.0,0.0,0.0,0.0,0.0,0.0,0.0,0.0,0.0,0.0,0.0,0.0,0.0,0.0,0.0,0.0,0.0,0.0,0.0,0.0,0.0,0.0,0.0,0.0,0.0,0.0,0.0,0.0,0.0,0.0,0.0,0.0,0.0,0.0,0.0,0.0,0.0,0.0,0.0,0.0,0.0,0.0,0.0,0.0,0.0,0.0,0.0,0.0,0.0,0.0,0.0,0.0,0.0,0.0,0.0,0.0,0.0,0.0,0.0,0.0,0.0,0.0,0.0,0.0,0.0,0.0,0.0,0.0,0.0,0.0,0.0,0.0,0.0,0.0,0.0,0.0,0.0,0.0,0.0,0.0,0.0,0.0,0.0,0.0,0.0,0.0,0.0,0.0,0.0,0.0,0.0,2.4825,2.3301,2.3,2.4029,2.4054,2.4054,0.0,0.0,0.0,0.0,0.0,0.0,0.0,0.0,0.0,0.0,0.0,0.0,0.0,0.0,0.0,0.0,0.0,0.0,0.0,0.0,0.0,0.0,0.0,0.0,0.0,0.0,0.0,0.0,0.0,0.0,0.0,0.0,0.0,0.0,0.0,0.0,0.0,0.0,0.0,0.0,0.0,0.0,0.0,0.0,0.0,0.0,0.0,0.0,0.0,0.0,0.0,0.0,0.0,0.0,0.0,0.0,0.0,0.0,0.0,0.0,0.0,0.0,0.0,0.0,0.0,0.0,0.0,0.0,0.0,0.0,0.0,0.0,0.0,0.0,0.0,0.0,0.0,0.0,0.0,0.0,0.0,0.0,0.0,0.0,0.0,0.0,0.0,0.0,0.0,0.0,0.0,0.0,0.0,0.0,0.0,0.0,0.0,0.0,0.0,0.0,0.0,0.0,0.0,0.0,0.0,0.0,0.0,0.0,0.0,2.536,2.4582,2.4305,2.4575,2.4575,2.4607,0.0,0.0,0.0,0.0,0.0,0.0,0.0,0.0,0.0,0.0,0.0,0.0,0.0,0.0,0.0,0.0,0.0,0.0,0.0,0.0,0.0,0.0,0.0,0.0,0.0,0.0,0.0,0.0,0.0,0.0,0.0,0.0,0.0,0.0,0.0,0.0,0.0,0.0,0.0,0.0,0.0,0.0,0.0,0.0,0.0,0.0,0.0,0.0,0.0,0.0,0.0,0.0,0.0,0.0,0.0,0.0,0.0,0.0,0.0,0.0,0.0,0.0,0.0,0.0,0.0,0.0,0.0,0.0,0.0,0.0,0.0,0.0,0.0,0.0,0.0,0.0,0.0,0.0,0.0,0.0,0.0,0.0,0.0,0.0,0.0,0.0,0.0,0.0,0.0,0.0,0.0,0.0,0.0,0.0,0.0,0.0,0.0,0.0,0.0,0.0,0.0,0.0,0.0,0.0,0.0,0.0,0.0,0.0,2.5586,2.5586,2.5051,2.484,2.4936,2.5066,2.5159,0.0,0.0,0.0,0.0,0.0,0.0,0.0,0.0,0.0,0.0,0.0,0.0,0.0,0.0,0.0,0.0,0.0,0.0,0.0,0.0,0.0,0.0,0.0,0.0,0.0,0.0,0.0,0.0,0.0,0.0,0.0,0.0,0.0,0.0,0.0,0.0,0.0,0.0,0.0,0.0,0.0,0.0,0.0,0.0,0.0,0.0,0.0,0.0,0.0,0.0,0.0,0.0,0.0,0.0,0.0,0.0,0.0,0.0,0.0,0.0,0.0,0.0,0.0,0.0,0.0,0.0,0.0,0.0,0.0,0.0,0.0,0.0,0.0,0.0,0.0,0.0,0.0,0.0,0.0,0.0,0.0,0.0,0.0,0.0,0.0,0.0,0.0,0.0,0.0,0.0,0.0,0.0,0.0,0.0,0.0,0.0,0.0,0.0,0.0,0.0,0.0,0.0,0.0,0.0,0.0,0.0,0.0,0.0,2.5661,2.5586,2.5209,2.5081,2.5274,2.5534,2.5695,0.0,0.0,0.0,0.0,0.0,0.0,0.0,0.0,0.0,0.0,0.0,0.0,0.0,0.0,0.0,0.0,0.0,0.0,0.0,0.0,0.0,0.0,0.0,0.0,0.0,0.0,0.0,0.0,0.0,0.0,0.0,0.0,0.0,0.0,0.0,0.0,0.0,0.0,0.0,0.0,0.0,0.0,0.0,0.0,0.0,0.0,0.0,0.0,0.0,0.0,0.0,0.0,0.0,0.0,0.0,0.0,0.0,0.0,0.0,0.0,0.0,0.0,0.0,0.0,0.0,0.0,0.0,0.0,0.0,0.0,0.0,0.0,0.0,0.0,0.0,0.0,0.0,0.0,0.0,0.0,0.0,0.0,0.0,0.0,0.0,0.0,0.0,0.0,0.0,0.0,0.0,0.0,0.0,0.0,0.0,0.0,0.0,0.0,0.0,0.0,0.0,0.0,0.0,0.0,0.0,0.0,0.0,0.0,2.6072,2.5611,2.6047,2.6291,2.6358,2.6316,2.6257,0.0,0.0,0.0,0.0,0.0,0.0,0.0,0.0,0.0,0.0,0.0,0.0,0.0,0.0,0.0,0.0,0.0,0.0,0.0,0.0,0.0,0.0,0.0,0.0,0.0,0.0,0.0,0.0,0.0,0.0,0.0,0.0,0.0,0.0,0.0,0.0,0.0,0.0,0.0,0.0,0.0,0.0,0.0,0.0,0.0,0.0,0.0,0.0,1.9104,0.0,0.0,0.0,0.0,0.0,0.0,0.0,0.0,0.0,0.0,0.0,0.0,0.0,0.0,0.0,0.0,0.0,0.0,0.0,0.0,0.0,0.0,0.0,0.0,0.0,0.0,0.0,0.0,0.0,0.0,0.0,0.0,0.0,0.0,0.0,0.0,0.0,0.0,0.0,0.0,0.0,0.0,0.0,0.0,0.0,0.0,0.0,0.0,0.0,0.0,0.0,0.0,0.0,0.0,0.0,0.0,0.0,0.0,0.0,2.6382,2.6148,2.6493,2.6782,2.6977,2.7139,2.7105,0.0,0.0,0.0,0.0,0.0,0.0,0.0,0.0,0.0,0.0,0.0,0.0,0.0,0.0,0.0,0.0,0.0,0.0,0.0,0.0,0.0,0.0,0.0,0.0,0.0,0.0,0.0,0.0,0.0,0.0,0.0,0.0,0.0,0.0,0.0,0.0,0.0,0.0,0.0,0.0,0.0,0.0,0.0,0.0,0.0,0.0,0.0,0.0,0.0,0.0,0.0,0.0,0.0,0.0,0.0,0.0,0.0,0.0,0.0,0.0,0.0,0.0,0.0,0.0,0.0,0.0,0.0,0.0,0.0,0.0,0.0,0.0,0.0,0.0,0.0,0.0,0.0,0.0,0.0,0.0,0.0,0.0,0.0,0.0,0.0,0.0,0.0,0.0,0.0,0.0,0.0,0.0,0.0,0.0,0.0,0.0,0.0,0.0,0.0,0.0,0.0,0.0,0.0,0.0,0.0,0.0,0.0,2.6433,2.6552,2.6553,2.6722,2.6952,2.7315,2.7824,2.791,2.7542,0.0,0.0,0.0,0.0,0.0,0.0,0.0,0.0,0.0,0.0,0.0,0.0,0.0,0.0,0.0,0.0,0.0,0.0,0.0,0.0,0.0,0.0,0.0,0.0,0.0,0.0,0.0,0.0,0.0,0.0,0.0,0.0,0.0,0.0,0.0,0.0,0.0,0.0,2.1433,2.2008,0.0,0.0,0.0,0.0,0.0,0.0,0.0,0.0,2.2561,0.0,0.0,0.0,0.0,0.0,0.0,0.0,0.0,0.0,0.0,0.0,0.0,0.0,0.0,0.0,0.0,0.0,0.0,0.0,0.0,0.0,0.0,0.0,0.0,0.0,0.0,0.0,0.0,0.0,0.0,0.0,0.0,0.0,0.0,0.0,0.0,0.0,0.0,0.0,0.0,0.0,0.0,0.0,0.0,0.0,0.0,0.0,0.0,0.0,0.0,0.0,0.0,0.0,0.0,0.0,0.0,2.5084,2.6123,2.6477,2.6054,2.6788,2.7255,2.7456,2.7861,2.8186,2.8373,0.0,0.0,0.0,0.0,0.0,0.0,0.0,0.0,0.0,0.0,0.0,0.0,0.0,0.0,0.0,0.0,0.0,0.0,0.0,0.0,0.0,0.0,0.0,0.0,0.0,0.0,0.0,0.0,0.0,0.0,0.0,0.0,0.0,0.0,0.0,0.0,0.0,0.0,0.0,2.2035,2.2349,0.0,0.0,0.0,0.0,0.0,0.0,0.0,0.0,2.2664,0.0,0.0,0.0,0.0,0.0,0.0,0.0,0.0,0.0,0.0,0.0,0.0,0.0,0.0,0.0,0.0,0.0,0.0,0.0,0.0,0.0,0.0,0.0,0.0,0.0,0.0,0.0,0.0,0.0,0.0,0.0,0.0,0.0,0.0,0.0,0.0,0.0,0.0,0.0,0.0,0.0,0.0,0.0,0.0,0.0,0.0,0.0,0.0,0.0,0.0,0.0,0.0,0.0,0.0,0.0,2.582,2.6494,2.6756,2.6634,2.7059,2.7456,2.7815,2.8079,2.8346,0.0,0.0,0.0,0.0,0.0,0.0,0.0,0.0,0.0,0.0,0.0,0.0,0.0,0.0,0.0,0.0,0.0,0.0,0.0,0.0,0.0,0.0,0.0,0.0,0.0,0.0,0.0,0.0,0.0,0.0,0.0,0.0,0.0,0.0,0.0,0.0,0.0,0.0,0.0,0.0,2.3158,2.3736,2.3736,0.0,0.0,0.0,0.0,0.0,0.0,2.4357,2.4073,0.0,0.0,0.0,0.0,0.0,0.0,0.0,0.0,0.0,0.0,0.0,0.0,0.0,0.0,0.0,0.0,0.0,0.0,0.0,0.0,0.0,0.0,0.0,0.0,0.0,0.0,0.0,0.0,0.0,0.0,0.0,0.0,0.0,0.0,0.0,0.0,0.0,0.0,0.0,0.0,0.0,0.0,0.0,0.0,0.0,0.0,0.0,0.0,0.0,0.0,0.0,0.0,0.0,0.0,0.0,2.6722,2.6977,2.7146,2.7315,2.7382,2.7649,2.8145,2.8314,2.8578,0.0,0.0,0.0,0.0,0.0,0.0,0.0,0.0,0.0,0.0,0.0,0.0,0.0,0.0,0.0,0.0,0.0,0.0,0.0,0.0,0.0,0.0,0.0,0.0,0.0,0.0,0.0,0.0,0.0,0.0,0.0,0.0,0.0,0.0,0.0,0.0,0.0,0.0,0.0,0.0,0.0,2.5044,2.5149,2.5145,0.0,0.0,0.0,0.0,2.5746,2.572,0.0,0.0,0.0,0.0,0.0,0.0,0.0,0.0,0.0,0.0,0.0,0.0,0.0,0.0,0.0,0.0,0.0,0.0,0.0,0.0,0.0,0.0,0.0,0.0,0.0,0.0,0.0,0.0,0.0,0.0,0.0,0.0,0.0,0.0,0.0,0.0,0.0,0.0,0.0,0.0,0.0,0.0,0.0,0.0,0.0,0.0,0.0,0.0,0.0,0.0,0.0,0.0,0.0,0.0,0.0,0.0,2.6952,2.718,2.7281,2.7315,2.759,2.7921,2.8254,2.8578,2.8899,0.0,0.0,0.0,0.0,0.0,0.0,0.0,0.0,0.0,0.0,0.0,0.0,0.0,0.0,0.0,0.0,0.0,0.0,0.0,0.0,0.0,0.0,0.0,0.0,0.0,0.0,0.0,0.0,0.0,0.0,0.0,0.0,0.0,0.0,0.0,0.0,0.0,0.0,0.0,0.0,0.0,2.5175,2.5667,2.5688,2.5688,0.0,0.0,2.5746,2.5767,2.5406,0.0,0.0,0.0,0.0,0.0,0.0,0.0,0.0,0.0,0.0,0.0,0.0,0.0,0.0,0.0,0.0,0.0,0.0,0.0,0.0,0.0,0.0,0.0,0.0,0.0,0.0,0.0,0.0,0.0,0.0,0.0,0.0,0.0,0.0,0.0,0.0,0.0,0.0,0.0,0.0,0.0,0.0,0.0,0.0,0.0,0.0,0.0,0.0,0.0,0.0,0.0,0.0,0.0,0.0,0.0,2.6948,2.718,2.7423,2.759,2.759,2.7894,2.8254,2.8578,2.9191,2.9476,0.0,0.0,0.0,0.0,0.0,0.0,0.0,0.0,0.0,0.0,0.0,0.0,0.0,0.0,0.0,0.0,0.0,0.0,0.0,0.0,0.0,0.0,0.0,0.0,0.0,0.0,0.0,0.0,0.0,0.0,0.0,0.0,0.0,0.0,0.0,0.0,0.0,0.0,0.0,0.0,0.0,0.0,2.6628,2.702,0.0,0.0,0.0,2.7288,2.7262,0.0,0.0,0.0,0.0,0.0,0.0,0.0,0.0,0.0,0.0,0.0,0.0,0.0,0.0,0.0,0.0,0.0,0.0,0.0,0.0,0.0,0.0,0.0,0.0,0.0,0.0,0.0,0.0,0.0,0.0,0.0,0.0,0.0,0.0,0.0,0.0,0.0,0.0,0.0,0.0,0.0,0.0,0.0,0.0,0.0,0.0,0.0,0.0,0.0,0.0,0.0,0.0,0.0,0.0,0.0,0.0,0.0,2.7516,2.7914,2.8133,2.8166,2.8437,2.8758,2.9114,2.961,0.0,0.0,0.0,0.0,0.0,0.0,0.0,0.0,0.0,0.0,0.0,0.0,0.0,0.0,0.0,0.0,0.0,0.0,0.0,0.0,0.0,0.0,0.0,0.0,0.0,0.0,0.0,2.3237,0.0,0.0,0.0,0.0,0.0,0.0,0.0,0.0,0.0,0.0,0.0,0.0,0.0,0.0,2.6452,2.7542,2.8098,2.8472,0.0,0.0,2.842,2.842,2.7785,2.6948,0.0,0.0,0.0,0.0,0.0,0.0,0.0,0.0,0.0,0.0,0.0,0.0,0.0,0.0,0.0,0.0,0.0,0.0,0.0,0.0,0.0,0.0,0.0,0.0,0.0,0.0,0.0,0.0,0.0,0.0,0.0,0.0,0.0,0.0,0.0,0.0,0.0,0.0,0.0,0.0,0.0,0.0,0.0,0.0,0.0,0.0,0.0,0.0,0.0,0.0,0.0,0.0,0.0,0.0,0.0,2.8073,2.8612,2.8979,2.9121,2.9287,2.958,2.9881,2.9636,2.9516,0.0,0.0,0.0,0.0,0.0,0.0,0.0,0.0,0.0,0.0,0.0,0.0,0.0,0.0,0.0,0.0,0.0,0.0,0.0,0.0,0.0,0.0,0.0,0.0,0.0,0.0,0.0,0.0,0.0,0.0,0.0,0.0,0.0,0.0,0.0,0.0,0.0,0.0,0.0,0.0,0.0,2.7027,2.8211,2.8394,2.8629,0.0,0.0,2.842,2.842,2.7504,2.6902,2.7255,0.0,0.0,0.0,0.0,0.0,0.0,0.0,0.0,0.0,0.0,0.0,0.0,0.0,0.0,0.0,0.0,0.0,0.0,0.0,0.0,0.0,0.0,0.0,0.0,0.0,0.0,0.0,0.0,0.0,0.0,0.0,0.0,0.0,0.0,0.0,0.0,0.0,0.0,0.0,0.0,0.0,0.0,0.0,0.0,0.0,0.0,0.0,0.0,0.0,0.0,0.0,0.0,0.0,2.894,2.9518,2.9483,2.9726,3.0119,3.0382,3.0417,3.0192,3.0522,3.054,0.0,0.0,0.0,0.0,0.0,0.0,0.0,0.0,0.0,0.0,0.0,0.0,0.0,0.0,0.0,0.0,0.0,0.0,0.0,0.0,0.0,0.0,0.0,0.0,0.0,0.0,0.0,0.0,2.5746,2.5589,2.5328,0.0,0.0,0.0,0.0,0.0,0.0,0.0,0.0,0.0,0.0,2.7497,2.8315,2.8987,0.0,0.0,2.9327,2.897,2.897,2.7968,2.7288,2.7464,2.6367,0.0,0.0,0.0,0.0,0.0,0.0,0.0,0.0,0.0,0.0,0.0,0.0,0.0,0.0,0.0,0.0,0.0,0.0,0.0,0.0,0.0,0.0,0.0,0.0,0.0,0.0,0.0,0.0,0.0,0.0,0.0,0.0,0.0,0.0,0.0,0.0,0.0,0.0,0.0,0.0,0.0,0.0,0.0,0.0,0.0,0.0,0.0,0.0,0.0,0.0,0.0,0.0,2.9889,3.0569,3.065,3.0834,3.1123,3.1354,3.1378,3.1193,3.141,3.1359,0.0,0.0,0.0,0.0,0.0,0.0,0.0,0.0,0.0,0.0,0.0,0.0,0.0,0.0,0.0,0.0,0.0,0.0,0.0,0.0,0.0,0.0,0.0,0.0,0.0,0.0,0.0,0.0,2.6602,2.6153,2.5031,0.0,0.0,0.0,0.0,0.0,0.0,0.0,0.0,0.0,0.0,2.8072,2.8804,2.9578,3.0153,3.0335,2.9771,2.931,2.931,2.8281,2.749,2.749,0.0,0.0,0.0,0.0,0.0,0.0,0.0,0.0,0.0,0.0,0.0,0.0,0.0,0.0,0.0,0.0,0.0,0.0,0.0,0.0,0.0,0.0,0.0,0.0,0.0,0.0,0.0,0.0,0.0,0.0,2.675,0.0,0.0,0.0,0.0,0.0,0.0,0.0,0.0,0.0,0.0,0.0,0.0,0.0,0.0,0.0,0.0,0.0,0.0,0.0,0.0,0.0,0.0,3.0569,3.0936,3.2076,3.2513,3.2096,3.2096,3.2444,3.3122,3.2117,3.178,3.2314,0.0,0.0,0.0,0.0,0.0,0.0,0.0,0.0,0.0,0.0,0.0,0.0,0.0,0.0,0.0,0.0,0.0,0.0,0.0,0.0,0.0,0.0,0.0,0.0,0.0,0.0,2.8106,2.7181,2.5961,0.0,0.0,0.0,0.0,0.0,0.0,0.0,0.0,0.0,0.0,2.802,2.8804,2.9865,3.0074,3.0309,3.0869,3.0043,2.931,2.931,2.8281,2.749,0.0,0.0,0.0,0.0,0.0,0.0,0.0,0.0,0.0,0.0,0.0,0.0,0.0,0.0,0.0,0.0,0.0,0.0,0.0,0.0,0.0,0.0,0.0,0.0,0.0,0.0,0.0,2.838,2.8354,0.0,0.0,0.0,0.0,0.0,0.0,0.0,0.0,0.0,0.0,0.0,3.3923,3.3269,0.0,0.0,0.0,0.0,0.0,0.0,0.0,0.0,0.0,0.0,0.0,0.0,3.2263,3.25,3.2926,3.3038,3.2912,3.2884,3.2996,3.3262,3.2904,3.2792,3.2988,0.0,0.0,0.0,0.0,0.0,0.0,0.0,0.0,0.0,0.0,0.0,0.0,0.0,0.0,0.0,0.0,0.0,0.0,0.0,0.0,0.0,0.0,0.0,0.0,0.0,2.7215,0.0,0.0,0.0,0.0,0.0,0.0,0.0,0.0,0.0,0.0,0.0,2.7445,2.802,2.8935,2.9693,3.0048,3.0451,3.0764,0.0,0.0,0.0,0.0,0.0,0.0,0.0,0.0,0.0,0.0,0.0,0.0,0.0,0.0,2.4409,2.3652,2.3396,2.3321,2.3405,0.0,0.0,0.0,0.0,0.0,0.0,0.0,0.0,0.0,0.0,0.0,0.0,0.0,0.0,2.9982,0.0,2.9083,0.0,0.0,0.0,0.0,0.0,0.0,0.0,0.0,3.3683,3.4104,3.4506,3.4076,3.4104,0.0,3.414,3.3599,0.0,0.0,0.0,0.0,0.0,0.0,0.0,0.0,3.3541,3.3944,3.3972,3.3972,3.3972,3.3972,3.4169,3.4562,3.459,3.4393,3.3972,3.3747,3.3319,0.0,0.0,0.0,0.0,0.0,0.0,0.0,0.0,0.0,0.0,0.0,0.0,0.0,0.0,0.0,0.0,0.0,0.0,0.0,0.0,0.0,0.0,0.0,2.7878,0.0,0.0,0.0,0.0,0.0,0.0,0.0,0.0,0.0,2.6889,2.7471,2.8124,2.8882,2.964,3.0231,3.0649,0.0,0.0,0.0,0.0,0.0,0.0,0.0,2.8795,2.9918,2.964,2.931,2.931,2.802,2.7027,2.7027,0.0,0.0,2.5249,2.5014,2.5097,2.5341,2.5576,2.5758,2.5908,2.6031,2.6291,0.0,0.0,0.0,0.0,0.0,0.0,0.0,0.0,3.237,3.2342,0.0,3.1045,0.0,0.0,0.0,0.0,0.0,3.3627,0.0,0.0,3.3522,3.3403,3.3459,3.3487,3.4084,3.5217,3.5245,3.5527,3.592,3.4136,0.0,0.0,0.0,0.0,0.0,0.0,3.4444,3.5189,3.5189,3.5189,3.5161,3.5161,3.5752,3.6866,3.7007,3.6483,3.5302,3.4674,3.3992,3.3382,3.2701,0.0,0.0,0.0,0.0,0.0,0.0,0.0,0.0,0.0,0.0,0.0,0.0,0.0,0.0,0.0,0.0,0.0,0.0,0.0,0.0,2.8705,0.0,0.0,0.0,0.0,0.0,0.0,0.0,0.0,0.0,0.0,2.7587,2.8124,2.8856,2.997,0.0,0.0,0.0,0.0,3.1954,3.2542,3.2111,3.1719,3.1693,3.0753,3.0048,3.0127,0.0,0.0,2.9388,2.9336,2.9231,2.9248,2.917,2.8786,2.7138,2.6824,2.6922,2.7419,2.7656,2.7901,2.8073,2.813,2.8546,3.4309,0.0,0.0,0.0,0.0,3.2426,3.2426,3.2426,3.2876,3.282,3.2398,3.2033,0.0,0.0,0.0,0.0,0.0,0.0,3.5077,3.5293,3.5742,3.5939,3.5939,3.5939,3.6107,3.6483,3.6483,3.637,3.6117,3.5957,3.5255,3.4076,0.0,0.0,0.0,0.0,3.5592,3.5836,3.5836,3.5639,3.5189,3.5189,3.578,3.695,3.7889,3.7777,3.6539,3.6304,3.5517,3.402,3.3375,0.0,0.0,0.0,0.0,0.0,0.0,0.0,0.0,0.0,0.0,0.0,0.0,0.0,0.0,0.0,0.0,0.0,0.0,0.0,3.045,3.0011,2.9487,0.0,0.0,0.0,0.0,0.0,0.0,0.0,0.0,0.0,2.8999,2.9402,2.9928,0.0,0.0,3.1156,3.2306,3.1757,3.1444,3.1954,0.0,0.0,0.0,3.0006,2.9797,3.0607,3.0607,3.054,3.0503,2.9823,2.931,2.9301,2.931,2.9222,2.9196,2.8804,2.8621,2.8786,2.8917,2.9021,2.909,2.9365,2.9631,3.6529,3.5461,3.4983,3.4562,3.4225,3.4225,3.4084,3.3888,3.4253,3.4197,3.3831,3.3607,3.3775,3.4197,3.3831,0.0,0.0,0.0,3.5977,3.6117,3.6483,3.6501,3.6314,3.6539,3.6792,3.6978,3.6978,3.6922,3.6849,3.7175,3.7017,3.6286,0.0,0.0,3.6089,3.6117,3.623,3.6416,3.623,3.6033,3.592,3.6399,3.6905,3.7344,3.8621,3.879,3.7765,3.7484,3.6726,3.5377,3.4731,3.4028,0.0,0.0,0.0,0.0,0.0,0.0,0.0,0.0,0.0,0.0,0.0,2.8493,2.9364,0.0,0.0,0.0,3.1405,3.1668,3.1601,3.0959,0.0,0.0,0.0,0.0,0.0,0.0,0.0,2.816,2.8547,2.9189,3.0286,3.0773,3.1095,3.1275,3.1522,3.1993,3.2934,0.0,3.2228,3.2777,3.2241,3.1771,3.1771,3.1339,3.1194,3.1575,3.1691,3.1653,3.1653,3.1078,3.0581,3.0372,3.0294,3.0346,3.0451,3.0189,2.9954,2.9954,3.0026,3.0135,3.0207,3.0396,3.061,3.893,3.8818,3.7636,3.7119,3.7119,3.7119,3.6849,3.6342,3.637,3.6342,3.6202,3.5695,3.6033,3.6933,3.6922,0.0,3.6978,3.7091,3.6905,3.6399,3.6455,3.6174,3.5667,3.623,3.6764,3.7288,3.7259,3.7569,3.8102,3.8131,3.8131,3.8102,3.7569,3.6978,3.6455,3.637,3.6624,3.7203,3.6708,3.6708,3.7288,3.8396,3.8705,3.8159,3.9198,3.9549,3.9015,3.8383,3.7737,3.7091,3.6473,3.563,3.4413,0.0,0.0,0.0,0.0,0.0,0.0,0.0,0.0,0.0,0.0,0.0,0.0,0.0,0.0,0.0,3.2115,0.0,3.2347,3.1865,0.0,0.0,0.0,2.9392,2.8995,2.8813,2.8845,2.9314,0.0,0.0,3.1435,0.0,3.2356,3.1967,3.2411,3.2934,3.3561,3.3535,3.3759,3.411,3.4241,3.4214,3.3849,3.3509,3.3064,3.2646,3.2672,3.262,3.262,3.2594,3.2411,3.1902,3.185,3.1693,3.1209,3.113,3.113,3.113,3.1026,3.1022,3.1119,3.1204,3.1315,3.893,3.8902,3.8593,3.848,3.8452,3.8452,3.8368,3.8283,3.8733,3.8396,3.7484,3.7861,3.7411,3.6314,3.6314,3.6595,3.7035,3.803,3.8621,3.8917,3.9367,3.9507,3.9395,3.9535,3.9676,3.9816,3.9816,3.9901,4.0041,4.0041,4.0013,4.0013,3.9873,3.9507,3.8889,3.848,3.8536,3.9114,3.9015,3.9198,3.9788,3.9648,3.9704,4.0013,3.9873,3.9704,3.9564,3.9465,3.8833,3.7737,3.7091,3.6416,3.5658,3.4618,0.0,0.0,0.0,0.0,0.0,0.0,0.0,0.0,0.0,3.0825,3.2505,0.0,3.2595,0.0,3.4421,3.4469,3.4441,3.3928,0.0,0.0,3.2402,3.1733,3.1344,3.1108,3.0976,3.0863,3.1135,3.1487,3.1895,3.257,3.3083,3.3155,3.2908,3.3064,3.4005,3.343,3.3117,3.3666,3.3509,3.3117,3.3195,3.2986,3.2934,3.2725,3.2698,3.2672,3.2698,3.2672,3.262,3.2515,3.2489,3.2437,3.2306,3.2319,3.228,3.2228,3.1601,3.1011,3.1048,3.1198,3.131,4.0266,4.0562,4.0562,4.0562,4.0477,3.938,3.893,3.893,3.9268,3.8974,3.8355,3.8733,3.8339,3.7355,3.7355,3.7524,3.7918,3.8593,3.9099,3.9436,3.9732,3.9873,3.9901,4.0154,4.0294,4.0294,4.0547,4.0716,4.0716,4.0969,4.1109,4.1109,4.139,4.1362,4.0997,4.0126,3.9845,4.0182,4.0182,4.035,4.0688,4.0631,4.0772,4.1081,4.0772,4.0603,4.0603,4.0322,3.9732,3.8805,3.8412,3.7962,3.7383,3.6136,3.5283,0.0,0.0,0.0,0.0,0.0,0.0,0.0,0.0,0.0,0.0,0.0,3.4056,0.0,3.5189,3.5189,3.5189,3.4742,3.4289,3.393,3.334,3.2751,3.2286,3.2085,3.2021,3.2272,3.2306,3.2592,3.3352,3.3828,3.4288,3.4526,3.4366,3.4345,3.4659,3.4214,3.4058,3.4607,3.4424,3.4214,3.4214,3.4214,3.4214,3.4188,3.4214,3.4214,3.4214,3.4214,3.4136,3.3901,3.3849,3.3744,3.3509,3.3247,3.3117,3.2986,3.2385,3.1705,3.1418,3.1441,3.1502,4.2177,4.2711,4.2711,4.2683,4.2514,4.0337,3.938,3.938,3.938,3.9352,3.9268,3.9099,3.9015,3.9043,3.9015,3.9015,3.9043,3.9183,3.9268,3.9268,3.9352,3.938,3.9408,3.9943,4.0126,4.0196,4.0744,4.1053,4.1081,4.1671,4.1952,4.2008,4.2542,4.2823,4.2767,4.1699,4.1137,4.1053,4.1053,4.1081,4.1165,4.1531,4.1783,4.184,4.1699,4.1643,4.1727,4.1137,4.0575,4.0041,3.9873,3.9605,3.9043,3.7878,3.7175,0.0,3.5602,0.0,0.0,0.0,0.0,0.0,0.0,0.0,0.0,3.5583,3.5639,3.5555,3.5611,3.5667,3.5667,3.5318,3.4871,3.4419,3.3963,3.3516,3.2901,3.2643,3.2797,3.3555,3.3467,3.3758,3.4857,3.5264,3.5487,3.5649,3.5835,3.5809,3.56,3.5417,3.5469,3.6044,3.6096,3.5835,3.5887,3.5992,3.5966,3.6018,3.594,3.6096,3.5966,3.5913,3.5783,3.5365,3.5077,3.4894,3.4476,3.3979,3.3692,3.3692,3.3273,3.2725,3.2084,3.1902,3.1822,4.3216,4.3329,4.3329,4.3329,4.3245,4.2289,4.1868,4.1868,4.1896,4.1587,4.1025,4.0041,3.9633,3.9662,3.9662,3.9662,3.9676,4.0659,4.1109,4.1109,4.1643,4.194,4.1896,4.2052,4.2109,4.2093,4.2683,4.2964,4.2992,4.3582,4.3863,4.3891,4.4003,4.4059,4.4059,0.0,0.0,0.0,4.2964,4.3216,4.3638,4.2851,4.2626,4.3076,4.2149,0.0,4.2345,4.1783,4.139,4.125,4.0322,0.0,0.0,0.0,0.0,0.0,0.0,0.0,0.0,0.0,0.0,0.0,3.7681,3.7636,3.6792,3.7608,3.8002,3.7456,3.7889,3.8199,3.8199,3.7795,3.7346,3.6837,3.6419,3.5897,3.5254,3.4907,3.4773,3.4775,3.4558,3.4564,3.5041,3.5264,3.5513,3.5786,3.6017,3.6279,3.6619,3.6253,3.6018,3.6096,3.6201,3.6149,3.6096,3.6149,3.6227,3.6096,3.6096,3.6149,3.6149,3.5783,3.5495,3.5365,3.4894,3.4633,3.4476,3.4319,3.4319,3.4267,3.4162,3.377,3.2751,3.2542,3.2489,4.3947,0.0,4.4256,4.4228,0.0,4.361,4.3469,4.3441,4.2823,4.2402,4.2064,4.1446,4.1209,4.1209,4.1209,4.1165,4.1193,4.1812,4.2093,4.2093,4.243,4.2598,4.2598,4.2879,4.302,4.3076,4.3666,4.3947,4.3947,4.4256,4.4425,4.4425,4.4425,4.4425,4.4425,4.4425,4.4256,4.3947,4.3947,4.4088,4.4369,4.3807,4.3638,4.3891,0.0,0.0,0.0,0.0,0.0,0.0,0.0,0.0,0.0,0.0,0.0,3.9283,3.8721,3.8283,3.8002,3.8215,3.8383,3.8383,3.8974,3.8917,3.803,3.8536,3.8761,3.8452,3.8705,3.893,3.8902,3.8573,3.8173,3.7712,3.7246,3.6801,3.621,3.5815,3.5634,3.5666,3.5446,3.5385,3.5688,3.5897,3.6126,3.6399,3.6625,3.6929,3.728,3.6933,3.6645,3.6933,3.6985,3.6985,3.6985,3.7011,3.6985,3.7011,3.6985,3.6985,3.7011,3.6776,3.6593,3.6567,3.6332,3.6123,3.6096,3.5913,3.56,3.5286,3.5025,3.458,3.3718,3.3326,3.3038,4.4565,4.4621,4.508,4.5043,4.4565,4.4453,4.4425,4.434,0.0,0.0,0.0,4.2626,4.2598,4.2598,4.2598,4.2598,4.2598,4.2598,4.2598,4.2598,4.2598,4.2598,4.2598,4.3104,4.3385,4.3526,4.4116,4.4453,4.4565,4.4678,4.4762,4.4762,4.4734,4.4734,4.4762,4.4734,4.4734,4.4734,4.4509,4.4425,4.4425,4.4425,4.4425,4.4425,4.3919,4.3666,4.3638,4.3076,4.2739,4.2739,4.2626,4.2598,4.2542,4.1587,4.1025,4.0997,4.014,3.9549,3.9577,3.9549,3.9577,3.9577,4.0027,3.9929,3.9155,3.9183,3.924,3.924,3.924,3.924,3.924,3.8963,3.8644,3.8251,3.7826,3.738,3.6875,3.6436,3.6315,3.645,3.6279,3.6202,3.6492,3.6611,3.6849,3.7062,3.7263,3.7624,3.7802,3.7456,3.7299,3.7691,3.7743,3.7848,3.7874,3.7821,3.79,3.7795,3.7848,3.79,3.79,3.7821,3.7743,3.7534,3.7665,3.7456,3.7482,3.6985,3.6698,3.6201,3.5757,3.5286,3.4816,3.4345,3.3875,4.5164,4.5164,4.5248,4.522,4.5108,4.465,4.4425,4.4369,4.3666,4.3385,4.3329,4.2823,4.2598,4.2598,4.2598,4.2598,4.2598,4.2598,4.2598,0.0,4.2598,4.2598,4.2598,4.2699,4.2992,4.3497,4.4116,4.4678,4.5212,4.5745,4.6026,4.5998,4.6026,4.6026,4.6026,4.6026,4.6026,4.5998,4.4959,4.4425,4.4425,4.4425,4.4425,4.4425,4.434,4.4284,4.4284,4.3694,4.3357,4.3357,4.2879,4.2598,4.257,4.243,4.2317,4.2317,4.2149,4.2064,4.2036,4.2109,4.2109,4.2064,4.2149,4.1474,3.9845,4.0154,4.0435,4.0435,4.0435,4.0435,4.0463,4.0249,3.9948,3.9459,3.9179,3.8737,3.8084,3.7749,3.7573,3.7402,3.7099,3.6985,3.7045,3.7092,3.7164,3.7134,3.7547,3.7675,3.7938,3.7848,3.7795,3.7874,3.79,3.79,3.7952,3.7926,3.8004,3.79,3.7978,3.8031,3.8057,3.7717,3.7456,3.722,3.7037,3.6698,3.6593,3.6305,3.641,3.6332,3.6201,3.6044,3.5887,3.5757,3.5391,4.6335,4.6392,4.6701,4.6792,4.6785,4.6195,4.5942,4.5858,4.5296,4.4818,4.4509,4.4565,4.4593,4.4593,4.4593,4.4593,4.4593,4.4593,4.4593,4.4593,4.4593,4.4593,4.4593,4.4593,4.4762,4.5043,4.5296,4.5577,4.5858,4.6167,4.6307,4.6307,4.6307,4.6307,4.6307,4.6307,4.6307,4.6279,4.538,4.4902,4.4902,4.4593,4.4425,4.4425,4.4425,4.4425,4.4425,4.4144,4.3975,4.4003,4.3722,4.3582,4.3554,4.3273,4.3076,4.3076,4.2767,4.2598,4.2598,4.2598,4.2598,4.2598,4.2598,4.2277,4.1434,4.1559,4.1699,4.1727,4.1727,4.1727,4.1727,4.1639,4.1418,4.1052,4.0721,4.0314,3.9857,3.9303,3.8929,3.8694,3.8411,3.8174,3.8031,3.8005,3.8079,3.8221,3.8459,3.8778,3.9133,3.9259,3.8919,3.8135,3.8161,3.8318,3.837,3.8632,3.8789,3.8841,3.8815,3.8815,3.8815,3.8527,3.8423,3.8397,3.8135,3.8031,3.7978,3.8004,3.7874,3.756,3.7508,3.7429,3.7194,3.709,3.6541,4.701,4.7038,4.7516,4.7712,4.7684,4.7207,4.701,4.6954,4.6616,4.6223,4.583,4.6139,4.6307,4.6307,4.6307,4.6279,4.6307,4.6307,4.6279,4.6307,4.6307,4.6307,4.6307,4.6307,4.6364,4.6476,4.6504,4.656,4.6673,4.6701,4.6701,4.6701,4.6701,4.6701,4.6701,4.6701,4.6701,4.6673,4.6083,4.5689,4.5549,4.5071,4.4818,4.4846,4.4846,4.4762,4.4621,4.4621,4.4537,4.4425,4.4425,4.4425,4.4397,4.3975,4.3694,4.3666,4.3273,4.2992,4.2992,4.3037,4.2992,4.2992,4.2992,4.2992,4.2992,4.2992,4.2851,4.2626,4.2542,4.2542,4.2514,4.2542,4.248,4.2227,4.1864,4.1443,4.1102,4.0569,4.0097,3.9764,3.9525,3.9258,3.9043,3.892,3.8994,3.9317,3.9741,4.0174,4.0563,4.0717,4.0211,3.9396,3.904,3.9102,3.9102,3.9311,3.952,3.9625,3.9573,3.952,3.952,3.9573,3.9621,3.9516,3.9568,3.9437,3.9568,3.952,3.9333,3.8914,3.8903,3.8851,3.8602,3.8339,3.7801,4.642,4.6392,4.6532,4.6448,4.6532,4.6448,4.642,4.6476,4.6897,4.7094,4.6954,4.6504,4.6335,4.6307,4.6335,4.6364,4.6364,4.6307,4.6335,4.6335,4.6307,4.6307,4.6364,4.6335,4.6588,4.7066,4.7122,4.7403,4.7774,4.7881,4.7887,4.7965,4.7965,4.7909,4.7887,4.7909,4.7937,4.7937,4.7347,4.6757,4.6251,4.6139,4.6139,4.6139,4.6111,4.5858,4.5268,4.5192,4.4939,4.4481,4.4453,4.4425,4.4425,4.434,4.4312,4.4312,4.4256,4.4256,4.4228,4.4256,4.42,4.4256,4.42,4.4172,4.42,4.42,4.375,4.2935,4.2626,4.2683,4.2598,4.2654,4.2593,4.244,4.2248,4.1882,4.1423,4.1082,4.0756,4.0002,4.0245,3.9864,3.9812,3.9618,3.9625,4.0192,4.0906,4.1392,4.162,4.1845,4.1993,4.1572,4.0961,4.0327,4.0275,3.986,3.9935,3.983,3.9651,3.9804,3.9904,3.9852,3.9673,4.0276,3.9948,3.9926,3.997,3.979,3.9773,3.9991,4.0008,3.9949,4.0053,3.9808,3.9057,4.7375,4.7375,4.7375,4.7375,4.7347,4.701,4.6841,4.6869,4.7094,4.7207,4.7235,4.7319,4.7375,4.7375,4.7375,4.7375,4.7375,4.7375,4.7375,4.7375,4.7375,4.7375,4.7375,4.7375,4.7516,4.774,4.774,4.7881,4.8027,4.8083,4.8083,4.8083,4.8083,4.8083,4.8083,4.8083,4.8083,4.8106,4.7881,4.7628,4.7319,4.6673,4.6307,4.6307,4.6307,4.6195,4.5942,4.5886,4.5774,4.5521,4.5155,4.4959,4.4959,4.4621,4.4425,4.4425,4.4425,4.4425,4.4425,4.4425,4.4425,4.4425,4.4425,4.4425,4.4425,4.4425,4.4172,4.3778,4.3666,4.3666,4.3638,4.3638,4.362,4.35,4.3361,4.324,4.3421,4.3088,4.284,4.2775,4.261,4.2385,4.2189,4.2013,4.2018,4.2154,4.2543,4.2799,4.2953,4.3054,4.3131,4.3078,4.2451,4.2007,4.1875,4.1796,4.1535,4.1482,4.132,4.1081,4.098,4.1081,4.113,4.1201,4.1051,4.1051,4.128,4.1179,4.113,4.1223,4.1276,4.1324,4.1566,4.1453,4.1111,4.8612,4.8612,4.8612,4.8612,4.8583,4.8162,4.7853,4.7712,4.7712,4.7628,4.7516,4.7937,4.8083,4.8083,4.8083,4.8083,4.8083,4.8083,4.8083,4.8083,4.8083,4.8083,4.8083,4.8083,4.8083,4.8083,4.8055,4.8083,4.8083,4.8083,4.8083,4.8083,4.8083,4.8083,4.8083,4.8083,4.8083,4.8083,4.8083,4.8083,4.7993,4.7263,4.6785,4.6785,4.6785,4.6729,4.6532,4.656,4.6448,4.6279,4.583,4.5605,4.5529,4.5183,4.4846,4.465,4.4481,4.4425,4.4425,4.4425,4.4425,4.4425,4.4425,4.4425,4.4425,4.4425,4.4425,4.4397,4.4425,4.4369,4.4425,4.4425,4.4425,4.435,4.4237,4.4291,4.453,4.4381,4.4096,4.4293,4.3774,4.3875,4.36,4.3421,4.3322,4.3273,4.3664,4.4055,4.3977,4.4001,4.4154,4.4157,4.3782,4.3409,4.3098,4.2625,4.2785,4.2678,4.2225,4.1985,4.2164,4.2164,4.236,4.2162,4.2306,4.2333,4.2318,4.235,4.2333,4.2409,4.2431,4.2501,4.2662,4.2771,4.2834,4.9928,4.99,4.99,4.9872,4.99,4.9816,4.9454,4.8841,4.8869,4.8588,4.8162,4.8139,4.8162,4.8167,4.8246,4.8134,4.8083,4.8083,4.8111,4.8139,4.8111,4.8083,4.8083,4.8083,4.8162,4.8302,4.8302,4.8195,4.8167,4.8139,4.8083,4.8162,4.8195,4.8139,4.8218,4.8223,4.8162,4.8274,4.8223,4.8139,4.8139,4.8055,4.805,4.7943,4.7943,4.7684,4.7263,4.7178,4.6926,4.6335,4.6279,4.6251,4.6251,4.6195,4.5858,4.5276,4.4762,4.4453,4.4509,4.4537,4.4509,4.4481,4.4509,4.4453,4.4509,4.4453,4.4425,4.4425,4.4425,4.4425,4.4425,4.4425,4.4425,4.4425,4.4378,4.4312,4.4132,4.4224,4.382,4.365,4.367,4.3536,4.2856,4.2828,4.3205,4.3416,4.3936,4.4459,4.428,4.461,4.4784,4.4779,4.4725,4.452,4.3329,4.2981,4.2556,4.2525,4.2753,4.2289,4.2387,4.2533,4.2852,4.3018,4.3018,4.3067,4.3115,4.3163,4.3115,4.3163,4.3328,4.3471,4.3326,4.3729,4.3629,4.9595,5.0013,5.0013,5.0013,5.0013,5.0013,4.9872,4.9651,4.9623,4.9511,4.9342,4.9286,4.9314,4.9286,4.9286,4.8864,4.8111,4.8083,4.828,4.8616,4.8644,4.8921,4.9286,4.9314,4.9286,4.9286,4.9314,4.9286,4.9286,4.9286,4.9286,4.9314,4.9286,4.9314,4.9286,4.9286,4.9286,4.9286,4.9286,4.9314,4.9258,4.9286,4.9117,4.8673,4.8331,4.8021,4.7797,4.7797,4.7684,4.7459,4.7094,4.6869,4.6841,4.6504,4.6195,4.597,4.5745,4.5605,4.5633,4.5633,4.5605,4.5577,4.5212,4.4967,4.4931,4.465,4.4425,4.4425,4.4425,4.4425,4.4425,4.4425,4.4425,4.4425,4.4425,4.4518,4.4732,4.4797,4.4841,4.4837,4.4753,4.4508,4.4102,4.4353,4.4489,4.4366,4.4629,4.4648,4.4474,4.4519,4.4513,4.4221,4.4159,4.4166,4.449,4.3977,4.3612,4.3551,4.347,4.3272,4.3238,4.3492,4.3807,4.4014,4.3931,4.4054,4.4232,4.4204,4.4101,4.4121,4.4283,4.4106,4.3817,4.3975,4.3776,5.0185,5.0575,5.0604,5.0604,5.0604,5.0604,5.0491,5.0322,5.0294,5.0182,5.0041,5.0013,5.0013,5.0013,5.0013,4.9539,4.8752,4.8724,4.8949,4.9314,4.9342,4.9567,4.9928,5.0013,5.0013,4.9985,5.0013,5.0013,5.0013,5.0013,5.0013,4.9985,5.0013,5.0013,5.0013,5.0013,5.0013,5.0013,5.0013,4.9985,5.0013,5.0013,4.9764,4.9342,4.8921,4.8499,4.8111,4.8083,4.8083,4.8027,4.7712,4.7516,4.7459,4.6926,4.6588,4.6588,4.6392,4.6307,4.6307,4.6307,4.6279,4.6279,4.5914,4.5633,4.5605,4.5268,4.5071,4.5015,4.5015,4.5015,4.4959,4.4846,4.4621,4.4481,4.4425,4.4565,4.4959,4.4967,4.5088,4.512,4.4962,4.4802,4.4737,4.4731,4.4655,4.4562,4.4639,4.4594,4.4263,4.4394,4.4422,4.422,4.4538,4.5036,4.5461,4.5468,4.515,4.499,4.4803,4.449,4.4439,4.4637,4.4808,4.4959,4.5081,4.5176,4.527,4.527,4.5242,4.5214,4.5082,4.4987,4.4588,4.414,4.3877,5.1731,5.1674,5.1759,5.1674,5.1618,5.1618,5.1393,5.0916,5.0859,5.066,5.0294,5.0125,5.021,5.0125,5.0238,5.0069,5.0041,5.0013,4.9985,5.0013,5.0013,5.0041,5.0182,5.021,5.021,5.021,5.0097,5.0097,5.0182,5.021,5.0182,5.0097,5.0182,5.0238,5.0069,5.021,5.0125,5.0182,5.021,5.0125,5.0041,5.0154,5.0154,5.0041,4.9957,4.937,4.8223,4.8167,4.8167,4.8139,4.8106,4.8055,4.7943,4.7516,4.7207,4.715,4.6701,4.6392,4.6392,4.6448,4.6504,4.6476,4.6364,4.6307,4.6279,4.6167,4.6111,4.6083,4.6111,4.6167,4.6055,4.5661,4.5099,4.4537,4.4481,4.4453,4.4481,4.4453,4.4453,4.4443,4.4311,4.4029,4.3982,4.4137,4.4152,4.4207,4.4303,4.4399,4.4351,4.4809,4.5112,4.536,4.5653,4.6079,4.6642,4.7052,4.6764,4.6494,4.6208,4.5954,4.5938,4.6081,4.6168,4.6291,4.6358,4.65,4.65,4.65,4.6633,4.6604,4.6299,4.5888,4.5441,4.4915,4.4165,5.1787,5.1787,5.1787,5.1787,5.1787,5.1787,5.1646,5.1534,5.1506,5.1393,5.1225,5.1225,5.1225,5.1225,5.1225,5.1197,5.1225,5.1197,5.1,5.0688,5.0632,5.0857,5.1112,5.1197,5.1197,5.1225,5.1225,5.1197,5.1169,5.1197,5.1197,5.1225,5.1197,5.1225,5.1169,5.1197,5.1225,5.1225,5.1225,5.1225,5.1225,5.1197,5.1028,5.0688,5.066,5.0238,4.9478,4.8977,4.8729,4.8701,4.8359,4.8083,4.8027,4.7965,4.7853,4.7825,4.7684,4.7544,4.7544,4.7544,4.7516,4.7459,4.7178,4.6954,4.6869,4.656,4.6364,4.6335,4.6307,4.6307,4.6251,4.6139,4.5745,4.5052,4.4678,4.4509,4.4593,4.4509,4.4425,4.4425,4.4331,4.4452,4.4788,4.4777,4.4897,4.5232,4.5412,4.5433,4.5709,4.5794,4.626,4.6528,4.686,4.7241,4.7808,4.8173,4.8105,4.7855,4.7566,4.7327,4.7338,4.7453,4.7492,4.7606,4.7672,4.772,4.7738,4.7767,4.7901,4.788,4.7608,4.7032,4.6324,4.5668,4.4982,5.1787,5.1787,5.1787,5.1787,5.1787,5.1787,5.1787,5.1787,5.1787,5.1787,5.1759,5.1759,5.1787,5.1787,5.1787,5.1787,5.1787,5.1787,5.159,5.1253,5.1197,5.145,5.1759,5.1787,5.1787,5.1787,5.1787,5.1787,5.1787,5.1787,5.1787,5.1759,5.1787,5.1759,5.1787,5.1787,5.1787,5.1787,5.1759,5.1787,5.1787,5.1787,5.159,5.1281,5.1225,5.1028,5.0688,5.0045,4.9595,4.9342,4.8808,4.8387,4.8162,4.8083,4.8083,4.8083,4.8083,4.8055,4.8083,4.7999,4.8083,4.7999,4.7718,4.7572,4.7488,4.715,4.6982,4.6982,4.701,4.6982,4.6982,4.6982,4.6785,4.642,4.5886,4.5493,4.5464,4.5436,4.5352,4.5296,4.5155,4.5324,4.5549,4.5689,4.583,4.6223,4.6279,4.6397,4.6648,4.6886,4.7165,4.7577,4.8057,4.8461,4.8934,4.9223,4.9436,4.9175,4.8856,4.8644,4.8606,4.8654,4.8721,4.897,4.9084,4.9143,4.9143,4.9055,4.9103,4.8952,4.8764,4.8223,4.7519,4.6682,4.5933,5.1787,5.1787,5.1787,5.1787,5.1787,5.1787,5.1787,5.1787,5.1787,5.1787,5.1787,5.1787,5.1787,5.1787,5.1787,5.1787,5.1787,5.1787,5.1759,5.1702,5.1702,5.1759,5.1787,5.1787,5.1787,5.1787,5.1787,5.1787,5.1787,5.1787,5.1787,5.1787,5.1787,5.1787,5.1787,5.1787,5.1787,5.1787,5.1787,5.1787,5.1787,5.1787,5.1759,5.1731,5.1702,5.1674,5.1534,5.1084,5.055,5.0041,4.937,4.8864,4.8387,4.8167,4.8195,4.8195,4.8111,4.8083,4.8083,4.8083,4.8083,4.8055,4.8027,4.8083,4.7971,4.7887,4.783,4.7859,4.7887,4.7943,4.7993,4.7965,4.7943,4.8134,4.7459,4.7122,4.7207,4.715,4.6841,4.6476,4.6392,4.6392,4.642,4.642,4.6392,4.6532,4.6609,4.6861,4.7113,4.7572,4.7918,4.8411,4.8924,4.9185,4.9504,4.9678,4.9833,4.9852,4.9668,4.9562,4.9533,4.961,4.9735,4.9938,5.014,5.0305,5.0305,5.0004,4.9993,4.9999,4.9722,4.9309,4.8706,4.794,4.72,5.1787,5.1787,5.1787,5.1787,5.1787,5.1787,5.1787,5.1787,5.1787,5.1787,5.1787,5.1787,5.1787,5.1787,5.1787,5.1787,5.1787,5.1787,5.1787,5.1787,5.1787,5.1787,5.1787,5.1787,5.1787,5.1787,5.1731,5.1787,5.1787,5.1702,5.1731,5.1787,5.1731,5.1759,5.1787,5.1787,5.1787,5.1787,5.1787,5.1787,5.1787,5.1787,5.1787,5.1787,5.1787,5.1787,5.1787,5.1646,5.1,5.0097,4.9872,4.9679,4.9398,4.9033,4.8757,4.8701,4.8336,4.8083,4.8111,4.8083,4.8083,4.8083,4.8083,4.8083,4.8083,4.8083,4.8083,4.8083,4.8083,4.8083,4.8083,4.8111,4.8499,4.9174,4.8583,4.7993,4.7965,4.783,4.7746,4.7628,4.7263,4.7291,4.7459,4.7319,4.7178,4.7488,4.7666,4.7886,4.8027,4.8281,4.8628,4.9086,4.9553,4.9757,4.996,5.0057,5.0202,5.0298,5.0268,5.021,5.021,5.021,5.0287,5.0394,5.043,5.0585,5.0519,5.0335,5.0567,5.071,5.052,5.0122,4.9965,4.9401,4.8745,5.1787,5.1787,5.1787,5.1787,5.1787,5.1787,5.1787,5.1787,5.1787,5.1787,5.1787,5.1787,5.1787,5.1787,5.1787,5.1787,5.1787,5.1787,5.1787,5.1787,5.1787,5.1787,5.1787,5.1787,5.1787,5.1731,5.1506,5.1393,5.1309,5.1169,5.114,5.1337,5.1393,5.1506,5.1787,5.1787,5.1787,5.1787,5.1787,5.1787,5.1787,5.1787,5.1787,5.1787,5.1787,5.1787,5.1787,5.1787,5.1309,5.0604,5.0379,5.0294,4.9985,4.9651,4.9426,4.9398,4.8864,4.8476,4.8392,4.8252,4.8083,4.8083,4.8083,4.8083,4.8083,4.8083,4.8083,4.8083,4.8083,4.8083,4.8111,4.828,4.8949,4.9651,4.9539,4.9258,4.9258,4.9314,4.9145,4.8921,4.8612,4.8443,4.8836,4.8331,4.8218,4.8302,4.8235,4.8481,4.8696,4.9058,4.9305,4.9551,4.9844,4.999,5.0183,5.0327,5.0519,5.0662,5.071,5.071,5.0662,5.0692,5.0787,5.0787,5.0787,5.0787,5.0739,5.071,5.0852,5.0964,5.0964,5.0922,5.0657,5.0345,4.9747,5.1787,5.1787,5.1787,5.1787,5.1787,5.1787,5.1787,5.1787,5.1787,5.1787,5.1787,5.1787,5.1787,5.1787,5.1787,5.1787,5.1787,5.1787,5.1787,5.1787,5.1787,5.1787,5.1787,5.1618,5.159,5.1506,5.1056,5.0857,5.0691,5.0322,5.0379,5.0772,5.0913,5.1169,5.1534,5.1702,5.1787,5.1787,5.1787,5.1787,5.1787,5.1787,5.1787,5.1787,5.1787,5.1787,5.1787,5.1759,5.1506,5.1,5.0972,5.0772,5.0322,5.021,5.0097,5.0013,4.9511,4.9094,4.9037,4.8724,4.8331,4.828,4.8223,4.8111,4.8162,4.8083,4.8083,4.8083,4.8083,4.8083,4.819,4.8532,4.9061,4.9623,5.0185,5.0578,5.0857,5.0888,5.08,5.0266,5.0125,4.9985,4.9844,4.9426,4.8841,4.8308,4.8325,4.8465,4.8681,4.893,4.9227,4.962,4.9892,5.0135,5.0375,5.0614,5.0805,5.0994,5.1041,5.1041,5.0947,5.0994,5.1088,5.1135,5.1041,5.1041,5.1088,5.1135,5.1135,5.1135,5.1135,5.1135,5.1139,5.0734,5.0226,5.1787,5.1787,5.1787,5.1787,5.1787,5.1787,5.1787,5.1787,5.1787,5.1787,5.1787,5.1787,5.1787,5.1787,5.1787,5.1787,5.1787,5.1787,5.1787,5.1787,5.1787,5.1787,5.1646,5.1281,5.1056,5.0944,5.0519,5.021,5.0125,5.0041,5.0069,5.021,5.0522,5.0944,5.1112,5.1534,5.1787,5.1787,5.1787,5.1787,5.1787,5.1787,5.1787,5.1787,5.1787,5.1787,5.1787,5.1787,5.1702,5.1618,5.1562,5.1421,5.1225,5.0888,5.0744,5.0604,5.0154,4.9764,4.9707,4.9567,4.9342,4.8893,4.8785,4.8588,4.8111,4.8162,4.8111,4.8083,4.8083,4.8083,4.8111,4.8167,4.8588,4.9145,4.9426,4.9707,5.0185,5.0944,5.1253,5.1112,5.0519,5.0013,4.9957,4.9005,4.8583,4.8336,4.8348,4.8387,4.861,4.8831,4.9227,4.962,4.9766,5.0038,5.0423,5.0662,5.0947,5.1135,5.1182,5.1229,5.1135,5.1135,5.1182,5.1229,5.1182,5.1229,5.1229,5.1229,5.1182,5.1182,5.1229,5.1229,5.1169,5.096,5.0764,5.1787,5.1787,5.1787,5.1787,5.1787,5.1787,5.1787,5.1787,5.1787,5.1787,5.1787,5.1787,5.1787,5.1787,5.1787,5.1787,5.1787,5.1787,5.1787,5.1702,5.1534,5.1365,5.1112,5.0578,5.0213,5.0578,4.9932,4.9567,4.9483,4.9286,4.9202,4.9511,4.9876,5.0354,5.0803,5.1225,5.1506,5.1731,5.1787,5.1787,5.1787,5.1787,5.1787,5.1787,5.1787,5.1787,5.1787,5.1787,5.1787,5.1787,5.1787,5.1787,5.1759,5.1478,5.1337,5.1197,5.0772,5.0463,5.0407,5.0154,4.9844,4.9511,4.9483,4.9117,4.8724,4.8555,4.8336,4.8167,4.8083,4.8083,4.8083,4.8083,4.8308,4.8504,4.8841,4.9174,4.9595,5.0354,5.0916,5.0885,5.0322,5.0069,4.9647,4.8864,4.8668,4.8588,4.8246,4.8308,4.871,4.893,4.9227,4.9522,4.962,4.9941,5.0405,5.0739,5.0994,5.1135,5.1182,5.1229,5.1182,5.1182,5.1229,5.1229,5.1229,5.1229,5.1229,5.1229,5.1229,5.1229,5.1229,5.1229,5.1199,5.1079,5.102,5.1787,5.1787,5.1787,5.1787,5.1787,5.1787,5.1787,5.1787,5.1787,5.1787,5.1787,5.1787,5.1731,5.1646,5.159,5.1646,5.1618,5.1618,5.159,5.1731,5.1393,5.114,5.0775,5.0101,4.9735,5.041,4.9454,4.8949,4.8752,4.842,4.8555,4.8813,4.9009,4.9707,5.0522,5.0888,5.1225,5.1702,5.1787,5.1787,5.1787,5.1787,5.1787,5.1787,5.1787,5.1787,5.1787,5.1787,5.1787,5.1787,5.1787,5.1787,5.1787,5.1787,5.1787,5.1759,5.1253,5.1056,5.0944,5.0688,5.0379,5.021,5.0154,4.9792,4.937,4.9145,4.8841,4.8448,4.8246,4.8083,4.8083,4.8083,4.8083,4.8195,4.8588,4.8813,4.8953,4.9398,4.9679,5.0097,4.9876,4.9651,4.9483,4.9005,4.8977,4.8836,4.8438,4.8308,4.866,4.8951,4.9219,4.9213,4.9272,4.9533,4.9993,5.0745,5.1028,5.1016,5.1109,5.1109,5.1139,5.1229,5.1229,5.1229,5.1229,5.1229,5.1229,5.1229,5.1229,5.1229,5.1229,5.1229,5.1229,5.1229,5.1109,5.1787,5.1787,5.1787,5.1787,5.1787,5.1787,5.1787,5.1787,5.1759,5.1787,5.1759,5.1759,5.1421,5.114,5.1028,5.1028,5.1169,5.1253,5.1393,5.1702,5.1534,5.1309,5.0747,5.0101,4.9707,4.9174,4.8752,4.8527,4.8331,4.819,4.8167,4.8387,4.8701,4.9426,5.0045,5.066,5.1084,5.159,5.1731,5.1787,5.1787,5.1787,5.1787,5.1787,5.1787,5.1787,5.1787,5.1787,5.1787,5.1787,5.1787,5.1787,5.1787,5.1787,5.1787,5.1731,5.1646,5.1534,5.1478,5.1478,5.1169,5.0888,5.0772,5.0491,4.9988,4.9844,4.9511,4.9005,4.8499,4.819,4.8083,4.8167,4.8083,4.819,4.8218,4.8331,4.8308,4.8527,4.8949,4.9511,4.9398,4.9174,4.9005,4.8836,4.864,4.855,4.8455,4.8459,4.876,4.9022,4.9153,4.901,4.8808,4.9114,4.9569,5.0436,5.1003,5.0853,5.087,5.087,5.093,5.1169,5.1199,5.087,5.102,5.1229,5.1229,5.1229,5.1109,5.1003,5.1109,5.1169,5.093,5.069,5.09,5.1787,5.1787,5.1787,5.1787,5.1787,5.1787,5.1787,5.1731,5.145,5.1309,5.1197,5.1,5.0744,5.0575,5.0829,5.1028,5.1253,5.1365,5.1534,5.1731,5.145,5.1225,5.0857,5.0294,4.9848,4.9511,4.9202,4.8668,4.8139,4.8083,4.8111,4.8139,4.8392,4.8864,4.9483,5.0073,5.0719,5.1197,5.1562,5.1759,5.1759,5.1759,5.1759,5.1787,5.1787,5.1787,5.1787,5.1787,5.1787,5.1787,5.1787,5.1787,5.1787,5.1787,5.1787,5.1787,5.1787,5.1787,5.1787,5.1787,5.1618,5.1421,5.1337,5.1056,5.0688,5.0435,5.0129,4.9623,4.9342,4.8921,4.8616,4.8612,4.8392,4.8139,4.8083,4.8111,4.8083,4.8083,4.8555,4.9033,4.878,4.856,4.8476,4.8308,4.8139,4.8235,4.8358,4.861,4.8831,4.9071,4.9251,4.9127,4.8894,4.8905,4.9203,4.9859,5.0541,5.0481,5.0451,5.0451,5.0361,5.0421,5.0301,5.0032,5.0391,5.093,5.1169,5.1139,5.0943,5.0734,5.069,5.0541,5.0301,5.0212,5.0361,5.1787,5.1787,5.1787,5.1787,5.1759,5.1646,5.159,5.1506,5.0944,5.0744,5.0688,5.0294,5.0069,5.0125,5.0519,5.1,5.1562,5.1562,5.159,5.1674,5.1393,5.1084,5.08,5.0491,5.0125,4.99,4.9872,4.9454,4.878,4.842,4.8331,4.8331,4.8223,4.8364,4.9037,4.9567,5.0129,5.0716,5.114,5.145,5.1562,5.159,5.1674,5.1759,5.1787,5.1787,5.1787,5.1787,5.1787,5.1787,5.1787,5.1787,5.1787,5.1787,5.1787,5.1787,5.1787,5.1787,5.1787,5.1787,5.1759,5.1674,5.1759,5.1478,5.1169,5.0888,5.0688,5.0294,4.9985,4.9707,4.9286,4.923,4.8869,4.8476,4.8308,4.8274,4.8111,4.8083,4.8083,4.8302,4.8083,4.8111,4.8195,4.8195,4.8083,4.8207,4.8409,4.866,4.893,4.9227,4.9377,4.9253,4.9114,4.884,4.8959,4.9145,4.9657,4.9763,4.9733,4.9733,4.9629,4.9509,4.9449,4.9464,4.9912,5.0421,5.075,5.081,5.0391,5.0122,5.0062,4.9972,4.9793,4.9719,4.9703,5.1787,5.1787,5.1759,5.1787,5.1674,5.1197,5.0972,5.0888,5.0379,5.0125,5.0125,5.0041,4.9957,5.0125,5.0154,5.0547,5.0916,5.1169,5.1421,5.1702,5.1618,5.1337,5.0972,5.0913,5.0575,5.035,5.0182,4.9957,4.9623,4.923,4.8897,4.8813,4.8583,4.8443,4.8953,4.9314,4.9454,5.0041,5.0238,5.0547,5.0941,5.0972,5.1253,5.159,5.1731,5.1731,5.1759,5.1787,5.1787,5.1787,5.1787,5.1787,5.1787,5.1787,5.1787,5.1787,5.1787,5.1787,5.1787,5.1787,5.1787,5.1787,5.1787,5.1731,5.1534,5.1197,5.0916,5.0857,5.0435,5.0097,4.9932,4.9928,4.9539,4.9174,4.8813,4.8583,4.8359,4.8083,4.8083,4.8083,4.8083,4.8083,4.8111,4.8111,4.8134,4.8258,4.8459,4.871,4.898,4.9326,4.9291,4.9136,4.8945,4.8698,4.8351,4.8655,4.8746,4.9,4.9,4.9,4.888,4.8745,4.906,4.9164,4.9494,4.9523,4.9523,4.9494,4.9434,4.9434,4.9374,4.9374,4.9389,4.9269,4.903,5.1787,5.1759,5.1393,5.1253,5.1197,5.066,5.0407,5.0266,4.9707,4.9454,4.9426,4.9398,4.9816,5.0379,5.0519,5.0885,5.1309,5.1365,5.1506,5.1702,5.1759,5.1646,5.1478,5.1393,5.1169,5.1,5.0972,5.1056,5.0719,5.0073,4.9567,4.9511,4.9286,4.9061,4.9122,4.9398,4.9454,4.9595,4.9764,5.0125,5.0322,5.0435,5.0716,5.1225,5.1281,5.145,5.1674,5.1787,5.1787,5.1787,5.1787,5.1787,5.1787,5.1787,5.1787,5.1787,5.1787,5.1787,5.1787,5.1787,5.1787,5.1787,5.1787,5.1759,5.1731,5.1562,5.1365,5.1393,5.1169,5.0913,5.0604,5.0547,5.0182,4.9735,4.9398,4.8953,4.8588,4.8223,4.8083,4.8083,4.8083,4.8083,4.8083,4.8083,4.8134,4.8258,4.8509,4.881,4.9079,4.9375,4.9175,4.8808,4.8606,4.8391,4.8042,4.7911,4.7939,4.8057,4.8027,4.8027,4.8027,4.8087,4.8356,4.8297,4.8207,4.8207,4.8267,4.8656,4.9045,4.8895,4.8716,4.8626,4.8536,4.8237,4.8027,5.1562,5.1506,5.1056,5.0857,5.066,4.9988,4.9735,4.9651,4.9089,4.8757,4.8869,4.9145,4.9904,5.0719,5.1028,5.1337,5.1731,5.1787,5.1787,5.1787,5.1787,5.1759,5.1702,5.1731,5.1731,5.1787,5.159,5.1618,5.1393,5.0944,5.0435,5.0238,4.9957,4.9679,4.9511,4.9595,4.9679,4.9174,4.9286,4.9483,4.9679,4.9735,5.0101,5.0438,5.0772,5.0916,5.145,5.1534,5.1506,5.1787,5.1787,5.1787,5.1787,5.1787,5.1787,5.1787,5.1787,5.1787,5.1787,5.1787,5.1787,5.1787,5.1787,5.1787,5.1787,5.1787,5.1759,5.1702,5.1674,5.1421,5.1225,5.1112,5.0775,5.0326,4.9876,4.9454,4.9009,4.8616,4.8252,4.8083,4.8083,4.8083,4.8083,4.8083,4.8185,4.8258,4.8559,4.8909,4.9178,4.9473,4.9417,4.9126,4.8916,4.8673,4.8281,4.7897,4.7627,4.7339,4.7309,4.7369,4.7549,4.7549,4.7638,4.7459,4.7309,4.7459,4.7788,4.8267,4.8656,4.8297,4.7997,4.7818,4.7608,4.7369,4.7339,5.0916,5.0916,5.0859,5.0547,5.0013,4.937,4.9037,4.9061,4.842,4.8302,4.8612,4.937,5.0322,5.0888,5.1393,5.1674,5.1787,5.1787,5.1787,5.1787,5.1787,5.1787,5.1787,5.1787,5.1787,5.1787,5.1787,5.1787,5.1759,5.159,5.1169,5.0913,5.0547,5.0154,4.9928,4.9957,4.9707,4.9202,4.9005,4.8893,4.9089,4.9258,4.9483,4.9928,5.0125,5.035,5.0859,5.0916,5.1169,5.1618,5.1646,5.1759,5.1759,5.1759,5.1787,5.1787,5.1787,5.1787,5.1787,5.1787,5.1787,5.1787,5.1787,5.1787,5.1787,5.1787,5.1787,5.1787,5.1787,5.1759,5.1674,5.1646,5.1281,5.0944,5.0466,5.0045,4.9543,4.9009,4.8616,4.8223,4.8083,4.8083,4.8083,4.8083,4.8207,4.8358,4.871,4.9108,4.9404,4.962,4.9795,4.9698,4.9468,4.9238,4.8846,4.8432,4.7894,4.7489,4.7309,4.7309,4.7369,4.7309,4.7309,4.7309,4.7309,4.7309,4.7339,4.7728,4.7908,4.7549,4.7339,4.7429,4.7429,4.7339,4.7309,5.0073,4.9764,4.9764,4.9595,4.9342,4.8673,4.842,4.8392,4.8167,4.8612,4.9286,5.0182,5.0913,5.1365,5.159,5.1787,5.1787,5.1787,5.1787,5.1787,5.1787,5.1787,5.1787,5.1787,5.1787,5.1787,5.1787,5.1787,5.1787,5.1787,5.1702,5.1365,5.1084,5.0885,5.066,5.0266,4.9848,4.9679,4.9342,4.9286,4.8897,4.8981,4.9145,4.9342,4.9398,4.9707,5.0266,5.035,5.0744,5.1056,5.1197,5.1393,5.1674,5.1702,5.1759,5.1759,5.1787,5.1787,5.1787,5.1787,5.1787,5.1787,5.1787,5.1787,5.1787,5.1787,5.1787,5.1787,5.1787,5.1787,5.1787,5.1759,5.1618,5.1393,5.1056,5.0635,5.0157,4.9623,4.9009,4.8588,4.8252,4.8083,4.8083,4.8083,4.8258,4.8459,4.8859,4.9256,4.9551,4.9795,4.9941,5.0047,4.9846,4.955,4.9129,4.8626,4.8087,4.7698,4.7369,4.7309,4.7309,4.7309,4.7309,4.7309,4.7309,4.7309,4.7309,4.7309,4.7309,4.7309,4.7309,4.7339,4.7309,4.7309,4.7309,4.9426,4.8981,4.8785,4.8729,4.8673,4.8252,4.8083,4.8083,4.8083,4.8808,5.0041,5.066,5.1197,5.1646,5.1787,5.1787,5.1787,5.1787,5.1787,5.1787,5.1787,5.1787,5.1787,5.1787,5.1787,5.1787,5.1787,5.1787,5.1787,5.1787,5.1731,5.1731,5.1759,5.145,5.114,5.0632,5.0294,5.0266,5.0041,4.9872,4.937,4.9342,4.9342,4.9426,4.9426,4.9595,4.9985,5.0097,5.0238,5.0519,5.0716,5.0916,5.1253,5.1534,5.1618,5.1702,5.1787,5.1787,5.1787,5.1787,5.1787,5.1787,5.1787,5.1787,5.1787,5.1787,5.1787,5.1787,5.1787,5.1787,5.1787,5.1787,5.1787,5.1562,5.1478,5.1084,5.0663,5.0185,4.9567,4.8981,4.8644,4.8387,4.8207,4.8258,4.8509,4.8731,4.9128,4.9424,4.9571,4.9844,5.0038,5.0114,5.0147,4.9791,4.9383,4.8999,4.8566,4.7938,4.7608,4.7369,4.7309,4.7309,4.7309,4.7309,4.7309,4.7309,4.7309,4.7309,4.7309,4.7309,4.7309,4.7309,4.7309,4.7309,4.7309,4.8981,4.8925,4.8364,4.8139,4.8218,4.8083,4.8083,4.8111,4.8274,4.8921,5.0041,5.0688,5.1225,5.1674,5.1787,5.1787,5.1787,5.1787,5.1787,5.1787,5.1787,5.1787,5.1787,5.1787,5.1787,5.1787,5.1787,5.1787,5.1787,5.1787,5.1787,5.1787,5.1787,5.1759,5.1702,5.1169,5.0941,5.0829,5.0379,5.0182,5.0013,4.9985,4.9932,4.9792,4.9764,4.99,4.9957,5.0013,5.0154,5.035,5.0238,5.0519,5.0944,5.1028,5.1225,5.1618,5.1731,5.1787,5.1787,5.1787,5.1787,5.1787,5.1787,5.1787,5.1787,5.1787,5.1787,5.1787,5.1787,5.1787,5.1787,5.1787,5.1787,5.1759,5.1646,5.1506,5.1084,5.0663,5.0045,4.9567,4.9122,4.8808,4.859,4.8459,4.876,4.9029,4.9424,4.962,4.9766,4.9941,5.0086,5.0316,5.0378,5.0152,4.9802,4.9522,4.9045,4.8386,4.7878,4.7608,4.7369,4.7309,4.7309,4.7309,4.7309,4.7309,4.7309,4.7309,4.7309,4.7309,4.7309,4.7309,4.7309,4.7309,4.7309,4.8443,4.8364,4.8167,4.8083,4.8083,4.8083,4.8083,4.8274,4.8949,4.9647,5.0154,5.0972,5.1534,5.1759,5.1787,5.1787,5.1787,5.1787,5.1787,5.1787,5.1787,5.1787,5.1787,5.1787,5.1787,5.1787,5.1787,5.1787,5.1787,5.1787,5.1787,5.1787,5.1787,5.1787,5.1759,5.1534,5.1478,5.1478,5.1253,5.1,5.066,5.0604,5.0463,5.0097,5.0097,5.0097,5.0069,5.0097,5.021,5.0379,5.0238,5.0322,5.08,5.0941,5.1,5.1309,5.145,5.1787,5.1787,5.1787,5.1787,5.1787,5.1787,5.1787,5.1787,5.1787,5.1787,5.1787,5.1787,5.1787,5.1787,5.1787,5.1787,5.1787,5.1731,5.1702,5.1421,5.1028,5.055,5.0157,4.9792,4.9024,4.8635,4.8638,4.8859,4.9157,4.9473,4.9766,4.9941,5.0038,5.0183,5.0537,5.0627,5.0471,5.0223,4.9927,4.9314,4.8566,4.8147,4.7878,4.7668,4.7369,4.7309,4.7309,4.7309,4.7309,4.7309,4.7309,4.7309,4.7309,4.7309,4.7309,4.7309,4.7309,4.7309,4.8083,4.8083,4.8083,4.8083,4.8083,4.8083,4.8218,4.8583,4.9511,5.0125,5.0519,5.1337,5.1787,5.1787,5.1787,5.1787,5.1787,5.1787,5.1787,5.1787,5.1787,5.1787,5.1787,5.1787,5.1787,5.1787,5.1787,5.1787,5.1787,5.1787,5.1787,5.1787,5.1787,5.1787,5.1759,5.1731,5.1731,5.1702,5.159,5.1534,5.1281,5.114,5.1,5.0829,5.0688,5.0604,5.0407,5.0379,5.0407,5.0519,5.0407,5.0322,5.0716,5.0888,5.0972,5.1253,5.1506,5.1787,5.1787,5.1787,5.1787,5.1787,5.1787,5.1787,5.1787,5.1787,5.1787,5.1787,5.1787,5.1787,5.1787,5.1787,5.1787,5.1787,5.1787,5.1759,5.1674,5.1281,5.1028,5.0663,5.0097,4.9352,4.8708,4.8845,4.8959,4.9256,4.9551,4.9795,5.0086,5.0183,5.0327,5.0632,5.0917,5.0849,5.0598,5.0285,4.9613,4.8775,4.8416,4.8147,4.7638,4.7309,4.7309,4.7309,4.7309,4.7309,4.7309,4.7309,4.7309,4.7309,4.7309,4.7309,4.7309,4.7309,4.7309,4.8083,4.8083,4.8083,4.8083,4.8083,4.8083,4.8392,4.9009,4.9679,5.0322,5.0916,5.1478,5.1787,5.1787,5.1787,5.1787,5.1787,5.1787,5.1787,5.1787,5.1787,5.1787,5.1787,5.1787,5.1787,5.1787,5.1787,5.1787,5.1787,5.1787,5.1787,5.1787,5.1787,5.1787,5.1787,5.1787,5.1787,5.1787,5.1759,5.1731,5.159,5.1646,5.1562,5.1421,5.1421,5.1225,5.1056,5.0916,5.0688,5.0491,5.0182,5.0463,5.0716,5.0913,5.1253,5.159,5.1787,5.1871,5.1787,5.1787,5.1787,5.1787,5.1787,5.1787,5.1787,5.1787,5.1787,5.1787,5.1787,5.1787,5.1787,5.1787,5.1787,5.1787,5.1787,5.1787,5.1787,5.159,5.1393,5.0972,5.035,4.9639,4.9013,4.8952,4.9115,4.9355,4.9649,4.9892,5.0135,5.0327,5.0519,5.0775,5.1011,5.1182,5.096,5.0614,5.0136,4.9404,4.8745,4.8386,4.7818,4.7369,4.7309,4.7309,4.7309,4.7309,4.7309,4.7309,4.7309,4.7309,4.7309,4.7309,4.7309,4.7309,4.7309,4.8083,4.8083,4.8083,4.8083,4.8083,4.8083,4.842,4.9089,4.9679,5.0379,5.0916,5.1506,5.1759,5.1787,5.1787,5.1787,5.1787,5.1787,5.1787,5.1787,5.1787,5.1787,5.1787,5.1787,5.1787,5.1787,5.1787,5.1787,5.1787,5.1787,5.1787,5.1787,5.1787,5.1787,5.1787,5.1787,5.1787,5.1787,5.1787,5.1787,5.1787,5.1787,5.1787,5.1787,5.1787,5.159,5.1506,5.145,5.1253,5.1225,5.0829,5.0857,5.0857,5.0916,5.114,5.1759,5.2068,5.2293,5.1899,5.1787,5.1815,5.1843,5.1815,5.1787,5.1787,5.1787,5.1787,5.1787,5.1787,5.1787,5.1787,5.1787,5.1787,5.1787,5.1787,5.1787,5.1787,5.1731,5.1534,5.1251,5.0575,5.0025,4.9427,4.9116,4.9251,4.9511,4.9746,4.999,5.0183,5.0405,5.0662,5.0947,5.1058,5.1182,5.1229,5.099,5.0571,5.0062,4.9404,4.8716,4.8147,4.7728,4.7429,4.7309,4.7309,4.7309,4.7309,4.7309,4.7309,4.7309,4.7309,4.7309,4.7309,4.7309,4.7309,4.8083,4.8083,4.8083,4.8083,4.8083,4.8083,4.842,4.9037,4.9707,5.0463,5.1225,5.1618,5.1787,5.1787,5.1787,5.1787,5.1787,5.1787,5.1787,5.1787,5.1787,5.1787,5.1787,5.1787,5.1787,5.1787,5.1787,5.1787,5.1787,5.1787,5.1787,5.1787,5.1787,5.1787,5.1787,5.1787,5.1787,5.1787,5.1787,5.1787,5.1787,5.1787,5.1787,5.1787,5.1787,5.1787,5.1787,5.1787,5.1787,5.1787,5.1309,5.1253,5.1253,5.1281,5.1309,5.1871,5.2293,5.2433,5.2264,5.218,5.2152,5.2068,5.1927,5.1787,5.1787,5.1787,5.1787,5.1787,5.1787,5.1787,5.1787,5.1787,5.1787,5.1787,5.1787,5.1787,5.1787,5.1787,5.1562,5.1363,5.0879,5.0379,4.9905,4.9645,4.9437,4.9609,4.9844,5.0086,5.0309,5.0453,5.0739,5.1088,5.1135,5.1229,5.1229,5.1199,5.081,5.0421,5.0002,4.9314,4.8596,4.8057,4.7758,4.7489,4.7309,4.7309,4.7309,4.7309,4.7309,4.7309,4.7309,4.7309,4.7309,4.7309,4.7309,4.8083,4.8083,4.8083,4.8083,4.8083,4.8083,4.8471,4.9037,4.9707,5.0632,5.1506,5.1731,5.1787,5.1787,5.1787,5.1787,5.1787,5.1787,5.1787,5.1787,5.1787,5.1787,5.1787,5.1787,5.1787,5.1787,5.1787,5.1787,5.1787,5.1787,5.1787,5.1787,5.1787,5.1787,5.1787,5.1787,5.1787,5.1787,5.1787,5.1787,5.1787,5.1787,5.1787,5.1787,5.1787,5.1787,5.1787,5.1787,5.1787,5.1787,5.1759,5.1731,5.1702,5.1843,5.1871,5.1955,5.2377,5.2433,5.2461,5.2461,5.2574,5.2461,5.2208,5.204,5.204,5.1843,5.1787,5.1787,5.1787,5.1787,5.1787,5.1787,5.1787,5.1787,5.1787,5.1787,5.1787,5.1759,5.1646,5.1447,5.1186,5.0744,5.0549,5.0211,4.9881,4.991,4.9941,5.0212,5.0405,5.0548,5.0805,5.1135,5.1182,5.1229,5.1229,5.1139,5.0913,5.0584,5.0285,4.9867,4.9194,4.8596,4.8027,4.7668,4.7309,4.7309,4.7309,4.7309,4.7309,4.7309,4.7309,4.7309,4.7309,4.7352,4.7309,4.8083,4.8083,4.8083,4.8083,4.8083,4.8083,4.8471,4.9037,4.9679,5.0435,5.1084,5.1534,5.1787,5.1787,5.1787,5.1787,5.1787,5.1787,5.1787,5.1787,5.1787,5.1787,5.1787,5.1787,5.1787,5.1787,5.1787,5.1787,5.1787,5.1787,5.1787,5.1787,5.1787,5.1787,5.1787,5.1787,5.1787,5.1787,5.1787,5.1787,5.1787,5.1787,5.1787,5.1787,5.1787,5.1787,5.1787,5.1787,5.1787,5.1787,5.1787,5.1759,5.1787,5.2208,5.218,5.2012,5.2349,5.2433,5.2405,5.2517,5.2714,5.2742,5.2574,5.2517,5.2349,5.2012,5.1815,5.1787,5.1787,5.1787,5.1787,5.1787,5.1787,5.1787,5.1787,5.1787,5.1787,5.1731,5.1702,5.1558,5.1409,5.1279,5.1085,5.0851,5.0471,5.0278,5.0116,5.0212,5.0423,5.0614,5.0852,5.1135,5.1182,5.1229,5.1229,5.1199,5.102,5.0823,5.0554,5.0136,4.9687,4.8895,4.8087,4.7638,4.7309,4.7309,4.7309,4.7309,4.7309,4.7309,4.7352,4.7396,4.7439,4.7409,4.7396,4.8083,4.8083,4.8083,4.8083,4.8083,4.8083,4.828,4.8752,4.9567,5.0182,5.066,5.1309,5.1787,5.1787,5.1787,5.1787,5.1787,5.1787,5.1787,5.1787,5.1787,5.1787,5.1787,5.1787,5.1787,5.1787,5.1787,5.1787,5.1787,5.1787,5.1787,5.1787,5.1787,5.1787,5.1787,5.1787,5.1787,5.1787,5.1787,5.1787,5.1787,5.1787,5.1787,5.1787,5.1787,5.1787,5.1787,5.1787,5.1787,5.1787,5.1787,5.1787,5.1815,5.204,5.2068,5.2068,5.2264,5.2545,5.2377,5.2461,5.2798,5.2911,5.277,5.2658,5.263,5.2293,5.2012,5.1983,5.1815,5.1787,5.1787,5.1787,5.1787,5.1787,5.1787,5.1787,5.1787,5.1759,5.1759,5.1729,5.1745,5.1864,5.1728,5.1753,5.1367,5.0647,5.0486,5.0407,5.0666,5.0757,5.0994,5.1135,5.1182,5.1229,5.1229,5.1229,5.1169,5.102,5.0823,5.0465,4.9956,4.8985,4.8147,4.7818,4.7519,4.7309,4.7309,4.7309,4.7309,4.7309,4.7396,4.7452,4.7495,4.7581,4.7666,4.8083,4.8083,4.8083,4.8083,4.8083,4.8083,4.8083,4.8359,4.9426,5.0013,5.0238,5.1281,5.1731,5.1787,5.1787,5.1787,5.1787,5.1787,5.1787,5.1787,5.1787,5.1787,5.1787,5.1787,5.1787,5.1787,5.1787,5.1787,5.1787,5.1787,5.1787,5.1787,5.1787,5.1787,5.1787,5.1787,5.1787,5.1787,5.1787,5.1787,5.1787,5.1787,5.1787,5.1787,5.1787,5.1787,5.1787,5.1787,5.1787,5.1787,5.1787,5.1787,5.1787,5.1871,5.1871,5.1927,5.2152,5.2377,5.2461,5.2545,5.2967,5.3164,5.2911,5.2854,5.2826,5.2714,5.2433,5.2152,5.1983,5.1787,5.1787,5.1787,5.1787,5.1787,5.1787,5.1787,5.1787,5.1787,5.1841,5.1841,5.2079,5.2256,5.2402,5.2457,5.2078,5.1329,5.0944,5.0915,5.0892,5.0971,5.1088,5.1182,5.1182,5.1229,5.1229,5.1229,5.1229,5.1199,5.102,5.0704,5.0285,4.9523,4.8805,4.8207,4.7908,4.7608,4.7412,4.7352,4.7352,4.7396,4.7538,4.7666,4.7709,4.7837,4.8007,4.8083,4.8083,4.8083,4.8083,4.8083,4.8083,4.8083,4.8331,4.9398,5.0013,5.0322,5.114,5.1787,5.1787,5.1787,5.1787,5.1787,5.1787,5.1787,5.1787,5.1787,5.1787,5.1787,5.1787,5.1787,5.1787,5.1787,5.1787,5.1843,5.1815,5.1815,5.1843,5.1871,5.1871,5.1843,5.1871,5.1983,5.2012,5.2012,5.2012,5.1927,5.1899,5.1787,5.1787,5.1787,5.1787,5.1787,5.1787,5.1787,5.1787,5.1787,5.1787,5.1787,5.1787,5.1787,5.1787,5.204,5.204,5.2152,5.2405,5.277,5.2995,5.2911,5.3276,5.3304,5.336,5.3023,5.2574,5.2321,5.1927,5.1843,5.1787,5.1787,5.1787,5.1787,5.1787,5.1787,5.1841,5.1896,5.2113,5.2355,5.2591,5.2828,5.2827,5.2733,5.2071,5.1648,5.1621,5.1391,5.1334,5.1289,5.1229,5.1229,5.1229,5.1229,5.1229,5.1229,5.1229,5.1169,5.0853,5.0584,5.0226,4.9613,4.8925,4.8371,4.7981,4.7785,4.7602,4.7568,4.7611,4.7794,4.7922,4.7964,4.8133,4.8343]}]]